[[{"header":{"parameterUnit":"m.s-1","parameterCategory":1,"la1":30.6,"la2":28.766,"lo1":-90.7593,"lo2":-88.6598,"dx":0.0162,"dy":0.0183,"nx":116,"ny":114,"refTime":"2022-12-27T06:00:00:Z","depth":0,"parameterNumber":2,"parameterNumberName":"U-component_of_WINDS"},"data":[0.0,0.0,0.0,0.0,0.0,0.0,0.0,0.0,0.0,0.0,0.0,0.0,0.0,0.0,0.0,0.0,0.0,0.0,0.0,0.0,0.0,0.0,0.0,0.0,0.0,0.0,0.0,0.0,0.0,0.0,0.0,0.0,0.0,0.0,0.0,0.0,0.0,0.0,0.0,0.0,0.0,0.0,0.0,0.0,0.0,0.0,0.0,0.0,0.0,0.0,0.0,0.0,0.0,0.0,0.0,0.0,0.0,0.0,0.0,0.0,0.0,0.0,0.0,0.0,0.0,0.0,0.0,0.0,0.0,0.0,0.0,0.0,0.0,0.0,0.0,0.0,0.0,0.0,0.0,0.0,0.0,0.0,0.0,0.0,0.0,0.0,0.0,0.0,0.0,0.0,0.0,0.0,0.0,0.0,0.0,0.0,0.0,0.0,0.0,0.0,0.0,0.0,0.0,0.0,0.0,0.0,0.0,0.0,0.0,0.0,0.0,0.0,0.0,0.0,0.0,0.0,0.0,0.0,0.0,0.0,0.0,0.0,0.0,0.0,0.0,0.0,0.0,0.0,0.0,0.0,0.0,0.0,0.0,0.0,0.0,0.0,0.0,0.0,0.0,0.0,0.0,0.0,0.0,0.0,0.0,0.0,0.0,0.0,0.0,0.0,0.0,0.0,0.0,0.0,0.0,0.0,0.0,0.0,0.0,0.0,0.0,0.0,0.0,0.0,0.0,0.0,0.0,0.0,0.0,0.0,0.0,0.0,0.0,0.0,0.0,0.0,0.0,0.0,0.0,0.0,0.0,0.0,0.0,0.0,0.0,0.0,0.0,0.0,0.0,0.0,0.0,0.0,0.0,0.0,0.0,0.0,0.0,0.0,0.0,0.0,0.0,0.0,0.0,0.0,0.0,0.0,0.0,0.0,0.0,0.0,0.0,0.0,0.0,0.0,0.0,0.0,0.0,0.0,0.0,0.0,0.0,0.0,0.0,0.0,0.0,0.0,0.0,0.0,0.0,0.0,0.0,0.0,0.0,0.0,0.0,0.0,0.0,0.0,0.0,0.0,0.0,0.0,0.0,0.0,0.0,0.0,0.0,0.0,0.0,0.0,0.0,0.0,0.0,0.0,0.0,0.0,0.0,0.0,0.0,0.0,0.0,0.0,0.0,0.0,0.0,0.0,0.0,0.0,0.0,0.0,0.0,0.0,0.0,0.0,0.0,0.0,0.0,0.0,0.0,0.0,0.0,0.0,0.0,0.0,0.0,0.0,0.0,0.0,0.0,0.0,0.0,0.0,0.0,0.0,0.0,0.0,0.0,0.0,0.0,0.0,0.0,0.0,0.0,0.0,0.0,0.0,0.0,0.0,0.0,0.0,0.0,0.0,0.0,0.0,0.0,0.0,0.0,0.0,0.0,0.0,0.0,0.0,0.0,0.0,0.0,0.0,0.0,0.0,0.0,0.0,0.0,0.0,0.0,0.0,0.0,0.0,0.0,0.0,0.0,0.0,0.0,0.0,0.0,0.0,0.0,0.0,0.0,0.0,0.0,0.0,0.0,0.0,0.0,0.0,0.0,0.0,0.0,0.0,0.0,0.0,0.0,0.0,0.0,0.0,0.0,0.0,0.0,0.0,0.0,0.0,0.0,0.0,0.0,0.0,0.0,0.0,0.0,0.0,0.0,0.0,0.0,0.0,0.0,0.0,0.0,0.0,0.0,0.0,0.0,0.0,0.0,0.0,0.0,0.0,0.0,0.0,0.0,0.0,0.0,0.0,0.0,0.0,0.0,0.0,0.0,0.0,0.0,0.0,0.0,0.0,0.0,0.0,0.0,0.0,0.0,0.0,0.0,0.0,0.0,0.0,0.0,0.0,0.0,0.0,0.0,0.0,0.0,0.0,0.0,0.0,0.0,0.0,0.0,0.0,0.0,0.0,0.0,0.0,0.0,0.0,0.0,0.0,0.0,0.0,0.0,0.0,0.0,0.0,0.0,0.0,0.0,0.0,0.0,0.0,0.0,0.0,0.0,0.0,0.0,0.0,0.0,0.0,0.0,0.0,0.0,0.0,0.0,0.0,0.0,0.0,0.0,0.0,0.0,0.0,0.0,0.0,0.0,0.0,0.0,0.0,0.0,0.0,0.0,0.0,0.0,0.0,0.0,0.0,0.0,0.0,0.0,0.0,0.0,0.0,0.0,0.0,0.0,0.0,0.0,0.0,0.0,0.0,0.0,0.0,0.0,0.0,0.0,0.0,0.0,0.0,0.0,0.0,0.0,0.0,0.0,0.0,0.0,0.0,0.0,0.0,0.0,0.0,0.0,0.0,0.0,0.0,0.0,0.0,0.0,0.0,0.0,0.0,0.0,0.0,0.0,0.0,0.0,0.0,0.0,0.0,0.0,0.0,0.0,0.0,0.0,0.0,0.0,0.0,0.0,0.0,0.0,0.0,0.0,0.0,0.0,0.0,0.0,0.0,0.0,0.0,0.0,0.0,0.0,0.0,0.0,0.0,0.0,0.0,0.0,0.0,0.0,0.0,0.0,0.0,0.0,0.0,0.0,0.0,0.0,0.0,0.0,0.0,0.0,0.0,0.0,0.0,0.0,0.0,0.0,0.0,0.0,0.0,0.0,0.0,0.0,0.0,0.0,0.0,0.0,0.0,0.0,0.0,0.0,0.0,0.0,0.0,0.0,0.0,0.0,0.0,0.0,0.0,0.0,0.0,0.0,0.0,0.0,0.0,0.0,0.0,0.0,0.0,0.0,0.0,0.0,0.0,0.0,0.0,0.0,0.0,0.0,0.0,0.0,0.0,0.0,0.0,0.0,0.0,0.0,0.0,0.0,0.0,0.0,0.0,0.0,0.0,0.0,0.0,0.0,0.0,0.0,0.0,0.0,0.0,0.0,0.0,0.0,0.0,0.0,0.0,0.0,0.0,0.0,0.0,0.0,0.0,0.0,0.0,0.0,0.0,0.0,0.0,0.0,0.0,0.0,0.0,0.0,0.0,0.0,0.0,0.0,0.0,0.0,0.0,0.0,0.0,0.0,0.0,0.0,0.0,0.0,0.0,0.0,0.0,0.0,0.0,0.0,0.0,0.0,0.0,0.0,0.0,0.0,0.0,0.0,0.0,0.0,0.0,0.0,0.0,0.0,0.0,0.0,0.0,0.0,0.0,0.0,0.0,0.0,0.0,0.0,0.0,0.0,0.0,0.0,0.0,0.0,0.0,0.0,0.0,0.0,0.0,0.0,0.0,0.0,0.0,0.0,0.0,0.0,0.0,0.0,0.0,0.0,0.0,0.0,0.0,0.0,0.0,0.0,0.0,0.0,0.0,0.0,0.0,0.0,0.0,0.0,0.0,0.0,0.0,0.0,0.0,0.0,0.0,0.0,0.0,0.0,0.0,0.0,0.0,0.0,0.0,0.0,0.0,0.0,0.0,0.0,0.0,0.0,0.0,0.0,0.0,0.0,0.0,0.0,0.0,0.0,0.0,0.0,0.0,0.0,0.0,0.0,0.0,0.0,0.0,0.0,0.0,0.0,0.0,0.0,0.0,0.0,0.0,0.0,0.0,0.0,0.0,0.0,0.0,0.0,0.0,0.0,0.0,0.0,0.0,0.0,0.0,0.0,0.0,0.0,0.0,0.0,0.0,0.0,0.0,0.0,0.0,0.0,0.0,0.0,0.0,0.0,0.0,0.0,0.0,0.0,0.0,0.0,0.0,0.0,0.0,0.0,0.0,0.0,0.0,0.0,0.0,0.0,0.0,0.0,0.0,0.0,0.0,0.0,0.0,0.0,0.0,0.0,0.0,0.0,0.0,0.0,0.0,0.0,0.0,0.0,0.0,0.0,0.0,0.0,0.0,0.0,0.0,0.0,0.0,0.0,0.0,0.0,0.0,0.0,0.0,0.0,0.0,0.0,0.0,0.0,0.0,0.0,0.0,0.0,0.0,0.0,0.0,0.0,0.0,0.0,0.0,0.0,0.0,0.0,0.0,0.0,0.0,0.0,0.0,0.0,0.0,0.0,0.0,0.0,0.0,0.0,0.0,0.0,0.0,0.0,0.0,0.0,0.0,0.0,0.0,0.0,0.0,0.0,0.0,0.0,0.0,0.0,0.0,0.0,0.0,0.0,0.0,0.0,0.0,0.0,0.0,0.0,0.0,0.0,0.0,0.0,0.0,0.0,0.0,0.0,0.0,0.0,0.0,0.0,0.0,0.0,0.0,0.0,0.0,0.0,0.0,0.0,0.0,0.0,0.0,0.0,0.0,0.0,0.0,0.0,0.0,0.0,0.0,0.0,0.0,0.0,0.0,0.0,0.0,0.0,0.0,0.0,0.0,0.0,0.0,0.0,0.0,0.0,0.0,0.0,0.0,0.0,0.0,0.0,0.0,0.0,0.0,0.0,0.0,0.0,0.0,0.0,0.0,0.0,0.0,0.0,0.0,0.0,0.0,0.0,0.0,0.0,0.0,0.0,0.0,0.0,0.0,0.0,0.0,0.0,0.0,0.0,0.0,0.0,0.0,0.0,0.0,0.0,0.0,0.0,0.0,0.0,0.0,0.0,0.0,0.0,0.0,0.0,0.0,0.0,0.0,0.0,0.0,0.0,0.0,0.0,0.0,0.0,0.0,0.0,0.0,0.0,0.0,0.0,0.0,0.0,0.0,0.0,0.0,0.0,0.0,0.0,0.0,0.0,0.0,0.0,0.0,0.0,0.0,0.0,0.0,0.0,0.0,0.0,0.0,0.0,0.0,0.0,0.0,0.0,0.0,0.0,0.0,0.0,0.0,0.0,0.0,0.0,0.0,0.0,0.0,0.0,0.0,0.0,0.0,0.0,0.0,0.0,0.0,0.0,0.0,0.0,0.0,0.0,0.0,0.0,0.0,0.0,0.0,0.0,0.0,0.0,0.0,0.0,0.0,0.0,0.0,0.0,0.0,0.0,0.0,0.0,0.0,0.0,0.0,0.0,0.0,0.0,0.0,0.0,0.0,0.0,0.0,0.0,0.0,0.0,0.0,0.0,0.0,0.0,0.0,0.0,0.0,0.0,0.0,0.0,0.0,0.0,0.0,0.0,0.0,0.0,0.0,0.0,0.0,0.0,0.0,0.0,0.0,0.0,0.0,0.0,0.0,0.0,0.0,0.0,0.0,0.0,0.0,0.0,0.0,0.0,0.0,0.0,0.0,0.0,0.0,0.0,0.0,0.0,0.0,0.0,0.0,0.0,0.0,0.0,0.0,0.0,0.0,0.0,0.0,0.0,0.0,0.0,0.0,0.0,0.0,0.0,0.0,0.0,0.0,0.0,0.0,0.0,0.0,0.0,0.0,0.0,0.0,0.0,0.0,0.0,0.0,0.0,0.0,0.0,0.0,0.0,0.0,0.0,0.0,0.0,0.0,0.0,0.0,0.0,0.0,0.0,0.0,0.0,0.0,0.0,0.0,0.0,0.0,0.0,0.0,0.0,0.0,0.0,0.0,0.0,0.0,0.0,0.0,0.0,0.0,0.0,0.0,0.0,0.0,0.0,0.0,0.0,0.0,0.0,0.0,0.0,0.0,0.0,0.0,0.0,0.0,0.0,0.0,0.0,0.0,0.0,0.0,0.0,0.0,0.0,0.0,0.0,0.0,0.0,0.0,0.0,0.0,0.0,0.0,0.0,0.0,0.0,0.0,0.0,0.0,0.0,0.0,0.0,0.0,0.0,0.0,0.0,0.0,0.0,0.0,0.0,0.0,0.0,0.0,0.0,0.0,0.0,0.0,0.0,0.0,0.0,0.0,0.0,0.0,0.0,0.0,0.0,0.0,0.0,0.0,0.0,0.0,0.0,0.0,0.0,0.0,0.0,0.0,0.0,0.0,0.0,0.0,0.0,0.0,0.0,0.0,0.0,0.0,0.0,0.0,0.0,0.0,0.0,0.0,0.0,0.0,0.0,0.0,0.0,0.0,0.0,0.0,0.0,0.0,0.0,0.0,0.0,0.0,0.0,0.0,0.0,0.0,0.0,0.0,0.0,0.0,0.0,0.0,0.0,0.0,0.0,0.0,0.0,0.0,0.0,0.0,0.0,0.0,0.0,0.0,0.0,0.0,0.0,0.0,0.0,0.0,-2.8432,-2.7264,0.0,0.0,0.0,0.0,0.0,0.0,0.0,0.0,0.0,0.0,0.0,0.0,0.0,0.0,0.0,0.0,0.0,0.0,0.0,0.0,0.0,0.0,0.0,0.0,0.0,0.0,0.0,0.0,0.0,0.0,0.0,0.0,0.0,0.0,0.0,0.0,0.0,0.0,-2.1958,-2.3371,-2.5483,-2.3939,-2.2955,-2.2446,0.0,0.0,0.0,0.0,0.0,0.0,0.0,0.0,0.0,0.0,0.0,0.0,0.0,0.0,0.0,0.0,0.0,0.0,0.0,0.0,0.0,0.0,0.0,0.0,0.0,0.0,0.0,0.0,0.0,0.0,0.0,0.0,0.0,0.0,0.0,0.0,0.0,0.0,0.0,0.0,0.0,0.0,0.0,0.0,0.0,0.0,0.0,0.0,0.0,0.0,0.0,0.0,0.0,0.0,0.0,0.0,0.0,0.0,0.0,0.0,0.0,0.0,0.0,0.0,0.0,0.0,0.0,0.0,0.0,0.0,-2.912,-2.8518,0.0,0.0,0.0,0.0,0.0,0.0,0.0,0.0,0.0,0.0,0.0,0.0,0.0,0.0,0.0,0.0,0.0,0.0,0.0,0.0,0.0,0.0,0.0,0.0,-1.9333,-2.0101,-1.9361,-1.9112,0.0,0.0,0.0,0.0,0.0,0.0,0.0,0.0,0.0,0.0,0.0,-2.5983,-2.7679,-2.7296,-2.7029,0.0,0.0,0.0,0.0,0.0,0.0,0.0,0.0,0.0,0.0,0.0,0.0,0.0,0.0,0.0,0.0,0.0,0.0,0.0,0.0,0.0,0.0,0.0,0.0,0.0,0.0,0.0,0.0,0.0,0.0,0.0,0.0,0.0,0.0,0.0,0.0,0.0,0.0,0.0,0.0,0.0,0.0,0.0,0.0,0.0,0.0,0.0,0.0,0.0,0.0,0.0,0.0,0.0,0.0,0.0,0.0,0.0,0.0,0.0,0.0,0.0,0.0,0.0,0.0,0.0,-2.9045,-2.9057,-2.8774,-2.8398,-2.8539,-2.9067,-2.9177,-2.929,-2.9337,-2.8802,0.0,0.0,0.0,0.0,0.0,0.0,0.0,0.0,0.0,0.0,0.0,0.0,0.0,0.0,0.0,0.0,0.0,0.0,0.0,0.0,0.0,-2.0459,-2.0581,-2.116,-2.0406,-2.0449,0.0,0.0,0.0,0.0,0.0,0.0,0.0,0.0,0.0,0.0,0.0,-2.747,-2.772,-2.8504,-2.8906,-2.8906,-2.7284,0.0,0.0,0.0,0.0,0.0,0.0,0.0,0.0,0.0,0.0,0.0,0.0,0.0,0.0,0.0,0.0,0.0,0.0,0.0,0.0,0.0,0.0,0.0,0.0,0.0,0.0,0.0,0.0,0.0,0.0,0.0,0.0,0.0,0.0,0.0,0.0,0.0,0.0,0.0,0.0,0.0,0.0,0.0,-2.7299,-2.7935,0.0,0.0,0.0,0.0,0.0,0.0,0.0,0.0,0.0,0.0,0.0,0.0,0.0,-2.972,-2.8751,-2.928,-2.9194,-2.8537,-2.869,-2.8762,-2.8714,-2.8467,-2.8427,-2.852,-2.8513,0.0,-2.8915,-2.9173,0.0,0.0,0.0,0.0,0.0,0.0,0.0,0.0,0.0,0.0,0.0,0.0,0.0,0.0,0.0,0.0,0.0,0.0,0.0,0.0,0.0,-2.2483,-2.2952,-2.3008,-2.3429,-2.3698,-2.3715,0.0,0.0,0.0,0.0,0.0,0.0,0.0,0.0,0.0,-2.7737,-2.8746,-2.9496,-2.9572,-2.9842,-3.02,-2.9024,-2.8044,-2.7232,-2.669,0.0,0.0,0.0,0.0,0.0,0.0,0.0,0.0,0.0,0.0,0.0,0.0,0.0,0.0,0.0,0.0,0.0,0.0,0.0,0.0,0.0,0.0,0.0,0.0,0.0,0.0,0.0,0.0,0.0,0.0,0.0,0.0,0.0,0.0,0.0,0.0,0.0,0.0,0.0,-2.8072,-2.7758,-2.8526,-2.8058,-2.7916,0.0,0.0,0.0,0.0,0.0,0.0,0.0,0.0,0.0,-2.85,-2.866,-2.8498,-2.7937,-2.8104,-2.8215,-2.8279,-2.8117,-2.8343,-2.8912,-2.8446,-2.8229,-2.8244,-2.8113,-2.8132,-2.8302,-2.9004,-2.9244,-2.9222,0.0,0.0,0.0,0.0,-2.9091,-2.8842,0.0,0.0,0.0,0.0,0.0,0.0,0.0,0.0,0.0,0.0,0.0,0.0,-2.3055,-2.4117,-2.4782,-2.4711,-2.5663,-2.5857,-2.4849,-2.5068,0.0,0.0,0.0,0.0,0.0,0.0,0.0,0.0,-2.8393,-2.9214,-3.0238,-2.9862,-2.9955,-3.0438,-3.0057,-2.9288,-2.825,-2.8124,-2.7358,0.0,0.0,0.0,0.0,0.0,0.0,0.0,0.0,0.0,0.0,0.0,0.0,0.0,0.0,0.0,0.0,0.0,0.0,0.0,0.0,0.0,0.0,0.0,0.0,0.0,0.0,0.0,0.0,0.0,0.0,0.0,0.0,0.0,0.0,0.0,0.0,0.0,0.0,-2.8254,-2.8121,-2.8898,-2.8408,-2.8214,0.0,0.0,0.0,0.0,0.0,0.0,-2.8231,-2.7963,-2.7815,-2.7854,-2.754,-2.7287,-2.7097,-2.7097,-2.7352,-2.7854,-2.754,-2.7815,-2.8574,-2.8076,-2.7854,-2.7854,-2.7685,-2.7625,-2.7685,-2.8496,-2.8904,-2.9118,-2.9826,-3.0095,-3.0054,-2.9586,-2.9279,-2.902,0.0,0.0,0.0,0.0,0.0,0.0,0.0,0.0,0.0,0.0,0.0,-2.3884,-2.4348,-2.4811,-2.5276,-2.5793,-2.5703,-2.5329,-2.4583,-2.5181,-2.5024,0.0,0.0,0.0,0.0,0.0,0.0,-2.8179,-2.829,-2.8345,-2.8446,-2.8928,-2.9175,-2.9206,-2.9681,-2.9853,-2.9773,-2.9313,-2.8675,-2.7885,0.0,0.0,0.0,0.0,0.0,0.0,0.0,0.0,0.0,0.0,0.0,0.0,0.0,0.0,0.0,0.0,0.0,0.0,0.0,0.0,0.0,0.0,0.0,0.0,0.0,0.0,0.0,0.0,0.0,0.0,0.0,0.0,0.0,0.0,0.0,0.0,0.0,0.0,0.0,-2.9384,-2.8314,0.0,0.0,0.0,0.0,-2.7947,-2.7923,-2.7815,-2.7565,-2.754,-2.7414,-2.7174,-2.7122,-2.7122,-2.7097,-2.7097,-2.7122,-2.7148,-2.7122,-2.7148,-2.7199,-2.7174,-2.7148,-2.7148,-2.7148,-2.7148,-2.7174,-2.7675,-2.8174,-2.8623,-2.8678,-2.8747,-2.8754,-2.8262,-2.8005,-2.7777,0.0,0.0,0.0,-1.5313,-1.6203,-1.7323,-1.8128,-1.9876,-2.1406,-2.2185,-2.3422,-2.4388,-2.473,-2.6117,-2.7035,-2.7049,-2.7863,-2.7904,-2.6823,-2.7397,-2.7239,0.0,0.0,0.0,0.0,0.0,-2.8811,-2.9495,-2.9521,-2.9331,-2.8956,-2.9153,-2.9185,-2.9097,-2.9296,-2.9576,-2.9902,-2.9734,-2.9324,-2.8767,-2.8375,-2.7715,0.0,0.0,0.0,0.0,0.0,0.0,0.0,0.0,0.0,0.0,0.0,0.0,0.0,0.0,0.0,0.0,0.0,0.0,0.0,0.0,0.0,0.0,0.0,0.0,0.0,0.0,0.0,0.0,0.0,0.0,0.0,0.0,0.0,0.0,0.0,0.0,0.0,-2.84,-2.7675,0.0,-2.8061,-2.76,-2.7246,-2.7246,-2.7229,-2.7101,-2.6878,-2.6992,-2.6955,-2.6721,-2.6457,-2.6324,-2.6324,-2.6324,-2.6457,-2.6707,-2.6457,-2.6616,-2.7097,-2.6837,-2.6707,-2.6707,-2.6707,-2.6707,-2.6747,-2.6878,-2.7225,-2.7635,-2.7635,-2.7645,-2.764,-2.747,-2.7282,-2.7038,0.0,0.0,0.0,-1.554,-1.6747,-1.7974,-1.8729,-2.0446,-2.2029,-2.3047,-2.4025,-2.498,-2.5875,-2.7388,-2.8282,-2.8174,-2.9074,-2.9099,-2.7816,-2.8592,-2.8518,0.0,0.0,0.0,0.0,-2.9362,-2.9362,-2.9994,-2.9795,-2.9358,-2.8766,-2.8946,-2.8842,-2.8567,-2.8935,-2.9296,-2.9643,-2.9814,-2.9734,-2.9414,-2.9169,-2.8746,-2.8108,0.0,0.0,0.0,0.0,0.0,0.0,0.0,0.0,0.0,0.0,0.0,0.0,0.0,0.0,0.0,0.0,0.0,0.0,0.0,0.0,0.0,0.0,0.0,0.0,0.0,0.0,0.0,0.0,0.0,0.0,0.0,0.0,0.0,0.0,-2.7795,-2.7369,-2.7854,-2.7299,-2.7117,-2.7803,-2.7454,-2.7198,-2.7198,-2.7173,-2.7089,-2.6941,-2.7046,-2.7089,-2.6941,-2.6693,-2.6526,-2.6526,-2.6526,-2.6651,-2.6927,-2.6665,-2.6817,-2.7333,-2.682,-2.6584,-2.6584,-2.6397,-2.6312,-2.627,-2.6,-2.6162,-2.659,-2.6811,-2.6811,-2.6695,-2.6695,-2.6537,-2.6283,0.0,0.0,-1.5723,-1.5564,-1.6598,-1.7919,-1.9321,-2.0513,-2.2051,-2.422,-2.478,-2.5757,-2.7889,-2.8551,-2.8909,-2.9095,-2.9129,-2.8575,-2.731,-2.8544,-2.8794,0.0,0.0,0.0,-2.961,-2.9058,-2.9044,-2.9653,-2.9073,-2.8448,-2.7782,-2.832,-2.8211,-2.76,-2.8653,-2.9098,-2.9144,-2.9675,-2.9891,-2.9826,-2.9113,-2.9264,-2.9734,0.0,0.0,0.0,0.0,0.0,0.0,0.0,0.0,0.0,0.0,0.0,0.0,0.0,0.0,0.0,0.0,0.0,0.0,0.0,0.0,0.0,0.0,0.0,0.0,0.0,0.0,0.0,0.0,0.0,0.0,0.0,0.0,0.0,-2.7976,-2.7839,-2.7833,-2.7855,-2.726,-2.7102,-2.7746,-2.7826,-2.7833,-2.7833,-2.7862,-2.789,-2.7862,-2.7876,-2.7876,-2.7833,-2.7833,-2.7833,-2.7833,-2.779,-2.779,-2.7804,-2.7747,-2.7747,-2.7719,-2.7058,-2.675,-2.6708,-2.6147,-2.5881,-2.5798,-2.5021,-2.4978,-2.5508,-2.6177,-2.619,-2.5839,-2.5839,-2.5688,-2.5411,-1.7193,-1.597,-1.5244,-1.6027,-1.7444,-1.8865,-1.998,-2.1463,-2.3042,-2.4792,-2.5529,-2.6609,-2.84,-2.9194,-2.9456,-2.9143,-2.9509,-2.9292,-2.8223,-2.938,0.0,0.0,0.0,0.0,-3.0306,-3.0176,-3.0364,-3.0973,-3.0829,-3.0408,-2.9828,-2.9959,-2.9613,-2.8895,-2.9184,-2.9287,-2.9279,-2.9761,-3.0005,-3.0011,-2.9716,-2.9718,-2.9848,0.0,0.0,0.0,0.0,0.0,0.0,0.0,0.0,0.0,0.0,0.0,0.0,0.0,0.0,0.0,0.0,0.0,0.0,0.0,0.0,0.0,0.0,0.0,0.0,0.0,0.0,0.0,0.0,0.0,0.0,0.0,-2.9721,-2.955,-2.8051,-2.7817,-2.7627,-2.715,-2.7357,-2.7596,-2.7783,-2.8189,-2.8436,-2.8436,-2.9265,-2.9574,-2.9125,-2.9532,-2.9364,-2.8464,-2.8436,-2.8436,-2.8436,-2.7497,-2.7212,-2.7636,-2.6683,-2.621,-2.621,-2.6007,-2.5853,-2.5717,-2.5559,-2.5195,-2.4711,-2.4502,-2.4268,-2.4108,-2.4667,-2.4851,-2.4751,-2.4751,-2.4551,-2.4163,-1.7218,-1.6052,-1.5435,-1.6337,-1.7785,-1.9194,-2.0315,-2.1787,-2.347,-2.5414,-2.5941,-2.693,-2.9031,-2.9637,-2.9582,-2.8842,-2.9349,-2.9285,-2.8231,-2.9376,0.0,0.0,0.0,-3.0598,-3.0598,-3.0843,-3.1148,-3.1495,-3.177,-3.1467,-3.0598,-3.0598,-3.0075,-2.9123,-2.9312,-2.9372,-2.9366,-2.9871,-3.0244,-3.0504,-3.0424,-3.0373,-3.0312,-3.0312,-3.0393,-3.0474,-3.036,-3.0393,-3.0412,-3.0064,0.0,0.0,0.0,0.0,0.0,0.0,0.0,0.0,0.0,0.0,0.0,0.0,0.0,0.0,0.0,0.0,0.0,0.0,0.0,0.0,0.0,0.0,0.0,0.0,-3.0211,-3.019,-2.9072,-2.8946,-2.8689,-2.8057,-2.8535,-2.8928,-2.8928,-2.949,-2.9869,-2.9869,-3.0225,-3.0251,-2.9905,-2.9898,-2.9596,-2.8888,-2.8874,-2.8874,-2.8874,-2.8101,-2.7786,-2.7866,-2.702,-2.6525,-2.6387,-2.598,-2.5768,-2.571,-2.5339,-2.4962,-2.4531,-2.3864,-2.3753,-2.3961,0.0,0.0,0.0,0.0,-2.3682,-2.3416,-1.7417,-1.6546,-1.6115,-1.666,-1.7927,-1.9274,-2.0451,-2.1782,-2.354,-2.5999,-2.6101,-2.6962,-2.9616,-2.9896,-2.9493,-2.8472,-2.9012,-2.9009,-2.8097,0.0,0.0,-3.0583,-3.0598,-3.0598,-3.0598,-3.1192,-3.1524,-3.1596,-3.2263,-3.2004,-3.0816,-3.0816,-3.0147,-2.8912,-2.9358,-2.9491,-2.9444,-2.9966,-3.0557,-3.1105,-3.1002,-3.099,-3.1034,-3.1114,-3.0781,-3.035,-3.0955,-3.0771,-3.0267,-3.0283,0.0,0.0,0.0,0.0,0.0,0.0,0.0,0.0,0.0,0.0,0.0,0.0,0.0,0.0,0.0,0.0,0.0,0.0,0.0,0.0,0.0,0.0,0.0,0.0,-3.0739,-3.0694,-3.0694,-3.0685,-3.0447,-2.9768,-3.0153,-3.0466,-3.0466,-3.1006,-3.1336,-3.1336,-3.0733,-3.0381,-3.0381,-2.9676,0.0,0.0,0.0,-2.9216,-2.9216,-2.9045,-2.8763,-2.8309,-2.7923,-2.7567,-2.7248,-2.6289,-2.5955,-2.6041,-2.5272,-2.4825,-2.4556,-2.3144,-2.3166,-2.4059,-2.3491,-2.325,-2.314,-2.2792,-2.2701,-2.2774,-1.8234,-1.7417,-1.7033,-1.7625,-1.8974,-2.0191,-2.0823,-2.2113,-2.3832,-2.6152,-2.6331,-2.7151,-2.9637,-2.9896,-2.9643,-2.9005,-2.9627,-3.0041,0.0,0.0,-3.0467,-3.0598,-3.0598,-3.0598,-3.0598,-3.1192,-3.1756,-3.2292,-3.2977,-3.289,-3.2135,-3.2135,-3.1453,-3.0234,-3.0338,-3.0017,-2.9435,-2.9977,-3.0573,-3.1131,-3.0472,-3.0858,-3.1843,-3.2449,-3.2579,-3.2498,-3.2682,-3.2673,-3.2501,-3.2084,-3.1535,-3.105,-3.1067,0.0,0.0,0.0,0.0,0.0,0.0,0.0,0.0,0.0,0.0,0.0,0.0,0.0,0.0,0.0,0.0,0.0,0.0,0.0,0.0,-3.0775,-3.1486,-3.2033,-3.2033,-3.1896,-3.1433,-3.0433,-3.0323,-3.0358,-3.0358,-3.0306,-3.0285,-3.0285,-3.0599,-3.079,-3.079,-3.0642,-3.0309,-2.9852,-2.9839,-2.9839,-2.9839,-2.8747,-2.8332,-2.8524,-2.6968,0.0,-2.5889,-2.5301,-2.4956,-2.485,-2.4673,-2.3909,-2.2711,-2.2393,-2.1797,-2.1129,-2.1728,-2.171,-2.1192,-2.0182,-2.0396,-2.1098,-1.8965,-1.8284,-1.7793,-1.8048,-1.94,-2.0598,-2.0996,-2.234,-2.3937,-2.5712,-2.5883,-2.6587,-2.8577,-2.9135,-2.9169,-2.8693,-2.942,0.0,0.0,-3.0598,-3.0598,-3.0598,-3.0598,-3.0598,-3.0598,-3.1526,-3.2147,-3.2481,-3.347,-3.3456,-3.2481,-3.2481,-3.183,-3.0598,-3.0477,-3.0244,-2.9851,-3.0074,-3.0513,-3.1067,-3.0666,-3.1133,-3.2043,-3.2167,-3.2193,-3.2262,-3.266,-3.2788,-3.2707,-3.2145,-3.1708,-3.1351,-3.1042,-3.0705,-3.0421,0.0,0.0,0.0,0.0,0.0,0.0,0.0,0.0,0.0,0.0,0.0,0.0,0.0,0.0,-3.0758,-3.0758,0.0,-3.1106,-3.1021,-3.1774,-3.2208,-3.1733,-3.1897,-3.1891,-3.1364,-3.0888,-3.0601,-3.0601,-3.049,-3.0464,-3.0464,-3.0364,-3.0291,-3.0291,-2.9922,-2.9578,-2.9264,-2.9251,-2.9251,-2.9251,-2.8583,-2.8046,-2.7563,-2.6141,-2.5338,-2.5118,-2.4267,-2.3886,-2.3911,-2.4225,-2.3447,-2.2009,-2.2009,-2.1208,-2.0036,-2.0548,-2.0661,-2.0393,-1.9583,-1.9691,-2.0082,-1.9239,-1.8915,-1.8535,-1.8483,-1.9655,-2.0729,-2.1117,-2.2364,-2.376,-2.5157,-2.5392,-2.5997,-2.745,-2.8354,-2.8754,-2.8602,0.0,0.0,0.0,-3.0777,-3.0777,-3.0777,-3.0657,-3.0598,-3.0598,-3.1729,-3.2292,-3.2292,-3.347,-3.3423,-3.2275,-3.2275,-3.1637,-3.0492,-3.0326,-3.0235,-3.019,-3.0097,-3.0403,-3.094,-3.0793,-3.1217,-3.1842,-3.1313,-3.1296,-3.1589,-3.206,-3.2231,-3.2132,-3.1523,-3.135,-3.1234,-3.0747,-3.0568,-3.0538,-3.0598,-3.0568,0.0,0.0,0.0,0.0,0.0,0.0,0.0,0.0,-2.9584,-2.993,-2.993,-3.0326,-3.0648,-3.0504,-3.0987,-3.1322,-3.1023,-3.1623,-3.182,-3.1016,-3.1328,-3.1636,-3.1636,-3.1082,-3.067,-3.067,-3.0519,-3.0443,-3.0443,-2.9807,-2.9484,-2.9484,-2.8843,-2.8471,-2.8431,-2.8431,-2.8431,-2.8391,-2.8391,-2.7842,-2.6753,-2.5595,-2.4941,-2.4707,-2.3375,-2.2868,-2.3032,-2.335,-2.2745,-2.1527,-2.1375,-2.0667,-1.9707,-1.9782,-1.9897,-1.9962,-1.9475,-1.9338,-1.9355,-1.8432,-1.8989,-1.9453,-1.9439,-2.0077,-2.0788,-2.1361,-2.2018,-2.3076,-2.4903,-2.5386,-2.6034,-2.7221,-2.8276,-2.9166,-2.9904,0.0,0.0,-3.1376,-3.1393,-3.1393,-3.1393,-3.0896,-3.0598,-3.0598,-3.1264,-3.1596,-3.1596,-3.2336,-3.2272,-3.1421,-3.1421,-3.097,-3.0142,-3.0142,-3.0021,-2.9839,-2.9853,-3.0192,-3.0689,-3.0162,-3.0419,-3.1072,-3.0601,-3.1187,-3.2235,-3.1764,-3.1595,-3.1508,-3.0881,-3.0687,-3.0687,-3.0628,-3.0477,-3.0387,-3.0538,0.0,-3.0342,-3.0451,-3.0283,-3.0052,-2.9799,-2.9687,-2.962,0.0,-2.9999,-3.0417,-3.0417,-3.0937,-3.1174,-3.044,-3.0821,-3.0983,-3.025,-3.0661,-3.104,-3.0919,-3.0367,-2.9961,-2.9961,-2.9896,-2.9807,-2.9807,-2.9184,-2.8776,-2.8776,-2.8697,-2.8618,-2.8618,-2.855,-2.8431,-2.8259,-2.8219,-2.8151,-2.7962,-2.7962,-2.777,-2.7377,-2.565,-2.4737,-2.4487,-2.2743,-2.1956,-2.1945,-2.1221,-2.0808,-2.0576,-1.9883,-1.9502,-1.9346,-1.9346,-1.9397,-1.9297,-1.8545,-1.8461,-1.8623,-1.7504,-1.8265,-1.8692,-1.8228,-1.9578,-2.0894,-2.1416,-2.2122,-2.3034,-2.4291,-2.4439,-2.4863,-2.5965,-2.7485,-2.871,-2.945,-3.055,-3.1261,-3.1369,-3.1779,-3.1879,-3.1508,-3.1263,-3.097,-3.0598,-3.1192,-3.1495,-3.1495,-3.2084,-3.202,-3.1305,-3.1211,-3.0836,-3.0219,-3.0021,-2.9929,-2.9974,-2.9775,-2.9822,-3.0054,-2.987,-3.0054,-3.0433,-3.028,-3.0583,-3.116,-3.1029,-3.0911,0.0,0.0,-3.0598,-3.0568,-3.0447,-3.0387,-3.0312,-3.0417,-3.0387,-3.0296,-3.031,-3.0066,-2.9789,-2.9713,-2.9901,-3.0105,-3.0105,-3.0628,-3.1078,-3.1078,-3.1583,-3.1768,-3.0957,-3.1327,-3.1311,-3.0021,-3.0439,-3.0557,-2.9626,-2.9626,-2.9523,-2.9067,-2.8988,-2.8988,-2.8988,-2.8697,-2.851,-2.851,-2.851,-2.851,-2.851,-2.851,-2.8431,-2.8219,-2.8219,-2.8111,-2.7893,-2.7893,-2.7243,-2.5922,-2.4675,-2.3674,-2.2896,-2.1624,-2.1308,-2.1728,-2.0382,-2.0079,-2.043,-1.9608,-1.9301,-1.9301,-1.9301,-1.9301,-1.9228,-1.8678,-1.8545,-1.8545,-1.6984,-1.7578,-1.7857,-1.7485,-1.8915,-2.0281,-2.0812,-2.1771,-2.272,-2.3481,-2.3697,-2.422,-2.5414,-2.672,-2.7816,-2.8681,-2.9906,-3.0798,0.0,-3.1723,-3.2009,-3.1975,-3.1665,0.0,-3.0851,-3.1109,-3.125,-3.125,-3.165,-3.1541,-3.1001,-3.0891,-3.0587,-3.016,-2.9884,-2.9898,-3.0127,-2.9913,-2.9867,-2.9991,-3.0085,-3.0129,-3.0158,-3.0233,-3.0219,-3.019,-3.0447,-3.0417,0.0,0.0,-3.0757,-3.0597,-3.0619,-3.0486,-3.0312,-3.0387,-3.0472,-3.0494,-3.0168,-2.9968,-2.9766,-2.9329,-2.9678,-3.0119,-3.0119,-3.0782,-3.1408,-3.1408,-3.1895,-3.2089,-3.1258,-3.1305,-3.0957,-2.9588,-2.9858,-2.9807,-2.8657,-2.8988,-2.9145,-2.859,-2.851,-2.851,-2.851,-2.851,-2.851,-2.851,-2.851,-2.8391,-2.8139,-2.8087,-2.7926,-2.7725,-2.7418,-2.7296,-2.733,-2.7074,-2.621,-2.4712,-2.364,-2.2661,-2.1779,-2.0683,-2.0498,-2.1029,-1.9835,-1.9608,-2.0109,-1.9529,-1.9301,-1.9301,-1.9301,-1.9143,-1.8939,-1.8903,-1.8806,-1.8614,-1.7096,-1.7114,-1.7374,-1.8135,-1.8339,-1.8608,-1.9275,-2.0594,-2.1778,-2.2453,-2.3513,-2.4742,-2.6202,-2.6133,-2.6545,-2.8015,-2.8575,-2.9512,-3.1,-3.1133,-3.1732,-3.3082,-3.2102,-3.148,-3.148,-3.091,-3.0641,-3.0641,-3.0656,-3.0521,-3.0325,-3.0187,-3.0019,-2.9808,-2.9651,-2.9867,-3.0282,-3.0282,-3.0553,-3.097,-3.097,-3.0703,-3.0326,-3.0507,-3.0251,-2.987,-3.019,0.0,0.0,0.0,-3.1076,-3.0714,-3.1263,-3.0939,-3.0357,-3.0538,-3.0895,-3.1074,-3.022,-3.0223,-3.012,-2.8691,-2.8739,-2.9121,-2.9121,-3.0206,-3.12,-3.12,-3.1675,-3.1865,-3.1055,-3.0291,-2.951,-2.8657,-2.855,-2.855,-2.851,-2.851,-2.855,-2.851,-2.851,-2.851,-2.851,-2.851,-2.851,-2.851,-2.851,-2.8139,-2.7267,-2.6999,-2.6741,-2.6569,-2.5473,-2.5221,-2.5861,-2.5041,-2.4563,-2.4489,-2.278,-2.1909,-2.186,-2.0141,-1.9341,-1.9381,-1.9301,-1.9301,-1.9341,-1.9301,-1.9301,-1.9301,-1.9301,-1.8767,-1.8158,-1.8957,-1.9036,-1.865,-1.7801,-1.7894,-1.7987,-1.8247,-1.8785,-1.905,-1.8687,-2.0376,-2.1881,-2.2429,-2.349,0.0,0.0,0.0,0.0,0.0,-2.7948,-2.9081,-2.955,-3.0908,-3.1741,-3.1798,-3.1998,-3.1908,-3.1508,-3.0911,-3.0598,-3.0598,-3.0477,-3.017,-2.9693,-2.9528,-2.924,-2.8898,-2.9565,-3.0046,-3.0366,-3.1054,-3.1435,-3.1593,-3.1493,-3.1478,-3.1448,-3.094,-3.0732,-3.0762,0.0,0.0,0.0,0.0,0.0,-3.1219,-3.1312,-3.0551,-2.9599,-2.9435,-2.9755,-3.0065,-2.9644,-2.955,-2.946,-2.8948,-2.9256,-2.9686,-2.9686,-3.077,-3.1645,-3.1123,-3.1575,-3.1709,-3.0329,-2.9884,-2.9445,-2.8618,-2.851,-2.851,-2.851,-2.851,-2.851,-2.851,-2.851,-2.851,-2.851,-2.8379,-2.8299,-2.8299,-2.8299,-2.7886,-2.6987,-2.6864,-2.6442,-2.5663,-2.5094,-2.484,-2.4956,-2.4669,-2.4045,-2.3145,-2.1412,-2.042,-2.0179,-1.958,-1.9301,-1.9301,-1.9301,-1.9301,-1.9301,-1.9301,-1.9301,-1.9301,-1.9301,-1.8776,-1.8037,-1.8327,-1.8,-1.7479,-1.9136,-1.9005,-1.8894,-1.9173,-1.9667,0.0,0.0,0.0,0.0,0.0,0.0,0.0,0.0,0.0,0.0,0.0,0.0,-2.8013,-2.8447,-2.9983,-3.0919,-3.1023,-3.1867,-3.2056,-3.1432,-3.1115,-3.0807,-3.0598,-3.0477,-3.0099,-2.9478,-2.9243,-2.8841,-2.8383,0.0,0.0,0.0,0.0,-3.2224,-3.2563,-3.2087,-3.2192,-3.2489,-3.1214,-3.0924,0.0,0.0,0.0,0.0,0.0,-3.1872,-3.1445,-3.1596,-3.0658,-2.949,-2.9556,-2.9675,-2.9719,-2.9376,-2.9279,-2.9213,-2.8729,-2.9023,-2.9466,-2.9466,-3.062,-3.1439,-3.0632,-3.1119,-3.1267,-2.9922,-2.9484,-2.9106,-2.8578,-2.851,-2.851,-2.851,-2.851,-2.851,-2.851,-2.851,-2.8339,-2.7914,-2.7701,-2.7742,-2.8179,-2.7487,-2.6853,-2.6276,-2.5797,-2.5294,-2.4606,-2.3996,-2.378,-2.4016,-2.3681,-2.2977,-2.1992,-2.0741,-1.9884,-1.9522,-1.9366,-1.9301,-1.9301,-1.9301,-1.9134,-1.8856,-1.9183,-1.9134,-1.8856,-1.9183,-1.8567,-1.7553,-1.7876,-1.7269,-1.6365,-2.1022,-2.0374,-2.0074,0.0,0.0,0.0,0.0,0.0,0.0,0.0,0.0,0.0,0.0,0.0,0.0,0.0,0.0,0.0,-2.772,0.0,0.0,-3.0726,-3.1636,-3.1826,-3.1294,-3.1384,-3.1159,-3.0585,-3.0585,-3.0235,-2.958,-2.9304,-2.8842,-2.824,0.0,0.0,0.0,0.0,-3.277,-3.3772,-3.2667,-3.2787,-3.3389,-3.1463,0.0,0.0,0.0,0.0,0.0,0.0,-3.246,-3.1375,-3.195,-3.1095,-3.0041,-3.0679,-3.0529,-3.0035,-2.9349,-2.9416,-2.9321,-2.8067,-2.8138,-2.851,-2.851,-2.9704,-3.0594,-2.9807,-3.0304,-3.0594,-2.9781,-2.8988,-2.851,-2.851,-2.851,-2.851,-2.851,-2.8471,-2.8431,-2.8431,-2.8379,-2.7914,-2.6853,-2.6524,-2.6812,-2.7926,-2.6182,-2.5083,-2.5105,-2.4029,-2.34,-2.342,-2.2299,-2.2122,-2.3008,-2.2157,-2.1476,-2.1071,-2.0695,-2.0301,-1.9847,-1.9485,-1.9301,-1.9301,-1.9301,-1.8816,-1.8078,-1.8895,-1.8736,-1.8078,-1.8856,-1.8158,-1.678,-1.7594,-1.678,-1.535,0.0,0.0,0.0,0.0,0.0,0.0,0.0,0.0,0.0,0.0,0.0,0.0,0.0,0.0,0.0,0.0,0.0,0.0,0.0,0.0,0.0,0.0,0.0,0.0,0.0,0.0,0.0,0.0,0.0,-2.9962,-2.9368,-2.9305,-2.8927,0.0,0.0,0.0,0.0,0.0,0.0,-3.3258,0.0,-3.3074,-3.386,0.0,0.0,0.0,0.0,0.0,0.0,-3.1775,-3.1533,-3.0997,-3.0178,-3.0535,-3.098,-2.9451,-2.9488,-2.9847,-2.8936,-2.8745,-2.874,-2.8382,-2.8414,-2.851,-2.851,-2.9289,-2.9781,-2.8961,-2.9445,-2.9781,-2.8949,-2.8657,-2.851,-2.851,-2.851,-2.851,-2.851,-2.7926,-2.751,-2.751,-2.6917,-2.6329,-2.5861,-2.502,-2.4798,-2.5588,-2.5168,-2.4585,-2.3973,-2.3607,-2.3105,-2.2485,-2.1954,-2.182,-2.2033,-2.182,-2.133,-2.0668,-2.0567,-2.0145,-1.9457,-1.9347,-1.9301,-1.9301,-1.9301,-1.8816,-1.8037,-1.8238,-1.8198,-1.7957,-1.7513,-1.7107,-1.6657,-1.6206,-1.522,-1.4139,0.0,0.0,0.0,0.0,0.0,0.0,0.0,0.0,0.0,0.0,0.0,0.0,0.0,0.0,0.0,0.0,0.0,0.0,0.0,0.0,0.0,0.0,0.0,0.0,0.0,0.0,0.0,0.0,0.0,0.0,0.0,-2.9997,-2.9766,0.0,0.0,0.0,0.0,0.0,0.0,0.0,0.0,0.0,0.0,0.0,0.0,0.0,0.0,0.0,0.0,-3.0542,-3.0614,-3.0782,-2.9754,-3.0214,-3.0875,-2.9619,-2.9567,-2.9742,-2.9172,-2.8776,-2.851,-2.851,-2.851,-2.851,-2.851,-2.9106,-2.9484,-2.8657,-2.9145,-2.9445,-2.8657,-2.851,-2.851,-2.851,-2.851,-2.851,-2.851,-2.7765,-2.7185,-2.7185,-2.6287,-2.5442,-2.4808,-2.4082,-2.3564,-2.3434,-2.3434,-2.34,-2.3323,-2.2887,-2.2422,-2.1919,-2.1785,-2.1696,-2.1696,-2.1696,-2.1366,-2.0778,-2.0594,-2.0191,-1.9567,-1.9384,-1.9301,-1.9301,-1.9301,-1.8607,-1.7472,-1.7836,-1.7553,-1.6903,-1.7147,-1.6821,-1.6124,-1.5918,-1.4929,-1.3633,0.0,0.0,0.0,0.0,0.0,0.0,0.0,0.0,0.0,-2.5797,-2.593,-2.6351,0.0,0.0,0.0,0.0,0.0,0.0,0.0,0.0,0.0,0.0,0.0,0.0,0.0,0.0,0.0,0.0,0.0,0.0,0.0,0.0,0.0,0.0,0.0,0.0,0.0,0.0,0.0,0.0,0.0,0.0,0.0,0.0,0.0,0.0,0.0,0.0,0.0,0.0,-2.9864,-3.0528,-2.9961,-3.0109,-3.0467,-3.046,-3.0247,-2.9961,-2.9742,-2.9184,-2.8618,-2.851,-2.851,-2.851,-2.851,-2.904,-2.9303,-2.8573,-2.8969,-2.9204,-2.8424,-2.8294,-2.8318,-2.839,-2.8402,-2.8426,-2.8498,-2.7632,-2.701,-2.6969,-2.5872,-2.4723,-2.3671,-2.3357,-2.2799,-2.1776,-2.1696,-2.2078,-2.2887,-2.2122,-2.1696,-2.1696,-2.1696,-2.1696,-2.1696,-2.1696,-2.1458,-2.1025,-2.0686,-2.0241,-1.9793,-1.9467,-1.9301,-1.9301,-1.9183,-1.8198,-1.6739,-1.7391,-1.678,-1.556,-1.6944,-1.6617,-1.5436,-1.5869,-1.5047,-1.3571,0.0,0.0,0.0,0.0,0.0,0.0,0.0,0.0,0.0,0.0,-2.7068,-2.6505,0.0,0.0,0.0,0.0,0.0,0.0,0.0,0.0,0.0,0.0,0.0,0.0,0.0,0.0,0.0,0.0,0.0,0.0,0.0,0.0,0.0,0.0,0.0,0.0,0.0,0.0,0.0,0.0,0.0,0.0,0.0,0.0,0.0,0.0,0.0,0.0,0.0,0.0,-2.9777,-2.9788,-2.9662,-3.0395,-3.1171,-3.0535,-3.0988,-3.1378,-3.0075,-2.9588,-2.9328,-2.8657,-2.851,-2.851,-2.851,-2.8618,-2.8536,-2.7945,-2.7965,-2.7871,-2.7284,-2.7174,-2.7318,-2.7789,-2.7861,-2.7978,-2.845,-2.708,-2.5997,-2.583,-2.4317,-2.3047,-2.2441,-2.2353,-2.2132,-2.1731,-2.1696,-2.1776,-2.1945,-2.1776,-2.1696,-2.1696,-2.1696,-2.1696,-2.1696,-2.1696,-2.1321,-2.0622,-2.0549,-2.0136,-1.9402,-1.9329,-1.9301,-1.9262,-1.8527,-1.7634,-1.6657,-1.6083,-1.5677,-1.5352,-1.4943,-1.5026,-1.5311,-1.4475,-1.3857,-1.3396,0.0,0.0,0.0,0.0,0.0,0.0,0.0,-2.9248,-3.0209,-3.0711,-3.0057,-2.9207,-2.8335,-2.7888,-2.7713,0.0,0.0,0.0,0.0,0.0,0.0,0.0,0.0,0.0,0.0,0.0,0.0,0.0,0.0,0.0,0.0,0.0,0.0,0.0,0.0,0.0,0.0,0.0,0.0,0.0,0.0,0.0,0.0,0.0,0.0,0.0,0.0,0.0,0.0,0.0,-3.0134,-3.0115,-2.9713,-3.0235,-3.0984,-3.094,-3.124,-3.1537,-3.1064,-3.0632,-3.0215,-2.9858,-2.9742,-2.9551,-2.8866,-2.8727,-2.8425,-2.7493,-2.727,-2.7198,-2.6946,-2.6898,-2.6982,-2.7234,-2.7498,-2.7645,-2.7411,-2.6378,-2.5442,-2.4851,-2.3377,-2.2362,-2.2097,-2.1963,-2.183,-2.1696,-2.1696,-2.1696,-2.1696,-2.1696,-2.1696,-2.1696,-2.1696,-2.1696,-2.1696,-2.1476,-2.1108,-2.0521,-2.031,-1.9888,-1.9301,-1.9301,-1.9301,-1.9262,-1.8367,-1.7513,-1.6617,-1.576,-1.5151,-1.4741,-1.4741,-1.4741,-1.4699,-1.4349,-1.3886,-1.3292,0.0,0.0,0.0,0.0,0.0,0.0,0.0,-3.0641,-3.1355,-3.2766,-3.2845,-3.2101,-3.0424,-2.9308,-2.8624,0.0,0.0,0.0,0.0,0.0,0.0,0.0,0.0,0.0,0.0,0.0,0.0,0.0,0.0,0.0,0.0,0.0,0.0,0.0,0.0,0.0,0.0,0.0,0.0,0.0,0.0,0.0,0.0,0.0,0.0,0.0,0.0,0.0,0.0,0.0,-3.0726,-3.0704,-3.0085,-3.0182,-3.0624,-3.1302,-3.139,-3.1361,-3.1806,-3.1368,-3.0753,-3.0723,-3.062,-3.019,-2.8987,-2.8712,-2.8338,-2.7001,-2.6717,-2.6681,-2.6573,0.0,-2.6585,0.0,-2.7066,-2.7094,-2.6393,-2.5765,-2.4988,-2.4072,-2.2862,-2.2097,-2.2008,-2.183,-2.1696,-2.1696,-2.1696,-2.1696,-2.1696,-2.1696,-2.1696,-2.1696,-2.1696,-2.1696,-2.1696,-2.141,-2.0998,-2.0512,-2.0159,-1.9787,-1.9301,-1.9301,-1.9301,-1.9222,-1.8158,-1.735,-1.6617,-1.556,-1.4699,-1.4173,-1.4866,-1.4699,-1.4124,-1.4342,-1.3973,-1.3197,0.0,0.0,0.0,0.0,0.0,0.0,0.0,-3.0753,-3.2208,-3.3607,-3.3834,-3.362,-3.302,-3.1339,-3.0015,0.0,0.0,0.0,0.0,0.0,0.0,0.0,0.0,0.0,0.0,0.0,0.0,0.0,0.0,0.0,0.0,0.0,0.0,0.0,0.0,0.0,0.0,0.0,0.0,0.0,0.0,0.0,0.0,0.0,0.0,0.0,0.0,0.0,0.0,-3.1847,-3.1494,-3.1131,-3.0925,-3.0699,-3.0624,-3.1302,-3.1494,-3.1447,-3.1299,-3.0837,-3.0323,-3.0138,-2.966,-2.9054,-2.8257,-2.8061,-2.7728,-2.642,-2.6178,-2.6033,-2.5552,-2.5456,0.0,0.0,0.0,-2.619,-2.6069,-2.5304,-2.4461,-2.3557,-2.2643,-2.2008,-2.1785,-2.1687,-2.1696,-2.1696,-2.1696,-2.1696,-2.1696,-2.1696,-2.1696,-2.1696,-2.1696,-2.1696,-2.1696,-2.165,-2.1248,-2.0521,-2.0484,-2.0053,-1.9301,-1.9301,-1.9301,-1.9222,-1.7553,-1.678,-1.6576,-1.4908,-1.4173,-1.413,-1.4173,-1.4173,-1.4039,-1.3652,-1.3316,-1.2937,0.0,0.0,0.0,0.0,0.0,0.0,-3.1173,-3.1701,-3.2706,-3.5247,-3.548,-3.5345,-3.519,-3.3806,-3.196,-2.9615,0.0,0.0,0.0,0.0,0.0,0.0,0.0,0.0,0.0,0.0,0.0,0.0,0.0,0.0,0.0,0.0,0.0,0.0,0.0,0.0,0.0,0.0,0.0,0.0,0.0,0.0,0.0,0.0,0.0,0.0,0.0,0.0,-3.2126,-3.2544,-3.2253,-3.1724,-3.1679,-3.1018,-3.0361,-3.092,-3.1288,-3.1475,-3.1416,-3.1203,-3.1011,-3.0925,-3.0719,-3.0139,-2.8577,-2.8219,-2.7736,-2.5971,-2.5624,-2.5564,-2.5348,-2.5312,0.0,0.0,0.0,0.0,-2.5776,-2.4993,-2.4242,-2.3697,-2.2599,-2.183,-2.1687,-2.1696,-2.1696,-2.1696,-2.1696,-2.1696,-2.1696,-2.1696,-2.1696,-2.1696,-2.1696,-2.1696,-2.1696,-2.144,-2.108,-2.0512,-2.0232,-1.9861,-1.9301,-1.9301,-1.9301,-1.9213,-1.7472,-1.6698,-1.6576,-1.4824,-1.4088,-1.4088,-1.4088,-1.4088,-1.4046,-1.3568,-1.322,-1.2899,0.0,0.0,0.0,0.0,0.0,-2.9539,-3.2537,-3.2723,-3.3522,-3.6328,-3.6535,-3.6394,-3.639,-3.517,-3.3321,-3.0779,-2.9322,0.0,0.0,0.0,0.0,0.0,0.0,0.0,0.0,0.0,0.0,-2.8535,-2.91,0.0,0.0,0.0,0.0,0.0,0.0,0.0,0.0,0.0,0.0,0.0,0.0,0.0,0.0,0.0,0.0,0.0,0.0,0.0,0.0,0.0,0.0,-3.1903,0.0,0.0,0.0,-3.0722,-3.0906,-3.103,-3.1148,-3.1064,-3.0979,-3.1162,-3.0918,-3.0179,-2.8516,-2.7983,-2.7339,-2.5667,-2.5312,-2.5312,-2.5312,-2.5312,-2.5312,0.0,0.0,-2.5717,-2.5322,-2.4574,-2.3908,-2.3496,-2.2435,-2.1696,-2.1696,-2.1696,-2.1696,-2.1696,-2.1696,-2.1696,-2.1696,-2.1696,-2.1696,-2.1696,-2.1696,-2.1696,-2.1696,-2.1403,-2.1034,-2.0512,-2.0195,-1.9783,-1.9301,-1.9301,-1.9301,-1.9213,-1.7472,-1.6698,-1.6576,-1.4824,-1.4088,-1.4088,-1.4088,-1.4088,-1.4039,-1.3652,-1.3211,-1.2791,0.0,0.0,0.0,0.0,0.0,0.0,-3.2641,-3.3658,-3.4773,-3.6495,-3.6705,-3.6621,-3.6417,-3.4971,-3.3798,-3.3306,-3.0901,0.0,0.0,0.0,0.0,0.0,0.0,0.0,0.0,0.0,-2.9744,-3.046,-3.0478,-3.0421,-3.0302,0.0,0.0,0.0,0.0,0.0,0.0,0.0,0.0,0.0,0.0,0.0,0.0,0.0,0.0,0.0,0.0,0.0,0.0,0.0,0.0,0.0,0.0,-3.1885,-3.1228,0.0,-3.0332,-2.9916,-3.0393,-3.0048,-2.9771,-3.0343,-2.9513,-2.8344,-2.7683,-2.696,-2.622,-2.5453,-2.5312,-2.5312,-2.5312,-2.5312,-2.5312,-2.5312,0.0,0.0,-2.4487,-2.3905,-2.3267,-2.2698,-2.2079,-2.1696,-2.1696,-2.1696,-2.1696,-2.1696,-2.1696,-2.1696,-2.1696,-2.1696,-2.1696,-2.1696,-2.1696,-2.1696,-2.1696,-2.1687,-2.1275,-2.0521,-2.0512,-2.0081,-1.9301,-1.9301,-1.9301,-1.9213,-1.7472,-1.6698,-1.6576,-1.4824,-1.4088,-1.4088,-1.4088,-1.4088,-1.4088,-1.3786,-1.3213,-1.2571,0.0,0.0,0.0,0.0,0.0,0.0,0.0,-3.2917,-3.3986,-3.5659,-3.5882,-3.6079,-3.6552,-3.5372,-3.4274,-3.3567,-3.1106,0.0,0.0,0.0,0.0,0.0,0.0,0.0,0.0,0.0,-3.0279,-3.0496,-3.0496,-3.0481,-3.0436,-3.0436,-3.0379,0.0,0.0,0.0,0.0,0.0,0.0,0.0,0.0,0.0,0.0,0.0,0.0,0.0,0.0,0.0,0.0,0.0,0.0,0.0,0.0,0.0,0.0,-3.0485,-3.0554,-3.0458,-2.9728,-2.9622,-2.9772,-2.997,-2.9263,-2.833,-2.7637,-2.6913,-2.6173,-2.5453,-2.5312,-2.5312,-2.5312,-2.5312,-2.5312,-2.5312,-2.5312,0.0,0.0,0.0,0.0,-2.3179,-2.2293,-2.1696,-2.1696,-2.1696,-2.1696,-2.1696,-2.1696,-2.1696,-2.1696,-2.1696,-2.1696,-2.1696,-2.1696,-2.1696,-2.1696,-2.1696,-2.1421,-2.0924,-2.0649,-2.0204,-1.9683,-1.943,-1.8975,-1.8367,-1.7188,-1.637,-1.5718,-1.458,-1.4088,-1.4088,-1.4088,-1.4088,-1.4019,-1.3438,-1.2964,-1.2531,0.0,0.0,0.0,0.0,0.0,0.0,0.0,-3.2568,-3.3473,-3.4841,-3.5008,-3.5343,-3.616,-3.5259,-3.4463,-3.4179,-3.2114,0.0,0.0,0.0,0.0,0.0,0.0,0.0,0.0,-3.0725,-3.126,-3.1867,-3.1867,-3.1867,-3.1867,-3.1867,-3.166,-3.1264,-3.0962,0.0,0.0,0.0,0.0,0.0,0.0,0.0,-2.6874,0.0,0.0,0.0,0.0,0.0,0.0,0.0,0.0,0.0,0.0,0.0,0.0,0.0,-3.024,-3.0666,-2.9711,-2.9647,-2.9808,-2.9808,-2.8967,-2.8019,-2.7604,-2.6697,-2.5861,-2.537,-2.5312,-2.5312,-2.5312,-2.5312,-2.5312,-2.5312,-2.5276,0.0,0.0,0.0,0.0,-2.2824,-2.2113,-2.1696,-2.1696,-2.1696,-2.1696,-2.1696,-2.1696,-2.1696,-2.1696,-2.1696,-2.1696,-2.1696,-2.1696,-2.1696,-2.1696,-2.1696,-2.1299,-2.0577,-2.0534,-2.0092,-1.9315,-1.9325,-1.9015,-1.8399,-1.7229,-1.637,0.0,-1.4622,-1.4088,-1.4088,-1.4088,-1.4088,-1.4013,-1.3376,-1.2888,-1.2492,0.0,0.0,0.0,0.0,0.0,0.0,0.0,-3.2493,-3.3187,-3.3918,-3.4067,-3.442,-3.5231,-3.4631,-3.4395,-3.4971,0.0,0.0,0.0,0.0,0.0,0.0,0.0,0.0,0.0,-3.176,-3.2509,-3.4008,-3.4008,-3.4008,-3.4008,-3.4008,-3.3616,-3.2864,-3.2132,-3.1682,-3.1503,0.0,0.0,0.0,-2.9646,-2.8814,0.0,0.0,0.0,0.0,0.0,0.0,0.0,0.0,0.0,0.0,0.0,0.0,0.0,0.0,0.0,0.0,0.0,-2.9991,-2.9822,-2.9822,-2.868,-2.7571,-2.7517,-2.6389,0.0,0.0,0.0,0.0,-2.5312,-2.5312,-2.5312,-2.5312,-2.5182,-2.4931,0.0,-2.3677,0.0,-2.178,-2.1678,-2.1678,-2.165,-2.1678,-2.1696,-2.1696,-2.1696,-2.1696,-2.1696,-2.1696,-2.1696,-2.1696,-2.1696,-2.1696,-2.1696,-2.1696,-2.1051,-1.9735,-2.0245,-1.9799,-1.8455,-1.8963,-1.9183,-1.9015,-1.735,-1.6576,-1.637,-1.4741,-1.4088,-1.4088,-1.4088,-1.4075,-1.3979,-1.3474,-1.2996,-1.2445,0.0,0.0,0.0,0.0,0.0,0.0,0.0,0.0,0.0,0.0,-3.2908,-3.3361,-3.3577,-3.3821,-3.402,0.0,0.0,0.0,0.0,0.0,0.0,0.0,0.0,0.0,0.0,-3.2311,-3.2811,-3.3186,-3.3186,-3.3186,-3.3186,-3.3186,-3.3078,-3.2882,-3.2704,-3.2259,-3.1591,-3.0849,0.0,0.0,-2.8481,-2.799,0.0,0.0,0.0,0.0,-2.6981,-2.7652,0.0,0.0,0.0,0.0,0.0,0.0,0.0,0.0,-2.961,-2.9929,-3.0347,0.0,-3.0036,-3.0036,-2.9139,-2.8149,0.0,-2.6812,0.0,0.0,0.0,0.0,0.0,0.0,-2.5312,-2.5312,-2.5182,-2.4757,-2.3837,-2.2767,0.0,-2.1317,-2.1495,-2.1568,-2.1282,-2.1504,-2.1696,-2.1696,-2.1696,-2.1696,-2.1696,-2.1696,-2.1696,-2.1696,-2.1696,-2.1696,-2.1696,-2.1696,-2.1177,-2.0157,-2.0379,-1.996,-1.8905,-1.8518,-1.7957,-1.7269,-1.6165,-1.5311,-1.4657,-1.4033,-1.3779,-1.3779,-1.3779,-1.369,-1.3461,-1.3138,-1.2828,-1.2531,0.0,0.0,0.0,0.0,0.0,0.0,0.0,0.0,0.0,0.0,0.0,0.0,0.0,0.0,0.0,0.0,0.0,0.0,0.0,0.0,0.0,0.0,0.0,0.0,-3.2795,-3.3223,-3.3794,-3.4507,-3.4507,-3.4507,-3.4507,-3.4507,-3.431,-3.3937,-3.3598,-3.3007,-3.2242,-3.2094,-3.1369,-3.0252,-2.9733,0.0,0.0,0.0,0.0,0.0,-2.7078,-2.7713,0.0,-2.8811,-2.9297,-2.9812,0.0,0.0,0.0,0.0,-2.9535,-2.974,-3.0304,-3.028,-3.004,-2.9768,-2.9101,-2.8231,-2.7249,0.0,0.0,0.0,0.0,0.0,0.0,0.0,0.0,0.0,-2.4834,0.0,0.0,0.0,-2.1163,-2.1108,-2.131,-2.1385,-2.1401,-2.1559,-2.1696,-2.1696,-2.1696,-2.1696,-2.1696,-2.1696,-2.1696,-2.1696,-2.1696,-2.1696,-2.1696,-2.1696,-2.0997,-1.9604,-1.98,-1.9392,-1.838,-1.7722,-1.7342,-1.7229,-1.5966,-1.5061,-1.4482,-1.3899,-1.3652,-1.3561,-1.3652,-1.3519,-1.3281,-1.2914,-1.2691,-1.2492,0.0,0.0,0.0,0.0,0.0,0.0,0.0,0.0,0.0,0.0,0.0,0.0,0.0,0.0,0.0,0.0,0.0,0.0,0.0,0.0,0.0,0.0,0.0,-3.2706,-3.4079,-3.4222,-3.4918,-3.6221,-3.6328,-3.6399,-3.6399,-3.6524,-3.6149,-3.5364,-3.449,-3.3723,-3.3114,-3.3544,-3.2884,-3.151,-3.151,0.0,0.0,0.0,0.0,0.0,0.0,0.0,0.0,-2.8811,-2.9297,-2.9814,-2.9273,0.0,0.0,0.0,0.0,0.0,-3.0184,-3.0189,-2.9952,-2.9424,-2.8889,-2.8163,-2.6928,0.0,0.0,0.0,0.0,0.0,0.0,-2.5182,0.0,0.0,0.0,0.0,-2.2011,-2.1147,-2.0805,-2.1071,-2.1163,-2.1319,-2.1568,-2.165,-2.1696,-2.1696,-2.1696,-2.1696,-2.1696,-2.1696,-2.1696,-2.1696,-2.1696,-2.1642,-2.1508,-2.1508,-2.0492,-1.8549,-1.8889,-1.8446,-1.7367,-1.682,-1.6951,-1.7504,-1.5884,-1.5061,-1.4754,-1.3977,-1.3519,-1.3349,-1.3522,-1.3412,-1.3087,-1.2729,-1.2573,-1.2332,0.0,0.0,0.0,0.0,0.0,0.0,0.0,0.0,0.0,0.0,0.0,0.0,0.0,0.0,0.0,0.0,0.0,0.0,0.0,0.0,0.0,0.0,-3.3476,-3.3847,-3.4097,-3.4705,-3.515,-3.5365,-3.6078,-3.6399,-3.6417,-3.7113,-3.7006,-3.6149,-3.474,-3.4044,-3.383,-3.2599,-3.1528,-3.0674,-3.0674,0.0,0.0,0.0,0.0,0.0,0.0,0.0,0.0,-2.8811,-2.9297,-2.9814,-2.9273,0.0,0.0,0.0,0.0,0.0,-3.0184,-3.0189,-3.0021,-2.9771,-2.9087,-2.8317,-2.7519,0.0,0.0,0.0,0.0,0.0,0.0,-2.5111,-2.5147,0.0,0.0,-2.3598,-2.2448,-2.1842,-2.1394,-2.1145,-2.142,-2.1485,-2.1236,-2.1485,-2.1696,-2.1696,-2.1696,-2.1696,-2.1696,-2.1696,-2.1696,-2.1696,-2.1696,-2.132,-2.0529,-2.0529,-1.9521,-1.7552,-1.8075,-1.7687,-1.647,-1.6094,-1.5896,-1.576,-1.4741,-1.4159,-1.3899,-1.3561,-1.3307,-1.316,-1.3137,-1.2789,-1.2391,-1.2479,-1.2407,-1.2061,0.0,0.0,0.0,0.0,0.0,0.0,0.0,0.0,0.0,0.0,0.0,0.0,0.0,0.0,0.0,0.0,0.0,0.0,0.0,0.0,0.0,0.0,-3.4093,-3.4687,-3.4687,-3.5026,-3.5846,-3.7148,-3.7523,-3.7898,-3.829,-3.8255,-3.7594,-3.6345,-3.5204,-3.4336,-3.3721,-3.275,-3.1893,-3.1144,0.0,0.0,0.0,0.0,0.0,0.0,0.0,0.0,0.0,0.0,-2.9621,-2.9814,-2.9273,0.0,0.0,0.0,0.0,0.0,-3.0077,-3.0142,-2.9943,-2.9265,-2.8794,-2.812,0.0,0.0,0.0,0.0,0.0,0.0,0.0,0.0,-2.4435,-2.3888,-2.3216,-2.2502,-2.1802,-2.1306,-2.1046,-2.1108,-2.1282,-2.141,-2.1403,-2.1577,-2.1696,-2.1696,-2.1696,-2.1454,-2.0988,-2.0943,-2.0943,-2.0943,-2.0402,-1.994,-1.9476,-1.8926,-1.8195,-1.7279,-1.7447,-1.7064,-1.6257,-1.5466,-1.5198,-1.5352,-1.4496,-1.387,-1.3525,-1.344,-1.3179,-1.2893,-1.2837,-1.2563,-1.2227,-1.2307,-1.1988,-1.1359,0.0,0.0,0.0,0.0,0.0,0.0,0.0,0.0,0.0,0.0,0.0,0.0,0.0,0.0,0.0,0.0,0.0,0.0,0.0,0.0,-3.29,-3.29,-3.4204,-3.5008,-3.5186,-3.5739,-3.6934,-3.8808,-3.9165,-3.9646,-4.0144,-3.9414,-3.8308,-3.6916,-3.5935,-3.4888,-3.3847,-3.3179,-3.2364,-3.1565,0.0,0.0,0.0,0.0,0.0,0.0,0.0,0.0,0.0,0.0,0.0,0.0,0.0,0.0,0.0,-2.9432,-2.96,-2.987,-3.0043,-3.008,-2.9851,-2.8762,0.0,0.0,0.0,0.0,0.0,0.0,0.0,0.0,0.0,-2.5047,0.0,-2.291,-2.2298,-2.1847,-2.1286,-2.0998,-2.0915,-2.1218,-2.1255,-2.1383,-2.1659,-2.1696,-2.1696,-2.1696,-2.1508,-2.1132,-2.0664,-2.0439,-2.0294,-2.0294,-1.9567,-1.8926,-1.8473,-1.7692,-1.7185,-1.6951,-1.6739,-1.6416,-1.5954,-1.5024,-1.4804,-1.5068,-1.4328,-1.3786,-1.3398,-1.3355,-1.3057,-1.2584,-1.2579,-1.2388,-1.2074,-1.189,-1.1263,-1.0501,0.0,0.0,0.0,0.0,0.0,0.0,0.0,0.0,0.0,0.0,0.0,0.0,0.0,0.0,0.0,0.0,0.0,0.0,0.0,0.0,-3.29,-3.29,-3.3723,-3.4508,-3.5204,-3.738,-3.8629,-3.8808,-4.0235,-4.0967,-4.1002,-4.0199,-3.9377,-3.8576,-3.7006,-3.5846,-3.4974,-3.3526,-3.2212,-3.1267,-3.2669,0.0,0.0,0.0,0.0,0.0,0.0,0.0,0.0,0.0,0.0,0.0,0.0,0.0,-3.0036,-2.9552,-2.9952,-3.0464,-3.0189,-3.008,-2.9851,-2.8762,-2.8019,0.0,-2.6535,-2.5836,0.0,-2.5707,0.0,0.0,0.0,-2.5464,-2.4719,-2.3774,-2.3268,-2.2669,-2.1765,-2.1623,-2.1614,-2.1641,-2.165,-2.1659,-2.1687,-2.1696,-2.1696,-2.1696,-2.0898,-2.0763,-2.1553,-2.0763,-2.0294,-2.0294,-2.0249,-1.9293,-1.7419,-1.7326,-1.6817,-1.5927,-1.59,-1.5591,-1.5098,-1.4988,-1.4666,-1.4166,-1.3864,-1.361,-1.3392,-1.3185,-1.2819,-1.2312,-1.2255,-1.2064,-1.1744,-1.093,-1.0177,-0.9522,0.0,0.0,0.0,0.0,0.0,0.0,0.0,0.0,0.0,0.0,0.0,0.0,0.0,0.0,0.0,0.0,0.0,0.0,0.0,0.0,-3.29,-3.29,-3.4115,-3.4901,-3.5186,-3.7077,-3.8772,-4.0235,-4.0806,-4.0842,-4.0342,-3.9556,-3.8808,-3.7969,-3.6381,-3.5367,-3.4783,-3.3193,-3.1969,-3.1152,-3.1735,-3.1363,0.0,0.0,0.0,0.0,0.0,0.0,0.0,0.0,-2.9896,-2.9748,-2.8889,-2.9351,-3.0044,-2.9205,-2.9725,-3.0522,-3.0203,-3.008,-2.9851,-2.8762,-2.8266,0.0,0.0,-2.6084,-2.5817,-2.596,-2.616,0.0,0.0,0.0,-2.4398,-2.3486,-2.2693,-2.2122,-2.1731,-2.1696,-2.1696,-2.1696,-2.1696,-2.1696,-2.1696,-2.1696,-2.1454,-2.0853,-2.0484,-2.0158,-1.9894,-1.9567,-1.9384,-1.9384,-1.8742,-1.8056,-1.7333,-1.6676,-1.6157,-1.5784,-1.5784,-1.5524,-1.5008,-1.5008,-1.4592,-1.3864,-1.3737,-1.3519,-1.3222,-1.3137,-1.2764,-1.227,-1.1887,-1.1433,-1.0965,-1.0613,-0.9807,-0.8836,0.0,0.0,0.0,0.0,0.0,0.0,0.0,0.0,0.0,0.0,0.0,0.0,0.0,0.0,0.0,0.0,0.0,0.0,-3.0508,-3.2025,-3.3007,-3.3275,-3.4508,-3.5311,-3.5578,-3.738,-3.9111,-4.0717,-4.0717,-4.0324,-3.9538,-3.9039,-3.8504,-3.7898,-3.631,-3.5421,-3.5027,-3.3125,-3.1859,-3.1196,-3.132,-3.1002,0.0,0.0,0.0,0.0,0.0,0.0,0.0,0.0,-2.9896,-2.971,-2.8638,-2.9162,-2.9992,-2.8987,-2.9552,-3.0462,-3.0172,-3.0036,-2.9761,0.0,0.0,0.0,-2.6892,-2.6514,-2.6369,-2.64,-2.6626,-2.6542,-2.5662,0.0,-2.4188,-2.327,-2.229,-2.1696,-2.1696,-2.1696,-2.1696,-2.1696,-2.1696,-2.1696,-2.1696,-2.141,-2.0988,-2.0348,-1.9704,-1.9201,-1.8834,-1.8519,-1.8288,-1.8187,-1.7598,-1.7138,-1.6716,-1.6109,-1.5784,-1.5784,-1.573,-1.5478,-1.5142,-1.4958,-1.4513,-1.3825,-1.3606,-1.3355,-1.3052,-1.2705,-1.2205,-1.1717,-1.1483,-1.1009,-1.0479,-1.0161,-0.9405,-0.8456,0.0,0.0,0.0,0.0,0.0,0.0,0.0,0.0,0.0,0.0,0.0,0.0,0.0,0.0,0.0,0.0,0.0,0.0,-3.0511,-3.2025,-3.3257,-3.4062,-3.4794,-3.556,-3.6363,-3.8683,-3.9877,-3.9895,-3.9895,-3.952,-3.8808,-3.8808,-3.8789,0.0,0.0,0.0,-3.5916,-3.3371,-3.1895,-3.1344,-3.18,-3.1275,-3.0271,0.0,0.0,0.0,0.0,0.0,0.0,0.0,-2.9896,-2.971,-2.8638,-2.9162,-2.9992,-2.8987,-2.945,-3.0251,-3.0127,-2.996,-2.9577,0.0,0.0,0.0,-2.7384,-2.7054,-2.694,-2.705,-2.7157,-2.6921,-2.5955,-2.5073,-2.4188,-2.327,-2.229,-2.1696,-2.1696,-2.1696,-2.1696,-2.1696,-2.1696,-2.1696,-2.1696,-2.0853,-2.0294,-2.0249,-1.8427,-1.7738,-1.8742,-1.7831,-1.7178,-1.6889,-1.7185,-1.6716,-1.5493,-1.5683,-1.5784,-1.5778,-1.5588,-1.5443,-1.5391,-1.4857,-1.4435,-1.4148,-1.3433,-1.3094,-1.3009,-1.1794,-1.0994,-1.0552,-1.093,-1.0848,-1.0358,-0.943,-0.8822,-0.8368,0.0,0.0,0.0,0.0,0.0,0.0,0.0,0.0,0.0,0.0,0.0,0.0,0.0,0.0,0.0,0.0,0.0,0.0,-3.0511,-3.2025,-3.3007,-3.3257,-3.4008,-3.4543,-3.4775,-3.7077,-3.9093,-4.0753,-4.018,-3.952,-3.8808,-3.8808,0.0,-3.6876,0.0,0.0,0.0,-3.2006,-3.1184,-3.1078,-3.0829,-3.0582,-3.0349,0.0,0.0,0.0,0.0,0.0,0.0,0.0,0.0,0.0,-2.8638,-2.8879,-2.9439,-2.8855,-2.9175,-2.9735,-3.0013,-2.962,0.0,-2.8602,0.0,0.0,0.0,-2.7606,0.0,0.0,-2.6339,-2.5817,-2.502,-2.388,-2.3097,-2.309,-2.229,-2.1696,-2.1696,-2.1696,-2.1696,-2.1696,-2.1696,-2.1454,-2.0763,-2.0484,-1.9704,-1.8288,-1.7645,-1.7419,-1.7738,-1.7271,-1.6983,-1.6889,-1.6983,-1.652,-1.5493,-1.554,-1.5588,-1.5588,-1.5363,-1.516,-1.5101,-1.4579,-1.4116,-1.3661,-1.3298,-1.3009,-1.276,-1.2017,-1.1235,-1.0477,-1.0324,-0.9963,-0.943,-0.8578,-0.7939,-0.7492,0.0,0.0,0.0,0.0,0.0,0.0,0.0,0.0,-2.8945,-2.8863,-2.8755,-2.8607,0.0,0.0,0.0,-2.8209,-2.9337,-3.019,-3.0493,-3.1706,-3.2721,-3.3348,-3.3847,-3.4401,-3.5007,-3.6399,-3.813,-4.0199,-3.9718,-3.8896,-3.7862,-3.809,0.0,-3.6312,0.0,-3.4948,0.0,-3.2023,-3.1383,-3.1545,-3.0838,-3.0588,-3.0588,0.0,0.0,0.0,0.0,0.0,0.0,0.0,0.0,0.0,-2.8474,-2.8608,-2.8973,-2.8994,-2.9085,-2.9306,-2.9816,-2.9288,0.0,-2.7809,-2.7815,-2.7989,-2.8062,0.0,0.0,0.0,-2.5806,-2.5031,-2.373,-2.2954,-2.2473,-2.2327,-2.1826,-2.1504,-2.1668,-2.1696,-2.1696,-2.1696,-2.1365,-2.0898,-2.0348,-1.9567,-1.8611,-1.7372,-1.6904,-1.6669,-1.6574,-1.6426,-1.6237,-1.6048,-1.6143,-1.5866,-1.5213,-1.5309,-1.5356,-1.5356,-1.5077,-1.494,-1.4844,-1.4318,-1.3918,-1.3603,-1.2738,-1.1824,-1.0932,-1.089,-1.0471,-0.9826,-0.952,-0.9306,-0.8987,-0.8213,-0.7558,-0.7095,0.0,0.0,0.0,0.0,0.0,0.0,0.0,-2.8773,-2.8718,-2.8518,-2.8479,-2.8406,0.0,0.0,0.0,-2.8196,-2.8927,-2.969,-3.0368,-3.1153,-3.2277,-3.3812,-3.3955,-3.4686,-3.6149,-3.6185,-3.697,-3.8556,-3.8718,-3.8004,-3.6488,0.0,-3.7032,-3.6402,0.0,-3.5172,0.0,-3.2801,-3.2027,-3.2295,-3.1436,-3.0985,-3.083,-3.0807,0.0,0.0,0.0,0.0,0.0,0.0,0.0,0.0,-2.8123,-2.8247,-2.8453,-2.9102,-2.9073,-2.894,-2.9479,0.0,0.0,-2.669,-2.7149,0.0,-2.8167,-2.7569,-2.6686,-2.5915,-2.529,-2.4285,-2.2152,-2.2104,-2.2078,-2.1182,-2.1117,-2.1282,-2.1586,-2.1668,-2.1687,-2.1597,-2.0808,-2.0249,-2.0022,-1.838,-1.7286,-1.7185,-1.6298,-1.5689,-1.5493,-1.5445,-1.5207,-1.4736,-1.4933,-1.4939,-1.4688,-1.4933,-1.5083,-1.5083,-1.479,-1.4592,-1.4526,-1.4109,-1.3849,-1.3588,-1.192,-1.0071,-0.834,-0.9037,-0.9119,-0.8781,-0.8667,-0.879,-0.8905,-0.8106,-0.7488,-0.7095,0.0,0.0,0.0,0.0,0.0,0.0,-2.8815,-2.8669,-2.8543,-2.8505,-2.8353,-2.825,-2.8196,-2.8196,0.0,-2.8196,-2.8927,-2.9476,-2.9637,-3.035,-3.1189,-3.217,-3.2829,-3.3614,-3.4579,-3.4597,-3.5278,-3.6679,-3.809,-3.8216,0.0,0.0,0.0,-3.4413,0.0,-3.3857,0.0,-3.1696,-3.1234,-3.1365,-3.1083,-3.0632,-3.0195,-3.0145,-3.0026,0.0,0.0,0.0,0.0,0.0,0.0,0.0,-2.7404,-2.7254,-2.721,-2.8304,-2.8382,-2.8249,-2.8817,-2.8217,0.0,0.0,-2.6769,-2.7351,-2.823,-2.692,-2.5335,-2.4697,-2.3995,-2.2992,-2.115,-2.1131,-2.1222,-2.0695,-2.1138,-2.1476,-2.1273,-2.1485,-2.1419,-2.0664,-2.0439,-1.9658,-1.811,-1.7552,-1.6951,-1.6157,-1.5778,-1.554,-1.5493,-1.5118,-1.4831,-1.4688,-1.4742,-1.4742,-1.4688,-1.4742,-1.479,-1.479,-1.4496,-1.3956,-1.3162,-1.3679,-1.3266,-1.2093,-1.0786,-0.9465,-0.8353,-0.9149,-0.8882,-0.7982,-0.8055,-0.8102,-0.8065,-0.7379,-0.7116,-0.7007,0.0,0.0,0.0,0.0,0.0,0.0,0.0,0.0,-2.9197,-2.8461,-2.8264,-2.8196,-2.8196,-2.8196,0.0,0.0,-2.8588,-2.898,-2.9369,-2.9762,-3.0448,-3.1511,-3.1955,-3.2349,-3.2693,-3.3437,-3.4181,-3.4906,-3.6552,-3.6906,0.0,0.0,0.0,-3.3053,0.0,-3.3426,0.0,-3.2196,-3.1987,-3.2024,-3.1614,-3.1031,-3.0427,-3.0399,-3.0188,-2.9848,-2.9491,0.0,0.0,0.0,0.0,0.0,0.0,0.0,-2.6738,-2.7641,-2.7902,-2.8019,0.0,0.0,0.0,-2.6293,0.0,-2.6912,-2.7553,-2.6404,-2.4977,-2.3993,-2.3063,-2.2053,-2.0722,-2.0842,-2.0979,-2.0585,-2.0827,-2.1028,-2.0851,-2.0618,-2.0377,-2.0056,-1.9212,-1.8323,-1.7404,-1.6763,-1.6197,-1.5683,-1.5452,-1.5261,-1.5118,-1.4831,-1.464,-1.4496,-1.4496,-1.4496,-1.4496,-1.4496,-1.4496,-1.4496,-1.3854,-1.2974,-1.1989,-1.223,-1.1615,-1.0371,-0.9579,-0.8657,-0.7743,-0.8046,-0.8032,-0.7749,-0.7392,-0.7536,-0.7899,-0.7151,-0.6713,-0.6343,0.0,0.0,0.0,0.0,0.0,0.0,0.0,0.0,0.0,-2.8374,-2.8196,-2.8196,-2.8196,-2.8196,-2.8182,0.0,0.0,0.0,-2.9084,-2.9244,-2.9811,-3.0912,-3.1091,-3.1184,-3.1211,-3.2458,-3.3319,-3.3723,-3.481,0.0,0.0,0.0,0.0,-3.2101,0.0,0.0,0.0,0.0,-3.308,-3.3032,-3.2433,-3.1769,-3.1082,-3.1082,-3.0749,-3.0172,-2.9421,-2.9081,-2.8876,-2.7996,0.0,0.0,0.0,0.0,-2.6441,-2.705,-2.7579,0.0,0.0,0.0,-2.6811,-2.5984,-2.6192,0.0,-2.6611,-2.5898,-2.4827,-2.3471,-2.245,-2.1502,-2.0564,-2.0851,-2.1062,-2.0594,-2.064,-2.0662,-2.0631,-1.9839,-1.935,-1.9438,-1.7942,-1.6938,-1.699,-1.6075,-1.5493,-1.5493,-1.522,-1.4933,-1.4694,-1.464,-1.4544,-1.4298,-1.4298,-1.4298,-1.4298,-1.41,-1.4004,-1.4004,-1.278,-1.1755,-1.0916,-1.0353,-0.9719,-0.9049,-0.8487,-0.7797,-0.7078,-0.6875,-0.7117,-0.7634,-0.69,-0.7138,-0.782,-0.7168,-0.6427,-0.5675,0.0,0.0,0.0,0.0,0.0,0.0,0.0,0.0,0.0,0.0,-2.8196,-2.8196,-2.8196,-2.8196,-2.8154,-2.8042,-2.8028,-2.8007,-2.7933,0.0,0.0,-2.922,-2.9906,-3.0576,-3.1193,-3.1388,-3.2389,-3.4199,-3.3765,0.0,0.0,0.0,0.0,-3.1517,0.0,0.0,0.0,0.0,0.0,-3.3105,-3.2983,-3.2514,-3.1843,-3.1843,-3.1801,-3.1623,-3.0872,-3.0247,-2.954,-2.8158,-2.6999,0.0,0.0,0.0,-2.5753,-2.6425,-2.7242,0.0,0.0,0.0,-2.6175,0.0,-2.6068,-2.6232,0.0,0.0,-2.4094,-2.3057,-2.2522,-2.178,-2.025,-2.0863,-2.1357,-2.064,-2.1065,-2.1403,-2.108,-2.0271,-1.9404,-1.8568,-1.7545,-1.6577,-1.5722,-1.5537,-1.5493,-1.5493,-1.5022,-1.4742,-1.4688,-1.4496,-1.4346,-1.4298,-1.4298,-1.4298,-1.4298,-1.3366,-1.2926,-1.2877,-1.0925,-0.9948,-0.9797,-0.8676,-0.859,-0.9271,-0.7907,-0.7228,-0.7092,-0.7055,-0.6972,-0.6888,-0.6959,-0.7043,-0.7071,-0.7065,-0.6505,-0.5586,0.0,0.0,0.0,0.0,0.0,0.0,0.0,0.0,0.0,0.0,0.0,-2.8085,-2.8085,-2.7996,-2.7893,-2.7836,-2.7836,-2.7789,-2.7716,-2.8032,-2.8373,-2.8718,-2.9068,-2.9579,-3.0229,-3.0698,-3.1359,-3.2274,-3.2609,0.0,0.0,-3.3299,-3.2669,0.0,0.0,0.0,0.0,0.0,0.0,0.0,0.0,0.0,0.0,-3.1941,-3.1917,-3.175,-3.1586,-3.1332,-3.0869,-2.9426,-2.8586,-2.7913,-2.6315,0.0,0.0,0.0,-2.6987,0.0,-2.7714,-2.7095,-2.6327,0.0,-2.5458,-2.5698,-2.5704,-2.5176,-2.4456,-2.3608,-2.2874,-2.2057,-2.0819,-2.1025,-2.1147,-2.057,-2.0824,-2.0691,-1.9758,-1.888,-1.7999,-1.7284,-1.6386,-1.5652,-1.5233,-1.5092,-1.4993,-1.5057,-1.4682,-1.4429,-1.4282,-1.4267,-1.4226,-1.4081,-1.422,-1.4004,-1.3414,-1.2926,-1.2145,-1.0974,-1.0047,-0.9266,-0.8673,-0.8073,-0.8098,-0.8541,-0.7646,-0.7319,-0.738,-0.7082,-0.695,-0.691,-0.696,-0.6991,-0.7011,-0.7071,-0.616,-0.487,0.0,0.0,0.0,0.0,0.0,0.0,0.0,0.0,0.0,0.0,0.0,-2.7925,-2.7925,0.0,0.0,0.0,-2.7642,-2.7714,-2.7862,-2.7879,-2.808,-2.8528,-2.8372,-2.8568,-2.9213,-2.9989,-3.0575,-3.099,0.0,0.0,-3.2474,-3.2492,-3.2258,0.0,-3.195,0.0,0.0,0.0,0.0,0.0,0.0,0.0,0.0,-3.2142,-3.2044,-3.1854,-3.1885,-3.183,-3.1534,-3.0235,-2.9643,-2.9096,-2.6974,-2.662,0.0,0.0,0.0,0.0,0.0,0.0,-2.6904,-2.542,-2.5288,-2.5427,0.0,-2.5114,-2.4854,-2.3886,-2.3056,-2.2262,-2.1442,-2.1207,-2.1007,-2.0714,-2.0668,-2.0256,-1.911,-1.7965,-1.704,-1.6522,-1.5528,-1.4935,-1.4989,-1.4703,-1.459,-1.4669,-1.4442,-1.4183,-1.3918,-1.4153,-1.4177,-1.3918,-1.3856,-1.3454,-1.2732,-1.2193,-1.1023,-0.9217,-0.9217,-0.8775,-0.7985,-0.7874,-0.7884,-0.7965,-0.7567,-0.7458,-0.7567,-0.7109,-0.7001,-0.7085,-0.698,-0.7004,-0.7051,-0.683,-0.5714,-0.4287,0.0,0.0,0.0,0.0,0.0,0.0,0.0,0.0,0.0,0.0,0.0,-2.7716,-2.7716,-2.7716,-2.7642,-2.7526,-2.7511,-2.7763,-2.8332,-2.835,-2.8384,-2.8419,-2.7746,0.0,-2.8437,-2.9179,-3.0282,0.0,0.0,0.0,-3.3974,-3.2972,-3.2679,-3.2983,-3.2287,-3.16,-3.105,0.0,0.0,0.0,0.0,0.0,0.0,0.0,0.0,-3.2455,-3.1776,0.0,-3.0883,-2.9801,-2.8912,-2.8064,-2.6718,-2.6419,-2.6401,0.0,0.0,0.0,0.0,-2.7916,0.0,-2.6171,-2.5994,-2.5789,0.0,-2.4425,-2.4716,-2.3408,-2.2803,-2.2386,-2.1943,-2.1448,-2.1099,-2.108,-2.1071,-2.0851,-2.03,-1.874,-1.7476,-1.6936,-1.5555,-1.4702,-1.4989,-1.4558,-1.4403,-1.4669,-1.4442,-1.4183,-1.3918,-1.4153,-1.4177,-1.3918,-1.3068,-1.2612,-1.2678,-1.073,-0.9217,-0.8088,-0.8088,-0.8038,-0.7988,-0.7982,-0.7982,-0.7965,-0.7567,-0.7458,-0.7573,-0.7213,-0.7088,-0.7095,-0.7088,-0.7088,-0.7007,-0.6118,-0.5137,-0.4156,0.0,0.0,0.0,0.0,0.0,0.0,0.0,0.0,0.0,0.0,0.0,0.0,0.0,-2.8924,-2.8827,-2.8795,-2.8779,-2.861,-2.8169,-2.8135,-2.7912,-2.74,-2.7127,-2.7431,-2.8385,-2.9127,0.0,0.0,0.0,-3.1457,-3.1653,-3.1532,-3.1544,-3.1697,-3.1915,-3.2125,-3.2352,-3.287,0.0,0.0,0.0,0.0,0.0,0.0,0.0,0.0,0.0,0.0,0.0,-3.0706,-3.0294,-3.0079,-2.861,-2.7846,-2.7324,-2.6691,0.0,0.0,0.0,0.0,0.0,-2.6853,-2.6238,-2.5696,-2.5401,-2.5138,-2.4637,-2.3372,-2.3002,-2.2409,-2.0901,-2.0666,-2.0649,-2.0393,-1.9877,-1.9281,-1.8638,-1.7539,-1.6499,-1.5789,-1.5192,-1.4695,-1.4351,-1.4272,-1.3916,-1.3083,-1.3661,-1.3572,-1.2547,-1.3478,-1.3845,-1.3417,-1.28,-1.1837,-1.0447,-0.914,-0.823,-0.7892,-0.7941,-0.7988,-0.7988,-0.7988,-0.7988,-0.7971,-0.7672,-0.755,-0.7573,-0.7223,-0.7095,-0.7095,-0.7095,-0.6741,-0.6163,-0.5808,-0.4739,-0.3357,0.0,0.0,0.0,0.0,0.0,0.0,0.0,0.0,0.0,0.0,0.0,0.0,0.0,0.0,-2.921,-2.921,-2.9059,-2.887,-2.8587,-2.8421,-2.8064,-2.7435,-2.7181,-2.7369,-2.8084,0.0,0.0,0.0,0.0,0.0,0.0,0.0,-3.0775,-3.0603,-3.1309,-3.1915,0.0,0.0,0.0,-3.3081,0.0,0.0,-3.2846,0.0,0.0,0.0,0.0,0.0,0.0,-3.0895,-3.0835,-3.0824,-2.9527,-2.8462,-2.7583,0.0,0.0,0.0,-2.7187,0.0,0.0,0.0,-2.6447,-2.5941,-2.5776,-2.5309,-2.4578,-2.3534,-2.3208,-2.2534,-2.0714,-2.0453,-2.0393,-1.9957,-1.9177,-1.8372,-1.7735,-1.6731,-1.5734,-1.4976,-1.474,-1.4479,-1.4077,-1.4087,-1.3688,-1.2762,-1.3147,-1.3067,-1.2243,-1.2609,-1.2459,-1.1693,-1.1513,-1.0482,-0.8625,-0.8043,-0.7787,-0.7743,-0.7894,-0.7965,-0.7914,-0.7968,-0.7988,-0.7975,-0.7729,-0.76,-0.7573,-0.7223,-0.7095,-0.7051,-0.6741,-0.6251,-0.563,-0.5008,-0.3981,-0.2867,0.0,0.0,0.0,0.0,0.0,0.0,0.0,0.0,0.0,-2.8772,0.0,0.0,0.0,0.0,0.0,-2.8707,-2.833,-2.8535,-2.9613,-2.9256,-2.8887,-2.8611,-2.7888,-2.7504,-2.752,0.0,0.0,0.0,0.0,0.0,0.0,0.0,-3.0522,0.0,-3.0564,-3.0904,-3.0985,0.0,-3.163,-3.1196,0.0,-3.2477,-3.2124,0.0,0.0,0.0,-2.9768,-2.9584,0.0,-3.0248,-3.0251,-2.9988,-2.9229,0.0,0.0,0.0,0.0,0.0,0.0,0.0,0.0,0.0,-2.6679,-2.6481,-2.5,-2.4767,-2.4664,-2.3858,-2.3374,-2.2715,-2.1511,-2.0828,-2.0332,-1.9939,-1.9126,-1.833,-1.7786,-1.6406,-1.525,-1.4648,-1.4198,-1.3987,-1.4241,-1.4034,-1.3888,-1.3829,-1.2982,-1.2634,-1.3007,-1.1525,-1.0127,-0.8947,-0.9066,-0.8617,-0.7412,-0.7651,-0.7729,-0.7597,-0.7843,-0.7907,-0.7818,-0.7921,-0.7988,-0.7975,-0.7729,-0.76,-0.7573,-0.7223,-0.7095,-0.6962,-0.6074,-0.5675,-0.5408,-0.3582,-0.2867,-0.2732,0.0,0.0,0.0,0.0,0.0,-2.9897,-3.0191,-3.0777,-3.1137,0.0,0.0,0.0,0.0,0.0,0.0,-3.1059,-3.0435,-2.985,-2.9433,-2.9277,-2.8929,-2.8265,-2.7571,-2.7551,-2.8271,0.0,0.0,0.0,0.0,0.0,0.0,0.0,0.0,0.0,-2.9897,-3.0557,-3.1674,-3.1438,0.0,-3.1187,-3.1371,-3.1336,0.0,0.0,0.0,-3.0418,-2.9761,-2.9818,-3.0131,-2.9899,-3.0001,-3.0061,-2.908,0.0,0.0,0.0,0.0,0.0,-2.6652,0.0,0.0,0.0,0.0,0.0,-2.6287,-2.5417,-2.4359,-2.3385,-2.2868,-2.2225,-2.0948,-2.0363,-1.988,-1.9357,-1.8235,-1.7435,-1.7482,-1.5625,-1.4215,-1.4122,-1.3979,-1.3794,-1.3446,-1.3559,-1.3188,-1.2092,-1.1958,-1.1602,-1.0819,-1.0372,-0.974,-0.8935,-0.8775,-0.8224,-0.7204,-0.7397,-0.7475,-0.7438,-0.7733,-0.7851,-0.7818,-0.7921,-0.7988,-0.7975,-0.7729,-0.76,-0.7573,-0.7223,-0.6697,-0.6074,-0.5808,-0.4872,-0.3624,-0.309,-0.2419,-0.1793,0.0,0.0,-3.0583,-3.1366,-3.1347,-3.1234,-3.1297,-3.2121,-3.255,0.0,0.0,0.0,0.0,0.0,0.0,-3.1113,-3.0522,-2.9976,-2.9583,-2.9375,-2.9013,-2.8425,-2.7722,-2.762,-2.8207,0.0,0.0,0.0,0.0,0.0,0.0,0.0,0.0,0.0,0.0,-2.9849,-3.0513,0.0,0.0,0.0,-3.1029,0.0,0.0,-2.9879,-3.0069,-3.0623,-3.0139,-3.0309,-3.0714,-3.0161,-3.0001,-2.9946,-2.9569,0.0,0.0,0.0,0.0,0.0,0.0,0.0,0.0,0.0,0.0,0.0,-2.646,-2.5526,-2.4452,-2.3504,-2.2694,-2.1816,-2.0702,-2.0153,-1.977,-1.9412,-1.826,-1.7233,-1.6726,-1.485,-1.3485,-1.3411,-1.349,-1.343,-1.3139,-1.3363,-1.3114,-1.2122,-1.1469,-1.0416,-0.8803,-0.91,-0.8976,-0.8158,-0.7978,-0.7665,-0.7095,-0.7292,-0.7339,-0.7278,-0.758,-0.7723,-0.7729,-0.7875,-0.7931,-0.7975,-0.7729,-0.76,-0.7573,-0.7223,-0.6564,-0.5675,-0.5272,-0.4204,-0.2867,-0.2419,-0.1883,-0.1391,0.0,0.0,-3.1178,-3.2356,-3.3125,-3.3286,-3.248,-3.342,-3.3744,0.0,0.0,0.0,0.0,0.0,0.0,0.0,-2.975,-2.9587,-3.0069,-2.9582,-2.9195,-2.8952,-2.8112,-2.7704,-2.7865,0.0,0.0,0.0,0.0,0.0,0.0,0.0,0.0,0.0,-2.8414,-2.9014,-2.8706,-2.9954,0.0,-3.0955,-3.0893,-3.0703,0.0,-2.9891,-3.0332,-3.1174,-3.0757,-3.0993,-3.1387,-3.074,-3.0119,-2.9785,-3.0231,0.0,0.0,0.0,-2.6146,0.0,0.0,0.0,0.0,0.0,0.0,0.0,-2.5804,-2.524,-2.4636,-2.3909,-2.2772,-2.169,-2.0924,-2.0315,-1.9983,-1.9942,-1.8791,-1.7408,-1.593,-1.4276,-1.3092,-1.2723,-1.2887,-1.3005,-1.3029,-1.326,-1.3252,-1.2915,-1.1151,-0.9242,-0.719,-0.7885,-0.7973,-0.7139,-0.7095,-0.7095,-0.7095,-0.7278,-0.7278,-0.7098,-0.7434,-0.7584,-0.7604,-0.7746,-0.7896,-0.7975,-0.7729,-0.76,-0.7577,-0.713,-0.6384,-0.5453,-0.4645,-0.3667,-0.2644,-0.1749,-0.1391,-0.1391,-3.1,-3.0977,-3.1313,-3.273,-3.3535,-3.4111,-3.4515,-3.4822,-3.4651,-3.3793,0.0,0.0,0.0,0.0,0.0,0.0,0.0,-3.0887,-3.1222,-3.0424,-2.9893,-2.9863,-2.8116,-2.7672,-2.8808,-2.6883,0.0,0.0,0.0,0.0,0.0,0.0,0.0,0.0,0.0,-2.8969,-3.0073,-2.9824,0.0,-3.0719,-3.0225,-3.0007,-2.9969,-3.0214,-3.0805,-3.142,-3.1335,-3.1387,-3.1387,-3.074,-3.0413,-3.0245,-2.9897,0.0,0.0,-2.7946,0.0,0.0,0.0,0.0,0.0,0.0,0.0,0.0,-2.4805,-2.4373,-2.3904,-2.4059,-2.339,-2.2729,-2.2531,-2.1341,-2.0312,-2.0184,-1.8664,-1.7261,-1.6525,-1.4909,-1.3522,-1.2802,-1.2578,-1.2554,-1.2765,-1.2644,-1.2269,-1.1689,-0.9906,-0.836,-0.7143,-0.7272,-0.7272,-0.7095,-0.7095,-0.7095,-0.7095,-0.7125,-0.7125,-0.7098,-0.7329,-0.7482,-0.7604,-0.7746,-0.7896,-0.7975,-0.7729,-0.76,-0.7526,-0.6409,-0.5406,-0.4556,-0.4376,-0.322,-0.1659,-0.148,-0.1391,-0.1391,-3.0759,-3.0904,-3.147,-3.3275,-3.4039,-3.4533,-3.4939,-3.5177,-3.491,0.0,0.0,0.0,0.0,0.0,0.0,0.0,0.0,0.0,-3.1371,-3.0893,-3.0456,-3.0109,-2.8767,-2.8063,-2.8063,-2.6608,-2.614,0.0,0.0,0.0,0.0,0.0,0.0,0.0,0.0,0.0,0.0,0.0,-3.0009,-3.016,-3.0256,-3.0241,-3.0228,-3.1106,-3.1471,-3.1527,-3.1836,-3.1752,-3.1485,-3.1471,-3.126,-3.0895,-3.0263,-2.9645,-2.9026,0.0,-2.734,-2.6217,0.0,0.0,0.0,-2.4178,0.0,0.0,0.0,-2.3795,-2.3463,-2.3406,-2.2983,-2.2517,-2.2288,-2.1653,-2.0921,-2.0148,-1.9245,-1.8181,-1.6854,-1.5123,-1.3778,-1.3272,-1.2799,-1.256,-1.2693,-1.2469,-1.1778,-1.0491,-0.9655,-0.858,-0.7183,-0.7095,-0.7095,-0.7095,-0.7095,-0.7095,-0.7095,-0.7095,-0.7095,-0.7098,-0.7217,-0.7377,-0.76,-0.7675,-0.7828,-0.7975,-0.7729,-0.76,-0.7483,-0.6226,-0.5137,-0.4245,-0.3799,-0.2686,-0.1391,-0.1391,-0.1391,-0.1391,-3.0314,-3.0651,-3.1382,-3.3185,-3.3958,-3.4417,-3.4614,-3.479,-3.4497,0.0,0.0,0.0,0.0,0.0,0.0,0.0,0.0,0.0,-3.1512,-3.1289,-3.0939,-3.0373,-2.9462,-2.8465,-2.7378,-2.6399,-2.5843,0.0,0.0,0.0,0.0,0.0,0.0,0.0,0.0,0.0,0.0,0.0,0.0,-2.9841,0.0,-3.1011,-3.0975,-3.2145,-3.2272,-3.1878,-3.2145,-3.1907,-3.1555,-3.2061,-3.1822,-3.1232,-3.0839,-3.0143,0.0,0.0,0.0,0.0,0.0,0.0,0.0,0.0,0.0,-2.3411,0.0,0.0,0.0,-2.2922,-2.2639,-2.2304,-2.1928,-2.1876,-2.1451,-2.0106,-1.9886,-1.9147,-1.7098,-1.5476,-1.4365,-1.3967,-1.3329,-1.288,-1.2874,-1.2439,-1.1447,-0.9667,-0.9631,-0.8947,-0.7146,-0.7082,-0.7095,-0.7095,-0.7095,-0.7095,-0.7095,-0.7095,-0.7095,-0.7095,-0.7095,-0.7243,-0.7556,-0.7556,-0.7702,-0.7891,-0.7672,-0.7556,-0.7486,-0.6217,-0.5137,-0.42,-0.3267,-0.2286,-0.1391,-0.1391,-0.1391,-0.1391,-2.8691,-2.9735,-3.0706,-3.1179,-3.2277,-3.3334,-3.3989,-3.3579,-3.311,0.0,0.0,0.0,0.0,0.0,0.0,0.0,0.0,-3.2826,-3.2879,-3.2042,-3.1475,-3.1261,-2.9481,-2.8523,-2.8602,-2.7285,-2.6405,-2.6051,0.0,0.0,0.0,0.0,0.0,0.0,-2.771,0.0,0.0,0.0,-3.097,0.0,-3.171,-3.2188,-3.2272,-3.296,-3.315,-3.2974,-3.1963,-3.1555,-3.1499,-3.1569,-3.1162,-3.068,-3.1218,-3.0364,-2.9115,-2.878,0.0,0.0,0.0,0.0,0.0,0.0,-2.2844,0.0,0.0,0.0,-2.278,-2.3749,0.0,-2.325,-2.3191,0.0,0.0,-2.0143,-1.9736,-1.9059,-1.7476,-1.6749,-1.5975,-1.4816,-1.4049,-1.3544,-1.3408,-1.2429,-1.1201,-0.978,-0.9288,-0.8419,-0.7009,-0.7028,-0.7095,-0.7095,-0.7095,-0.7095,-0.7095,-0.7095,-0.7095,-0.7095,-0.7095,-0.7231,-0.7443,-0.7443,-0.7489,-0.7641,-0.7472,-0.7443,-0.7338,-0.6179,-0.5137,-0.42,-0.3267,-0.2286,-0.1391,-0.1391,-0.1391,-0.1391,-2.8667,-2.976,-3.0838,-3.1399,-3.2414,-3.3186,-3.3125,-3.2676,-3.2437,0.0,0.0,0.0,0.0,0.0,0.0,0.0,-3.3406,-3.2902,-3.2989,-3.26,0.0,-3.1134,-2.9978,-2.885,-2.7828,-2.6837,-2.6071,-2.5531,-2.5276,0.0,0.0,0.0,0.0,0.0,-2.8026,0.0,-2.9187,0.0,-3.119,0.0,-3.2188,-3.3045,-3.3951,-3.3101,-3.2567,-3.2244,-3.2075,-3.1794,-3.1541,-3.1893,-3.1836,-3.1597,-3.1513,0.0,0.0,-2.9975,0.0,0.0,0.0,0.0,0.0,0.0,0.0,0.0,-2.3964,0.0,-2.3283,-2.281,0.0,0.0,0.0,0.0,0.0,0.0,-1.9938,-1.917,-1.8034,-1.7466,-1.6854,-1.5984,-1.5301,-1.4529,-1.3709,-1.3095,-1.2014,-1.0274,-0.9937,-0.9181,-0.7664,-0.7199,-0.7011,-0.7095,-0.7095,-0.7095,-0.7095,-0.7095,-0.7095,-0.7095,-0.7095,-0.7221,-0.7419,-0.7461,-0.7539,-0.7597,-0.7533,-0.7455,-0.7314,-0.6174,-0.5137,-0.42,-0.3267,-0.2286,-0.1391,-0.1391,-0.1391,-0.1391,-2.9003,-2.9637,-3.0332,-3.0903,-3.1767,-3.228,-3.1987,-3.1698,-3.1833,-3.2643,-3.2904,-3.3427,-3.4453,-3.3931,-3.3645,0.0,-3.3529,-3.3155,-3.2966,-3.2952,-3.2416,-3.1219,-3.0411,-2.9295,-2.7752,-2.689,-2.6156,-2.5564,0.0,0.0,0.0,0.0,0.0,0.0,0.0,-2.8942,-2.9389,0.0,-3.1123,-3.2159,-3.2109,-3.289,-3.3985,-3.3031,-3.2272,-3.178,-3.2061,-3.1864,-3.1583,-3.2202,-3.2174,-3.1878,-3.1766,-3.1562,-3.1219,0.0,0.0,0.0,-2.7502,0.0,0.0,-2.5203,-2.4734,-2.4439,-2.4753,-2.4481,0.0,-2.2613,-2.2834,0.0,0.0,0.0,0.0,0.0,0.0,-1.8931,-1.8078,-1.7649,-1.7248,-1.6805,-1.5866,-1.4805,-1.3669,-1.3372,-1.2513,-1.0711,-1.0434,-0.9712,-0.8181,-0.7325,-0.6933,-0.7034,-0.7078,-0.7095,-0.7095,-0.7095,-0.7095,-0.7095,-0.7095,-0.7221,-0.7419,-0.7489,-0.7536,-0.7536,-0.7536,-0.7451,-0.7253,-0.6427,-0.5359,-0.4245,-0.3534,-0.2509,-0.1391,-0.1391,-0.1391,-0.1391,-2.9468,-2.8995,-2.8555,-2.8755,-2.9299,-2.9918,-3.0463,-3.0548,-3.0998,-3.2236,-3.2925,-3.3529,-3.414,-3.4775,-3.4874,-3.4225,-3.4155,-3.3847,-3.3135,-3.3082,-3.2735,-3.1894,-3.0675,-2.9783,-2.9348,-2.8037,-2.7169,-2.675,-2.6146,0.0,0.0,0.0,0.0,0.0,0.0,-2.8703,-2.8799,-2.9915,-3.0847,-3.1536,-3.1371,-3.1338,-3.1482,-3.2779,-3.2918,-3.23,-3.1724,-3.1513,-3.1583,-3.2202,-3.1597,-3.0764,-3.2005,-3.0671,-2.8874,0.0,0.0,0.0,-2.7128,-2.672,-2.6339,-2.6579,-2.579,-2.5254,-2.6379,-2.5315,-2.4096,0.0,0.0,0.0,0.0,0.0,0.0,0.0,0.0,0.0,0.0,0.0,0.0,0.0,0.0,-1.3863,-1.3192,-1.286,-1.2163,-1.0816,-1.0341,-0.9501,-0.8189,-0.7348,-0.6886,-0.6893,-0.7024,-0.7095,-0.7095,-0.7095,-0.7095,-0.7095,-0.7095,-0.7221,-0.7415,-0.7422,-0.7426,-0.7426,-0.7426,-0.7292,-0.7102,-0.7054,-0.598,-0.4289,-0.4287,-0.3087,-0.1391,-0.1391,-0.1391,-0.1391,-3.0147,-2.9346,-2.887,-2.9729,-3.0431,-3.0923,-3.1134,-3.1499,-3.2216,-3.3417,-3.4155,-3.4927,-3.5939,-3.5555,-3.5273,-3.5433,-3.5082,-3.4564,-3.3875,-3.3818,-3.3356,-3.2274,-3.0637,-2.9677,-2.9539,-2.7485,-2.6538,-2.6807,-2.6202,0.0,0.0,0.0,0.0,0.0,0.0,-2.8358,0.0,0.0,0.0,0.0,-3.1931,-3.2492,-3.2686,-3.1591,-3.1025,-3.0913,-3.1648,-3.1281,-3.0631,-3.1354,-3.1336,-3.0959,-3.1007,-3.0624,-3.0174,-3.0017,-2.8925,-2.7615,-2.6857,-2.6856,-2.6928,-2.6264,-2.6388,-2.6765,-2.7144,-2.6504,-2.562,-2.4831,0.0,0.0,0.0,0.0,0.0,0.0,0.0,0.0,0.0,0.0,-1.6804,0.0,0.0,0.0,0.0,0.0,-1.263,-1.1799,-1.1466,-1.059,-0.8964,-0.8139,-0.7445,-0.6926,-0.693,-0.7001,-0.7095,-0.7095,-0.7095,-0.7095,-0.7095,-0.7122,-0.7224,-0.7428,-0.7411,-0.7227,-0.7434,-0.7377,-0.7095,-0.7095,-0.634,-0.5225,-0.5225,-0.4069,-0.2331,-0.1659,-0.1391,-0.148,-3.054,-2.9883,-2.9602,-3.0343,-3.1064,-3.1555,-3.178,-3.2328,-3.3066,-3.4062,-3.4955,-3.5822,-3.661,-3.6188,-3.592,-3.6089,-3.5738,-3.5259,-3.4604,-3.4329,-3.3754,-3.2778,-3.1148,-3.0164,-2.994,-2.8141,-2.72,-2.7158,-2.6764,-2.6217,0.0,0.0,0.0,0.0,0.0,-2.8421,-2.8026,-2.9027,-2.9786,0.0,-3.0945,-3.142,-3.1503,-2.9703,-2.9752,-3.0834,-3.1362,-3.0942,-3.0199,-3.0725,-3.0738,-3.0449,-3.0078,-2.9799,-2.957,-2.9345,-2.8497,-2.7451,-2.6722,-2.6985,-2.7288,-2.6329,-2.6642,-2.725,-2.7442,-2.6914,-2.611,-2.5179,-2.4558,0.0,0.0,0.0,0.0,0.0,0.0,0.0,0.0,-1.7623,0.0,0.0,0.0,0.0,0.0,0.0,0.0,-1.233,0.0,0.0,0.0,-0.8608,-0.7725,-0.6844,-0.6859,-0.693,-0.7021,-0.7071,-0.7095,-0.7095,-0.7197,-0.7251,-0.7264,-0.7509,-0.7492,-0.7267,-0.7455,-0.7373,-0.7095,-0.7095,-0.6564,-0.5719,-0.5719,-0.4739,-0.3267,-0.2285,-0.1928,-0.2061,-3.0652,-3.0512,-3.0512,-3.0568,-3.1148,-3.1766,-3.2328,-3.2974,-3.3585,-3.4161,-3.5349,-3.6145,-3.6145,-3.668,-3.6754,-3.6202,-3.6145,-3.5892,-3.5273,-3.466,-3.4006,-3.3361,-3.2188,-3.1246,-3.0596,-2.9894,-2.8968,-2.786,-2.7776,0.0,0.0,0.0,0.0,0.0,-2.8126,0.0,-2.8977,-2.8226,-2.849,-2.9314,-2.8587,-2.8332,-2.8318,-2.7454,-2.9139,-3.1807,-3.0852,-3.0367,-3.0203,-3.0241,-2.9832,-2.9285,-2.9259,-2.8279,-2.7274,-2.7835,-2.7377,-2.6697,-2.6644,-2.703,-2.7306,-2.675,-2.6584,-2.6714,-2.7304,-2.6557,-2.5613,-2.5107,-2.4518,-2.3633,0.0,0.0,0.0,0.0,0.0,0.0,0.0,0.0,0.0,0.0,0.0,0.0,0.0,0.0,0.0,0.0,0.0,0.0,0.0,-0.877,-0.7765,-0.6781,-0.6834,-0.6912,-0.6972,-0.7061,-0.7132,-0.7187,-0.7334,-0.7438,-0.7577,-0.7587,-0.7584,-0.757,-0.7431,-0.7285,-0.7095,-0.7095,-0.6564,-0.5764,-0.5764,-0.5181,-0.4245,-0.3312,-0.2956,-0.309,-3.1274,-3.0853,-3.0792,-3.1766,-3.244,-3.275,-3.244,-3.3705,-3.4781,-3.4936,-3.6019,-3.6754,-3.6754,-3.6894,-3.6922,-3.6768,-3.6754,-3.6525,-3.592,-3.5723,-3.5124,-3.4006,-3.282,-3.2089,-3.1921,-2.97,-2.8629,-2.8768,-2.7381,0.0,-2.6645,0.0,0.0,0.0,0.0,0.0,-2.8069,-2.8081,-2.8533,-2.9086,-2.83,-2.8776,-2.9756,-2.8279,-2.8582,-2.9791,-2.9541,-2.9055,-2.8593,-2.9199,-2.9282,-2.9045,-2.8559,-2.8124,-2.7791,-2.7877,-2.7323,-2.6529,-2.6141,-2.6468,-2.668,-2.568,-2.5749,-2.6138,-2.628,-2.575,-2.516,-2.5024,-2.4528,-2.3857,-2.3065,-2.2566,0.0,0.0,0.0,0.0,0.0,0.0,0.0,-1.6361,0.0,0.0,0.0,0.0,0.0,0.0,0.0,0.0,-1.082,-0.9903,-0.8929,-0.7773,-0.6996,-0.7022,-0.7932,-0.7304,-0.7338,-0.8149,-0.7491,-0.7176,-0.7216,-0.7377,-0.7366,-0.7216,-0.7339,-0.7285,-0.7095,-0.7095,-0.6962,-0.6741,-0.6741,-0.6163,-0.5228,-0.4289,-0.3933,-0.4067,-3.1232,-3.0731,-3.0817,-3.2055,-3.2996,-3.3492,-3.3227,-3.4548,-3.5583,-3.5583,-3.6427,-3.6978,-3.6978,-3.6978,-3.6978,-3.6978,-3.6978,-3.6838,-3.6539,-3.6258,-3.5794,-3.5068,-3.3859,-3.3073,-3.2806,-3.0964,-2.9729,-2.9099,-2.8033,-2.7336,-2.698,0.0,0.0,0.0,0.0,-2.7894,-2.7774,-2.7792,-2.7867,-2.7941,-2.7695,-2.8042,0.0,-2.7881,-2.7854,-2.8216,-2.8262,-2.7978,-2.7679,-2.8127,-2.8275,-2.8215,-2.7838,-2.7549,-2.7338,-2.7296,-2.6942,-2.6391,-2.5622,-2.6016,-2.636,-2.5266,-2.5218,-2.5541,-2.584,-2.542,-2.4993,-2.4993,-2.474,-2.4338,-2.3788,-2.3307,-2.2767,0.0,0.0,0.0,0.0,0.0,0.0,0.0,-1.6045,0.0,0.0,0.0,0.0,0.0,0.0,0.0,0.0,-1.0863,-0.9978,-0.8669,-0.8147,-0.8156,-0.873,-0.7975,-0.7886,-0.85,-0.7652,-0.7241,-0.7244,-0.7333,-0.7322,-0.7241,-0.7261,-0.7221,-0.7095,-0.7095,-0.7095,-0.7095,-0.7095,-0.6786,-0.6251,-0.5714,-0.527,-0.5003,-3.099,-3.0419,-3.0643,-3.1919,-3.3149,-3.4022,-3.4242,-3.5372,-3.6202,-3.6117,-3.6522,-3.685,-3.6934,-3.6948,-3.6934,-3.6948,-3.6948,-3.6906,-3.6822,-3.6319,-3.6035,-3.5899,-3.4966,-3.4119,-3.3417,-3.2695,-3.1332,-2.9394,-2.9132,-2.8289,0.0,0.0,0.0,0.0,0.0,0.0,0.0,-2.7541,-2.7135,-2.6651,-2.7128,-2.7024,-2.6651,-2.7059,-2.719,-2.719,-2.719,-2.719,-2.719,-2.719,-2.719,-2.719,-2.719,-2.6921,-2.6605,-2.6605,-2.6539,-2.6282,-2.5347,-2.5678,-2.6066,-2.5205,-2.49,-2.4953,-2.5538,-2.5264,-2.4909,-2.4909,-2.4904,-2.4771,-2.4289,-2.3805,-2.324,0.0,0.0,0.0,0.0,0.0,0.0,0.0,0.0,0.0,0.0,0.0,0.0,0.0,0.0,0.0,0.0,0.0,-1.0945,-0.9517,-0.9584,-0.9593,-0.9466,-0.8904,-0.8713,-0.8851,-0.808,-0.7657,-0.7566,-0.7587,-0.7493,-0.7333,-0.7221,-0.7115,-0.7095,-0.7095,-0.7095,-0.7095,-0.7095,-0.7095,-0.7095,-0.7228,-0.6782,-0.6071,-3.1604,-3.0624,-3.0424,-3.2136,-3.3218,-3.4027,-3.4535,-3.5895,-3.668,-3.6174,-3.5988,-3.6115,-3.6552,-3.662,-3.6661,-3.6607,-3.662,-3.6483,-3.5937,-3.5814,-3.5528,-3.4969,-3.5485,-3.5222,-3.4062,-3.2518,-3.1451,-3.091,-2.919,-2.8368,0.0,0.0,0.0,0.0,0.0,0.0,-2.6806,-2.7953,-2.7911,-2.7139,-2.7644,-2.7552,-2.7105,-2.7156,-2.719,-2.719,-2.719,-2.719,-2.719,-2.719,-2.719,-2.719,-2.719,-2.7121,-2.7093,-2.7093,-2.6806,-2.6459,-2.6249,-2.5712,-2.5154,-2.4969,-2.463,-2.4328,-2.4454,-2.4406,-2.4334,-2.4334,-2.4337,-2.4302,-2.4213,-2.4112,-2.4136,-2.4338,-2.3351,0.0,0.0,0.0,0.0,0.0,0.0,-1.6502,0.0,0.0,0.0,0.0,0.0,0.0,0.0,0.0,-1.1848,-1.0516,-0.9627,-0.9617,-1.0449,-0.9579,-0.9713,-1.0804,-0.9878,-0.9064,-0.8332,-0.847,-0.8054,-0.7142,-0.7288,-0.7258,-0.7095,-0.7095,-0.7095,-0.7095,-0.7095,-0.7095,-0.7183,-0.7973,-0.8149,-0.8013,-3.1549,-3.0751,0.0,-3.2697,-3.3384,-3.4271,-3.6065,-3.6598,-3.6655,-3.6339,-3.6184,-3.6333,-3.6888,-3.6984,-3.7012,-3.6956,-3.6741,-3.6264,-3.543,-3.5111,-3.4846,-3.4512,-3.508,-3.4958,-3.4,-3.2898,-3.1971,-3.1198,-2.9796,-2.9007,0.0,0.0,0.0,0.0,0.0,-2.7301,0.0,-2.76,-2.7816,-2.7621,-2.7598,-2.761,-2.7587,-2.7334,-2.719,-2.719,-2.719,-2.719,-2.719,-2.719,-2.719,-2.719,-2.719,-2.719,-2.719,-2.719,-2.7059,-2.6806,-2.6582,-2.6106,-2.5589,-2.505,-2.474,-2.4499,-2.4258,-2.42,-2.42,-2.42,-2.42,-2.42,-2.42,-2.4395,-2.4568,-2.4545,-2.4143,0.0,0.0,0.0,0.0,0.0,0.0,0.0,0.0,0.0,0.0,0.0,0.0,0.0,0.0,0.0,-1.2706,-1.1341,-1.095,-1.0889,-1.1118,-1.0467,-1.0455,-1.1059,-1.0264,-0.9405,-0.8504,-0.8723,-0.8219,-0.7265,-0.7339,-0.7329,-0.7255,-0.7129,-0.7095,-0.7139,-0.7625,-0.7841,-0.7929,-0.8886,-0.9231,-0.9231,-3.1477,-3.1091,-3.1453,-3.3545,-3.4027,-3.4995,-3.7464,-3.7167,-3.6713,-3.6685,-3.635,-3.6311,-3.6914,-3.698,-3.698,-3.698,-3.6596,-3.5939,-3.4878,-3.4425,-3.4144,-3.4014,-3.4405,-3.4297,-3.3669,-3.3045,-3.2178,-3.0939,-3.0239,-2.9415,-2.84,0.0,0.0,0.0,-2.8187,-2.7759,-2.7362,-2.7621,-2.7874,-2.8103,-2.7702,-2.7725,-2.7931,-2.7385,-2.719,-2.719,-2.719,-2.719,-2.719,-2.719,-2.719,-2.719,-2.719,-2.719,-2.719,-2.719,-2.719,-2.7139,-2.6737,-2.6593,-2.6306,-2.544,-2.5073,-2.4809,-2.443,-2.4349,-2.4315,-2.4212,-2.42,-2.4258,-2.4476,-2.4648,-2.4668,-2.4422,-2.45,-2.4325,0.0,0.0,0.0,0.0,0.0,0.0,0.0,0.0,0.0,0.0,0.0,0.0,-1.3617,0.0,-1.3461,-1.2122,-1.2292,-1.213,-1.1657,-1.1288,-1.1136,-1.1191,-1.0728,-1.0014,-0.9113,-0.9343,-0.8795,-0.7689,-0.7766,-0.7608,-0.7312,-0.7146,-0.7095,-0.7183,-0.8149,-0.85,-0.8627,-0.9797,-1.0231,-1.0318,-3.1964,-3.2093,-3.2688,-3.4786,-3.5795,-3.6605,-3.7424,-3.7394,-3.7309,-3.7309,-3.5848,-3.4981,-3.5537,-3.5646,-3.5646,-3.56,-3.5595,-3.514,-3.401,-3.3884,-3.362,-3.3134,-3.3879,-3.3966,-3.3201,-3.2412,-3.1486,-3.0486,-3.0135,-2.8907,-2.6866,-2.8683,-2.9028,-2.8061,-2.8019,-2.7954,-2.7966,-2.8896,-2.9033,-2.8632,-2.8586,-2.8333,-2.7931,-2.7385,-2.719,-2.719,-2.719,-2.719,-2.719,-2.719,-2.719,-2.719,-2.719,-2.719,-2.719,-2.719,-2.719,-2.7179,-2.7133,-2.6818,-2.6478,-2.6386,-2.5612,-2.49,-2.4855,-2.4843,-2.4717,-2.4292,-2.42,-2.4476,-2.5406,-2.4855,-2.4397,-2.4857,-2.4247,-2.3374,-2.2392,0.0,-2.0207,0.0,0.0,0.0,0.0,-1.9847,0.0,0.0,0.0,0.0,0.0,-1.4753,-1.4002,-1.2649,-1.2636,-1.2512,-1.2215,-1.1938,-1.1915,-1.2153,-1.2361,-1.1972,-1.1035,-1.1431,-1.051,-0.8676,-0.8936,-0.8326,-0.7119,-0.7102,-0.7095,-0.7183,-0.8149,-0.85,-0.8719,-1.0496,-1.1322,-1.1671,-3.3514,-3.3244,-3.3481,-3.5466,-3.5587,-3.5783,-3.6915,-3.6567,-3.634,-3.6677,-3.5765,-3.5286,-3.5884,-3.5947,-3.5994,-3.5947,-3.5692,-3.5039,-3.3973,-3.3362,-3.291,-3.2722,-3.3082,-3.2959,-3.2277,-3.1871,-3.1366,-3.0756,-3.0489,-2.998,-2.9261,-2.9482,-2.9167,-2.8413,-2.8413,-2.8597,-2.8884,-2.8677,-2.8632,-2.8643,-2.8057,-2.7885,-2.7931,-2.7385,-2.7415,-2.7644,-2.7334,-2.7426,-2.7633,-2.7293,-2.719,-2.719,-2.719,-2.719,-2.719,-2.719,-2.719,-2.719,-2.719,-2.7082,-2.6852,-2.6582,-2.6191,-2.5681,-2.5061,-2.4912,-2.4774,-2.4292,-2.443,-2.4511,-2.4126,-2.4256,-2.4083,-2.3225,-2.2794,-2.2273,-2.1464,0.0,0.0,0.0,0.0,0.0,0.0,0.0,0.0,0.0,0.0,0.0,0.0,-1.5645,-1.4765,-1.3463,-1.262,-1.2157,-1.2056,-1.1967,-1.1934,-1.2083,-1.2499,-1.2229,-1.13,-1.1727,-1.1151,-0.988,-1.0011,-0.9546,-0.8794,-0.8794,-0.8794,-0.8882,-0.9802,-1.0284,-1.0587,-1.1886,-1.2534,-1.279,-3.447,-3.4144,-3.4251,-3.6015,-3.5698,-3.5666,-3.691,-3.6271,-3.5834,-3.6223,-3.5652,-3.539,-3.5808,-3.5858,-3.5858,-3.5858,-3.5499,-3.4932,-3.4054,-3.3356,-3.2815,-3.2515,-3.2471,-3.2159,-3.1504,-3.1319,-3.1019,-3.0572,-3.0524,-3.0259,-2.9883,-2.932,-2.9091,-2.9137,-2.8999,-2.9217,-2.9653,-2.8792,-2.862,-2.8873,-2.8172,-2.8023,-2.8149,-2.7805,-2.7885,-2.8149,-2.7793,-2.7885,-2.8138,-2.7782,-2.7626,-2.7568,-2.7282,-2.719,-2.7213,-2.7415,-2.7305,-2.7213,-2.7415,-2.7305,-2.711,-2.6783,-2.6616,-2.6306,-2.5532,-2.5055,-2.4687,-2.4359,-2.4325,-2.4104,-2.3354,-2.3782,-2.369,-2.2066,-2.1847,-2.1527,-2.0547,-1.9659,0.0,0.0,-1.8871,-1.8735,-1.89,-1.968,0.0,0.0,0.0,0.0,0.0,-1.6377,-1.5494,-1.4305,-1.3024,-1.2301,-1.2229,-1.2031,-1.188,-1.1926,-1.2451,-1.2398,-1.1842,-1.1964,-1.1713,-1.1152,-1.0764,-1.0434,-1.0139,-1.0033,-1.0053,-1.0183,-1.1144,-1.1628,-1.1886,-1.2839,-1.3313,-1.3483,-3.4417,-3.4598,-3.5064,-3.6547,-3.6772,-3.7013,-3.7658,-3.6917,-3.6307,-3.632,-3.5427,-3.4823,-3.4823,-3.4823,-3.4823,-3.4823,-3.4823,-3.4595,-3.403,-3.3982,-3.3514,-3.2551,-3.2227,-3.175,-3.1029,-3.0758,-3.0244,-2.9537,-2.9975,-2.9206,-2.7247,-2.777,-2.8792,-3.0181,-2.9699,-2.9757,-3.017,-2.9688,-2.9481,-2.9493,-2.9481,-2.916,-2.8689,-2.8677,-2.8689,-2.8689,-2.8677,-2.8689,-2.8689,-2.8677,-2.8677,-2.8505,-2.75,-2.719,-2.7282,-2.7828,-2.7621,-2.7334,-2.7839,-2.761,-2.719,-2.7179,-2.6841,-2.6501,-2.649,-2.5475,-2.4506,-2.4506,-2.3722,-2.3143,-2.3591,-2.3662,-2.3189,-2.2006,-2.1789,-2.1243,-1.9655,-1.9012,-1.8931,-1.9534,-1.9965,-2.0184,-2.0184,-2.1421,0.0,0.0,0.0,0.0,0.0,0.0,-1.6088,-1.523,-1.409,-1.3313,-1.3006,-1.2255,-1.188,-1.1926,-1.2451,-1.285,-1.3045,-1.2537,-1.2382,-1.2424,-1.1157,-1.0651,-1.0657,-1.0401,-1.0394,-1.0697,-1.1617,-1.1972,-1.21,-1.3052,-1.3525,-1.3695,-3.5572,-3.5197,-3.5116,-3.6252,-3.5903,-3.5505,-3.5726,-3.5475,-3.5295,-3.5295,-3.5017,-3.4775,-3.4775,-3.4775,-3.4775,-3.4775,-3.4775,-3.4715,-3.4546,-3.4186,-3.3694,-3.3068,-3.2247,-3.1581,-3.0996,-3.0544,-3.0226,-2.9986,-3.0503,-3.025,-2.9274,-2.9424,-2.9584,-2.9722,-2.9573,-2.9768,-3.0181,-2.9699,-2.9504,-2.947,-2.9102,-2.8447,-2.7678,-2.7678,-2.7889,-2.8177,-2.78,-2.8351,-2.9095,-2.802,-2.7678,-2.7491,-2.6507,-2.7127,-2.8264,-2.8425,-2.7874,-2.7214,-2.7423,-2.7346,-2.7192,-2.7192,-2.7583,-2.7626,-2.6345,-2.4497,-2.3061,-2.3061,-2.2829,-2.2422,-2.1657,-2.1793,-2.159,-2.0318,-1.9855,-1.9567,-1.9164,-1.8641,-1.8398,-1.8731,-1.875,-1.8592,-1.8374,-1.9127,0.0,0.0,0.0,0.0,0.0,-1.7443,-1.6515,-1.5651,-1.4416,-1.3614,-1.3267,-1.289,-1.2521,-1.2198,-1.2735,-1.3224,-1.3618,-1.345,-1.3432,-1.3421,-1.2831,-1.2575,-1.2583,-1.2328,-1.2351,-1.2522,-1.2833,-1.3045,-1.3222,-1.3476,-1.3737,-1.3955,-3.5619,-3.5247,-3.5017,-3.5619,-3.5199,-3.4775,-3.4775,-3.4775,-3.4775,-3.4775,-3.4775,-3.4775,-3.4775,-3.4775,-3.4775,-3.4775,-3.4775,-3.4775,-3.4775,-3.4474,-3.4066,-3.3585,-3.2568,-3.1772,-3.1266,-3.0546,-3.0216,-3.0216,-3.0549,-3.0549,-3.0216,-3.0216,-3.0055,-2.9768,-2.9768,-2.994,-3.0204,-3.0112,-2.9848,-2.9515,-2.9757,-2.8914,-2.7544,-2.7903,-2.7928,-2.7661,-2.7326,-2.7822,-2.8506,-2.7508,-2.7219,-2.7083,-2.6478,-2.7118,-2.8177,-2.8364,-2.7866,-2.7227,-2.7456,-2.7369,-2.7095,-2.6729,-2.7404,-2.7598,-2.5497,-2.369,-2.2392,-2.2181,-2.1917,-2.1487,-2.0664,-2.0889,-2.0796,-1.9524,-1.9228,-1.9067,-1.8816,-1.8434,-1.8415,-1.8997,-1.8921,-1.8795,-1.8731,-1.8892,-1.8968,-1.8965,0.0,0.0,0.0,-1.8012,-1.7358,-1.6055,-1.4942,-1.4147,-1.3582,-1.3418,-1.3041,-1.2469,-1.3115,-1.3592,-1.3912,-1.4008,-1.4051,-1.4039,-1.3773,-1.375,-1.3874,-1.3536,-1.355,-1.3801,-1.3698,-1.3737,-1.3906,-1.4237,-1.4447,-1.4664,-3.4775,-3.4775,-3.4775,-3.4775,-3.4775,-3.4775,-3.4775,-3.4775,-3.4775,-3.4775,-3.4775,-3.4775,-3.4775,-3.4775,-3.4775,-3.4775,-3.4775,-3.4775,-3.4775,-3.4775,-3.4546,-3.4018,-3.3078,-3.2277,-3.1725,-3.0743,-3.0273,-3.0273,-3.0308,-3.0331,-3.0331,-3.0331,-3.0331,-3.0319,-3.0285,-3.0296,-3.0354,-3.0778,-3.0434,-2.9722,-3.1053,-3.0128,-2.8054,-2.89,-2.8338,-2.7094,-2.7094,-2.7142,-2.7189,-2.7142,-2.7094,-2.7094,-2.6999,-2.7047,-2.7201,-2.7802,-2.7551,-2.7201,-2.769,-2.7495,-2.6881,-2.5916,-2.6402,-2.6498,-2.4296,-2.314,-2.2337,-2.1777,-2.1031,-2.0498,-2.044,-2.0701,-2.0598,-1.9476,-1.9591,-1.9533,-1.8602,-1.8463,-1.884,-1.9976,-2.0111,-2.0247,-2.058,-2.0103,-1.9395,-1.853,-1.7588,-1.7076,-1.7038,-1.8523,-1.8439,-1.6469,-1.57,-1.4891,-1.4079,-1.3858,-1.3415,-1.2771,-1.3538,-1.3918,-1.3942,-1.4231,-1.4346,-1.4334,-1.4067,-1.4192,-1.4572,-1.4066,-1.4106,-1.4522,-1.4334,-1.4269,-1.4353,-1.5258,-1.5585,-1.5702,-3.4775,-3.4775,-3.4775,-3.4775,-3.4775,-3.4775,-3.4775,-3.4775,-3.4775,-3.4775,-3.4775,-3.4775,-3.4775,-3.4775,-3.4775,-3.4775,-3.4628,-3.458,-3.4775,-3.4628,-3.4353,-3.4018,-3.3434,-3.2653,-3.1736,-3.1113,-3.0824,-3.0824,-3.1215,-3.1398,-3.1398,-3.1375,-3.1375,-3.1387,-3.0996,-3.1042,-3.1399,-3.0686,-3.0503,-3.056,-2.9751,-2.8611,-2.7338,-2.6805,-2.6354,-2.6071,-2.6071,-2.6532,-2.7094,-2.6302,-2.6071,-2.5926,-2.5148,-2.5441,-2.6234,-2.7112,-2.6773,-2.6069,-2.6217,-2.6167,-2.6002,-2.5763,-2.5637,-2.5451,-2.4886,-2.3524,-2.2136,-2.1401,-2.0862,-2.0322,-1.969,-1.9652,-1.9641,-1.9359,-1.9384,-1.9344,-1.9104,-1.8967,-1.8957,-1.9255,-1.9169,-1.8967,-1.8745,-1.8598,-1.8674,-1.9059,-1.8876,-1.8649,-1.8519,-1.8904,-1.8262,-1.6379,-1.6433,-1.6179,-1.5584,-1.4903,-1.4149,-1.3326,-1.3719,-1.4008,-1.4208,-1.4465,-1.4592,-1.4621,-1.4531,-1.4644,-1.4896,-1.4546,-1.4582,-1.4939,-1.5586,-1.5857,-1.5988,-1.6942,-1.7286,-1.7329,-3.4775,-3.4775,-3.4775,-3.4775,-3.4775,-3.4775,-3.4775,-3.4775,-3.4775,-3.4775,-3.4775,-3.4775,-3.4775,-3.4775,-3.4775,-3.4775,-3.4531,-3.4482,-3.4628,-3.4396,-3.4179,-3.4041,-3.3442,-3.2851,-3.2242,-3.1425,-3.0893,-3.0652,-3.1169,-3.1295,-3.1065,-3.1295,-3.141,-3.141,-3.1134,-3.1169,-3.1387,-3.0326,-2.989,-2.9864,-2.9018,-2.7813,-2.6466,-2.6143,-2.5615,-2.502,-2.502,-2.5353,-2.5771,-2.5206,-2.502,-2.4922,-2.435,-2.4587,-2.5118,-2.5674,-2.5781,-2.5693,-2.5693,-2.5693,-2.5693,-2.5693,-2.5179,-2.4668,-2.4668,-2.3607,-2.2391,-2.1796,-2.12,-2.0594,-1.9971,-1.9861,-1.9797,-1.9613,-1.9586,-1.9522,-1.9329,-1.9222,-1.9152,-1.9152,-1.9033,-1.8872,-1.8686,-1.8381,-1.8494,-1.912,-1.8754,-1.855,-1.8589,-1.8598,-1.7974,-1.6636,-1.697,-1.6835,-1.6111,-1.5245,-1.4429,-1.3701,-1.4101,-1.4355,-1.449,-1.5194,-1.5296,-1.4921,-1.5825,-1.6077,-1.5877,-1.6063,-1.6296,-1.6557,-1.6926,-1.7085,-1.7216,-1.8137,-1.8483,-1.8526,-3.4775,-3.4775,-3.4775,-3.4775,-3.4775,-3.4775,-3.4775,-3.4775,-3.4775,-3.4775,-3.4775,-3.4775,-3.4775,-3.4775,-3.4775,-3.4775,-3.4531,-3.4384,-3.4384,-3.4211,-3.4125,-3.4125,-3.3434,-3.2996,-3.2915,-3.1805,-3.1019,-3.056,-3.11,-3.1077,-3.0572,-3.1019,-3.1098,-3.0877,-3.0809,-3.0715,-3.0584,-2.9591,-2.8939,-2.856,-2.8362,-2.7208,-2.5732,-2.5976,-2.5265,-2.4202,-2.4202,-2.4202,-2.4202,-2.4202,-2.4202,-2.4202,-2.4202,-2.4202,-2.4202,-2.4202,-2.4784,-2.545,-2.545,-2.545,-2.545,-2.545,-2.4824,-2.4202,-2.4202,-2.3629,-2.2931,-2.2391,-2.1777,-2.1135,-2.0613,-2.0521,-2.0448,-2.0195,-2.0058,-1.9875,-1.9613,-1.9467,-1.9375,-1.9311,-1.9301,-1.9301,-1.9301,-1.8834,-1.8653,-1.8975,-1.8273,-1.7926,-1.8168,-1.8239,-1.7969,-1.7299,-1.754,-1.7175,-1.6188,-1.5511,-1.4747,-1.3958,-1.4599,-1.4921,-1.4968,-1.6217,-1.6365,-1.5683,-1.739,-1.7762,-1.7235,-1.7864,-1.82,-1.8356,-1.8282,-1.8256,-1.8387,-1.9255,-1.9566,-1.9695,-3.4775,-3.4775,-3.4775,-3.4775,-3.4775,-3.4775,-3.4775,-3.4775,-3.4775,-3.4775,-3.4775,-3.4775,-3.4775,-3.4775,-3.4775,-3.4775,-3.4408,-3.4211,-3.4384,-3.4211,-3.4125,-3.4125,-3.3747,-3.3343,-3.2926,-3.2474,-3.2213,-3.2133,-3.2673,-3.2661,-3.2133,-3.2225,-3.1584,-3.0337,-2.9917,-2.9471,-2.8993,-2.7961,-2.7777,-2.7963,-2.6709,-2.6005,-2.5606,-2.485,-2.4396,-2.4202,-2.4202,-2.4202,-2.4202,-2.4202,-2.4202,-2.4202,-2.4202,-2.4202,-2.4202,-2.4202,-2.4301,-2.444,-2.444,-2.444,-2.444,-2.444,-2.4301,-2.4202,-2.4202,-2.411,-2.3657,-2.2547,-2.2181,-2.176,-2.0723,-2.0521,-2.068,-2.1312,-2.0836,-2.0521,-2.0787,-2.0255,-1.9696,-1.9347,-1.9301,-1.9301,-1.9301,-1.9207,-1.9119,-1.8993,-1.8854,-1.873,-1.8603,-1.8954,-1.9055,-1.8921,-1.8664,-1.7848,-1.6427,-1.6662,-1.5913,-1.4244,-1.5423,-1.5974,-1.6021,-1.7461,-1.8025,-1.7933,-1.8457,-1.8603,-1.8511,-1.864,-1.8708,-1.8792,-1.9599,-1.9943,-2.0033,-2.0953,-2.1318,-2.1318,-3.4775,-3.4775,-3.4775,-3.4775,-3.4775,-3.4775,-3.4775,-3.4775,-3.4775,-3.4775,-3.4775,-3.4775,-3.4775,-3.4775,-3.4775,-3.4775,-3.4494,-3.4249,-3.4261,-3.3866,-3.3679,-3.3679,-3.353,-3.3226,-3.2695,-3.2863,-3.265,-3.2099,-3.2604,-3.2592,-3.2099,-3.1544,-3.0874,-3.0144,-2.9123,-2.8543,-2.8261,-2.696,-2.6518,-2.6651,-2.5391,-2.4873,-2.4833,-2.439,-2.4202,-2.4202,-2.4202,-2.4202,-2.4202,-2.4202,-2.4202,-2.4202,-2.4202,-2.4202,-2.4202,-2.4202,-2.4202,-2.4202,-2.4202,-2.4202,-2.4202,-2.4202,-2.4202,-2.4202,-2.4202,-2.3978,-2.3602,-2.2776,-2.2437,-2.2044,-2.1275,-2.1129,-2.1183,-2.133,-2.108,-2.075,-2.0512,-2.0122,-1.9729,-1.9356,-1.9301,-1.9393,-1.9613,-1.943,-1.9363,-1.947,-1.9488,-1.9448,-1.9336,-1.9498,-1.9738,-1.9946,-1.9576,-1.8853,-1.7866,-1.7481,-1.6954,-1.6297,-1.6483,-1.6868,-1.7414,-1.881,-1.9139,-1.8688,-1.9849,-2.0076,-1.9658,-2.0167,-2.0357,-2.0402,-2.0853,-2.1042,-2.1132,-2.1553,-2.1696,-2.1696,-3.4775,-3.4775,-3.4775,-3.4775,-3.4775,-3.4775,-3.4775,-3.4775,-3.4775,-3.4775,-3.4775,-3.4775,-3.4775,-3.4775,-3.4775,-3.4775,-3.4531,-3.4298,-3.4125,-3.3679,-3.3381,-3.3281,-3.3281,-3.3097,-3.2684,-3.3074,-3.2902,-3.217,-3.2168,-3.1885,-3.1408,-3.0251,-2.9499,-2.9078,-2.7942,-2.736,-2.7037,-2.583,-2.5362,-2.5265,-2.4489,-2.4202,-2.4202,-2.4202,-2.4202,-2.4202,-2.4202,-2.4202,-2.4202,-2.4202,-2.4202,-2.4202,-2.4202,-2.4202,-2.4202,-2.4202,-2.4202,-2.4202,-2.4202,-2.4202,-2.4202,-2.4202,-2.4202,-2.4202,-2.4202,-2.384,-2.338,-2.2986,-2.2574,-2.2153,-2.1769,-2.1696,-2.165,-2.1557,-2.1374,-2.1071,-2.0515,-2.0287,-2.0053,-1.9632,-1.9586,-1.9714,-1.9994,-1.9778,-1.9714,-2.0003,-2.0031,-2.0031,-2.0031,-2.0113,-2.0351,-2.0787,-2.0406,-1.9843,-1.9162,-1.8441,-1.8071,-1.8079,-1.7762,-1.7994,-1.881,-2.0068,-2.0212,-1.9575,-2.1042,-2.1275,-2.0673,-2.141,-2.1696,-2.1696,-2.1696,-2.1696,-2.1696,-2.1696,-2.1696,-2.1696,-3.4775,-3.4775,-3.4775,-3.4775,-3.4775,-3.4775,-3.4775,-3.4775,-3.4775,-3.4775,-3.4775,-3.4775,-3.4775,-3.4775,-3.4775,-3.4775,-3.4531,-3.4298,-3.4125,-3.3828,-3.358,-3.3331,-3.3281,-3.3258,-3.3224,-3.3258,-3.3247,-3.3178,-3.1794,-3.0833,-3.0312,-2.8837,-2.7388,-2.6024,-2.5898,-2.5352,-2.4486,-2.4359,-2.4301,-2.4301,-2.4251,-2.4202,-2.4202,-2.4202,-2.4202,-2.4202,-2.4202,-2.4202,-2.4202,-2.4202,-2.4202,-2.4202,-2.4202,-2.4202,-2.4202,-2.4202,-2.4202,-2.4202,-2.4202,-2.4202,-2.4202,-2.4202,-2.4202,-2.4202,-2.4202,-2.384,-2.338,-2.2986,-2.2574,-2.2153,-2.1769,-2.1696,-2.1925,-2.2657,-2.2135,-2.1751,-2.2062,-2.1493,-2.0869,-2.0475,-2.0429,-2.0438,-2.0466,-2.0448,-2.0397,-2.0466,-2.0475,-2.0475,-2.0475,-2.0824,-2.1209,-2.1595,-2.122,-2.0551,-1.9657,-1.9684,-1.926,-1.8395,-1.9239,-1.9704,-1.9849,-2.1042,-2.1553,-2.1508,-2.1642,-2.1651,-2.1597,-2.1687,-2.1696,-2.1696,-2.1696,-2.1696,-2.1696,-2.1696,-2.1696,-2.1696,-3.4775,-3.4775,-3.4775,-3.4775,-3.4775,-3.4775,-3.4775,-3.4775,-3.4775,-3.4775,-3.4775,-3.4775,-3.4775,-3.4775,-3.4775,-3.4775,-3.4531,-3.4298,-3.4125,-3.3828,-3.358,-3.3331,-3.3281,-3.3281,-3.3281,-3.3281,-3.3281,-3.3281,-3.2396,-3.1482,-3.0641,-2.8845,-2.7313,-2.6114,-2.5183,-2.4538,-2.4202,-2.4202,-2.4202,-2.4202,-2.4202,-2.4202,-2.4202,-2.4202,-2.4202,-2.4202,-2.4202,-2.4202,-2.4202,-2.4202,-2.4202,-2.4202,-2.4202,-2.4202,-2.4202,-2.4202,-2.4202,-2.4202,-2.4202,-2.4202,-2.4202,-2.4202,-2.4202,-2.4202,-2.4202,-2.3648,-2.3087,-2.294,-2.2382,-2.187,-2.1723,-2.1696,-2.1797,-2.2108,-2.1897,-2.165,-2.1585,-2.13,-2.0961,-2.0567,-2.0521,-2.0613,-2.086,-2.0668,-2.0622,-2.0869,-2.0879,-2.0879,-2.0879,-2.1229,-2.1412,-2.1346,-2.1403,-2.1316,-2.0962,-2.0414,-2.0257,-2.043,-2.0249,-2.0439,-2.1042,-2.1508,-2.1696,-2.1696,-2.1696,-2.1696,-2.1696,-2.1696,-2.1696,-2.1696,-2.1696,-2.1696,-2.1696,-2.1696,-2.1696,-2.1696,-3.4775,-3.4775,-3.4775,-3.4775,-3.4775,-3.4775,-3.4775,-3.4775,-3.4775,-3.4775,-3.4775,-3.4775,-3.4775,-3.4775,-3.4775,-3.4775,-3.4628,-3.4445,-3.4211,-3.3866,-3.358,-3.3331,-3.3281,-3.3281,-3.3281,-3.3281,-3.3281,-3.3281,-3.1968,-3.0943,-3.0227,-2.7914,-2.6419,-2.5658,-2.4659,-2.4202,-2.4202,-2.4202,-2.4202,-2.4202,-2.4202,-2.4202,-2.4202,-2.4202,-2.4202,-2.4202,-2.4202,-2.4202,-2.4202,-2.4202,-2.4202,-2.4202,-2.4202,-2.4202,-2.4202,-2.4202,-2.4202,-2.4202,-2.4202,-2.4202,-2.4202,-2.4202,-2.4202,-2.4202,-2.4202,-2.3529,-2.2904,-2.2904,-2.2254,-2.1696,-2.1696,-2.1696,-2.1696,-2.1696,-2.1696,-2.1595,-2.1346,-2.131,-2.1209,-2.0891,-2.0897,-2.1007,-2.1282,-2.1062,-2.0973,-2.1282,-2.131,-2.131,-2.131,-2.1531,-2.1559,-2.131,-2.154,-2.1696,-2.1696,-2.1042,-2.1042,-2.1687,-2.1042,-2.1087,-2.1696,-2.1696,-2.1696,-2.1696,-2.1696,-2.1696,-2.1696,-2.1696,-2.1696,-2.1696,-2.1696,-2.1696,-2.1696,-2.1696,-2.1696,-2.1696,-3.4775,-3.4775,-3.4775,-3.4775,-3.4775,-3.4775,-3.4775,-3.4775,-3.4775,-3.4775,-3.4775,-3.4775,-3.4775,-3.4775,-3.4775,-3.4775,-3.4775,-3.4689,-3.4433,-3.3965,-3.358,-3.3331,-3.3281,-3.3281,-3.3281,-3.3281,-3.3281,-3.3281,-3.0216,-2.8705,-2.8634,-2.5599,-2.4202,-2.4202,-2.4202,-2.4202,-2.4202,-2.4202,-2.4202,-2.4202,-2.4202,-2.4202,-2.4202,-2.4202,-2.4202,-2.4202,-2.4202,-2.4202,-2.4202,-2.4202,-2.4202,-2.4202,-2.4202,-2.4202,-2.4202,-2.4202,-2.4202,-2.4202,-2.4202,-2.4202,-2.4202,-2.4202,-2.4202,-2.4202,-2.4202,-2.3529,-2.2904,-2.2904,-2.2254,-2.1696,-2.1696,-2.1696,-2.1696,-2.1696,-2.1696,-2.1696,-2.1696,-2.1696,-2.1696,-2.1696,-2.1696,-2.1696,-2.1696,-2.1696,-2.1696,-2.1696,-2.1696,-2.1696,-2.1696,-2.1696,-2.1696,-2.1696,-2.1696,-2.1696,-2.1696,-2.1696,-2.1696,-2.1696,-2.1696,-2.1696,-2.1696,-2.1696,-2.1696,-2.1696,-2.1696,-2.1696,-2.1696,-2.1696,-2.1696,-2.1696,-2.1696,-2.1696,-2.1696,-2.1696,-2.1696,-2.1696,-3.4775,-3.4775,-3.4775,-3.4775,-3.4775,-3.4775,-3.4775,-3.4775,-3.4775,-3.4775,-3.4775,-3.4775,-3.4775,-3.4775,-3.4775,-3.4775,-3.4775,-3.464,-3.4211,-3.3866,-3.358,-3.3331,-3.3281,-3.3281,-3.3281,-3.3281,-3.3281,-3.3281,-3.0943,-2.9409,-2.8634,-2.633,-2.4873,-2.4202,-2.4202,-2.4202,-2.4202,-2.4202,-2.4202,-2.4202,-2.4202,-2.4202,-2.4202,-2.4202,-2.4202,-2.4202,-2.4202,-2.4202,-2.4202,-2.4202,-2.4202,-2.4202,-2.4202,-2.4202,-2.4202,-2.4202,-2.4202,-2.4202,-2.4202,-2.4202,-2.4202,-2.4202,-2.4202,-2.4202,-2.4202,-2.3529,-2.2904,-2.2904,-2.2254,-2.1696,-2.1696,-2.1696,-2.1696,-2.1696,-2.1696,-2.1696,-2.1696,-2.1696,-2.1696,-2.1696,-2.1696,-2.1696,-2.1696,-2.1696,-2.1696,-2.1696,-2.1696,-2.1696,-2.1696,-2.1696,-2.1696,-2.1696,-2.1696,-2.1696,-2.1696,-2.1696,-2.1696,-2.1696,-2.1696,-2.1696,-2.1696,-2.1696,-2.1696,-2.1696,-2.1696,-2.1696,-2.1696,-2.1696,-2.1696,-2.1696,-2.1696,-2.1696,-2.1696,-2.1696,-2.183,-2.1963,-3.4775,-3.4775,-3.4775,-3.4775,-3.4775,-3.4775,-3.4775,-3.4775,-3.4775,-3.4775,-3.4775,-3.4775,-3.4775,-3.4775,-3.4775,-3.4775,-3.4775,-3.4592,-3.4125,-3.3927,-3.3679,-3.3331,-3.3281,-3.3281,-3.3281,-3.2857,-3.2645,-3.2645,-3.0575,-2.9052,-2.7975,-2.6035,-2.4775,-2.4202,-2.4202,-2.4202,-2.4202,-2.4202,-2.4202,-2.4202,-2.4202,-2.4202,-2.4202,-2.4202,-2.4202,-2.4202,-2.4202,-2.4202,-2.4202,-2.4202,-2.4202,-2.4202,-2.4202,-2.4202,-2.4202,-2.4202,-2.4202,-2.4202,-2.4202,-2.4202,-2.4202,-2.4202,-2.4202,-2.4202,-2.4202,-2.3529,-2.2904,-2.2904,-2.2254,-2.1696,-2.1696,-2.1696,-2.1696,-2.1696,-2.1696,-2.1696,-2.1696,-2.1696,-2.1696,-2.1696,-2.1696,-2.1696,-2.1696,-2.1696,-2.1696,-2.1696,-2.1696,-2.1696,-2.1696,-2.1696,-2.1696,-2.1696,-2.1696,-2.1696,-2.1696,-2.1696,-2.1696,-2.1696,-2.1696,-2.1696,-2.1696,-2.1696,-2.1696,-2.1741,-2.2078,-2.2033,-2.1731,-2.2122,-2.229,-2.2369,-2.229,-2.2589,-2.3008,-2.2555,-2.2765,-2.3193,-3.4775,-3.4775,-3.4775,-3.4775,-3.4775,-3.4775,-3.4775,-3.4775,-3.4775,-3.4775,-3.4775,-3.4775,-3.4775,-3.4775,-3.4775,-3.4775,-3.4775,-3.4592,-3.4125,-3.4125,-3.3878,-3.3331,-3.3181,-3.3181,-3.3281,-3.2167,-3.1575,-3.1575,-2.9598,-2.8036,-2.6965,-2.5098,-2.4238,-2.4202,-2.4202,-2.4202,-2.4202,-2.4202,-2.4202,-2.4202,-2.4202,-2.4202,-2.4202,-2.4202,-2.4202,-2.4202,-2.4202,-2.4202,-2.4202,-2.4202,-2.4202,-2.4202,-2.4202,-2.4202,-2.4202,-2.4202,-2.4202,-2.4202,-2.4202,-2.4202,-2.4202,-2.4202,-2.4202,-2.4202,-2.4202,-2.3529,-2.2904,-2.2904,-2.2254,-2.1696,-2.1696,-2.1696,-2.1696,-2.1696,-2.1696,-2.1696,-2.1696,-2.1696,-2.1696,-2.1696,-2.1696,-2.1696,-2.1696,-2.1696,-2.1696,-2.1696,-2.1696,-2.1696,-2.1696,-2.1696,-2.1696,-2.1696,-2.1696,-2.1696,-2.1696,-2.1696,-2.1696,-2.1696,-2.1696,-2.1696,-2.1696,-2.1696,-2.1731,-2.1865,-2.2711,-2.2668,-2.2033,-2.2887,-2.3391,-2.3511,-2.3347,-2.4029,-2.4999,-2.3996,-2.4296,-2.4914,-3.4775,-3.4775,-3.4775,-3.4775,-3.4775,-3.4775,-3.4775,-3.4775,-3.4775,-3.4775,-3.4775,-3.4775,-3.4775,-3.4775,-3.4775,-3.4775,-3.4775,-3.4592,-3.4125,-3.4125,-3.3878,-3.3331,-3.2432,-3.2381,-3.3281,-3.2167,-3.1575,-3.1575,-2.9044,-2.7523,-2.6975,-2.5399,-2.4514,-2.4202,-2.4202,-2.4202,-2.4202,-2.4202,-2.4202,-2.4202,-2.4202,-2.4202,-2.4202,-2.4202,-2.4202,-2.4202,-2.4202,-2.4202,-2.4202,-2.4202,-2.4202,-2.4202,-2.4202,-2.4202,-2.4202,-2.4202,-2.4202,-2.4202,-2.4202,-2.4202,-2.4202,-2.4202,-2.4202,-2.4202,-2.4202,-2.3529,-2.2904,-2.2904,-2.2254,-2.1696,-2.1696,-2.1696,-2.1696,-2.1696,-2.1696,-2.1696,-2.1696,-2.1696,-2.1696,-2.1696,-2.1696,-2.1696,-2.1696,-2.1696,-2.1696,-2.1696,-2.1696,-2.1696,-2.1696,-2.1696,-2.1696,-2.1696,-2.1696,-2.1696,-2.1696,-2.1696,-2.1696,-2.1696,-2.1696,-2.1696,-2.1696,-2.1696,-2.2122,-2.2799,-2.3008,-2.3477,-2.4147,-2.4361,-2.4532,-2.4745,-2.4702,-2.483,-2.5083,-2.483,-2.5052,-2.54,-3.4775,-3.4775,-3.4775,-3.4775,-3.4775,-3.4775,-3.4775,-3.4775,-3.4775,-3.4775,-3.4775,-3.4775,-3.4775,-3.4775,-3.4775,-3.4775,-3.4775,-3.464,-3.4261,-3.3633,-3.3124,-3.2684,-3.1993,-3.1902,-3.2482,-3.1381,-3.0805,-3.0805,-2.8629,-2.7124,-2.6247,-2.5256,-2.4606,-2.4202,-2.4202,-2.4202,-2.4202,-2.4202,-2.4202,-2.4202,-2.4202,-2.4202,-2.4202,-2.4202,-2.4202,-2.4202,-2.4202,-2.4202,-2.4202,-2.4202,-2.4202,-2.4202,-2.4202,-2.4202,-2.4202,-2.4202,-2.4202,-2.4202,-2.4202,-2.4202,-2.4202,-2.4202,-2.4202,-2.4202,-2.4202,-2.3529,-2.2904,-2.2904,-2.2254,-2.1553,-2.1132,-2.141,-2.1553,-2.1087,-2.1419,-2.1696,-2.1696,-2.1696,-2.1696,-2.1696,-2.1696,-2.1696,-2.1696,-2.1696,-2.1696,-2.1696,-2.1696,-2.1696,-2.1696,-2.1696,-2.1696,-2.1696,-2.1696,-2.1696,-2.1696,-2.1696,-2.1696,-2.1696,-2.2157,-2.2378,-2.2369,-2.2809,-2.3357,-2.3943,-2.4382,-2.4713,-2.4999,-2.542,-2.5714,-2.588,-2.5808,-2.6141,-2.6648,-2.6099,-2.5808,-2.5735,-3.4799,-3.4775,-3.4775,-3.4775,-3.4775,-3.4775,-3.4775,-3.4775,-3.4775,-3.4775,-3.4775,-3.4775,-3.4775,-3.4775,-3.4775,-3.4775,-3.4775,-3.4677,-3.4396,-3.3312,-3.2476,-3.1971,-3.1728,-3.1524,-3.1319,-3.0172,-2.9702,-2.9922,-2.8249,-2.6741,-2.5362,-2.5032,-2.467,-2.4202,-2.4202,-2.4202,-2.4202,-2.4202,-2.4202,-2.4202,-2.4202,-2.4202,-2.4202,-2.4202,-2.4202,-2.4202,-2.4202,-2.4202,-2.4202,-2.4202,-2.4202,-2.4202,-2.4202,-2.4202,-2.4202,-2.4202,-2.4202,-2.4202,-2.4202,-2.4202,-2.4202,-2.4202,-2.4202,-2.4202,-2.4202,-2.3584,-2.2986,-2.2922,-2.2309,-2.1491,-2.0492,-2.1087,-2.141,-2.0439,-2.1087,-2.1696,-2.1696,-2.1696,-2.1696,-2.1696,-2.1696,-2.1696,-2.1696,-2.1696,-2.1696,-2.1696,-2.1696,-2.1696,-2.1696,-2.1696,-2.1696,-2.1696,-2.1696,-2.1696,-2.1696,-2.1696,-2.1776,-2.1945,-2.2887,-2.327,-2.3139,-2.4059,-2.4691,-2.5094,-2.5883,-2.5997,-2.5672,-2.6483,-2.6894,-2.7069,-2.6894,-2.7539,-2.8379,-2.7447,-2.6741,-2.637,-3.4871,-3.4775,-3.4775,-3.4775,-3.4775,-3.4775,-3.4775,-3.4775,-3.4775,-3.4775,-3.4775,-3.4775,-3.4775,-3.4775,-3.4775,-3.4775,-3.4775,-3.4592,-3.4162,-3.3965,-3.3235,-3.1728,-3.1626,-3.1165,-3.013,-2.9019,-2.8913,-2.9922,-2.7785,-2.6275,-2.5424,-2.5317,-2.4937,-2.4202,-2.4202,-2.4202,-2.4202,-2.4202,-2.4202,-2.4202,-2.4202,-2.4202,-2.4202,-2.4202,-2.4202,-2.4202,-2.4202,-2.4202,-2.4202,-2.4202,-2.4202,-2.4202,-2.4202,-2.4202,-2.4202,-2.4202,-2.4202,-2.4202,-2.4202,-2.4202,-2.4202,-2.4202,-2.4202,-2.4202,-2.4202,-2.3794,-2.3316,-2.2977,-2.2529,-2.1816,-2.0544,-2.1087,-2.141,-2.0439,-2.1087,-2.1696,-2.1696,-2.1696,-2.1696,-2.1696,-2.1696,-2.1696,-2.1696,-2.1696,-2.1696,-2.1696,-2.1696,-2.1696,-2.1696,-2.1696,-2.1696,-2.1696,-2.1696,-2.1696,-2.1696,-2.1696,-2.2122,-2.2931,-2.3844,-2.3887,-2.3139,-2.4059,-2.5041,-2.6008,-2.6144,-2.6805,-2.7794,-2.7914,-2.8087,-2.8259,-2.8259,-2.8339,-2.8471,-2.8339,-2.8219,-2.8127,-3.4931,-3.4775,-3.4775,-3.4775,-3.4775,-3.4775,-3.4775,-3.4775,-3.4775,-3.4775,-3.4775,-3.4775,-3.4775,-3.4775,-3.4775,-3.4775,-3.4775,-3.464,-3.4298,-3.2951,-3.1819,-3.0897,-3.011,-2.9744,-2.9922,-2.8754,-2.8754,-2.9922,-2.7682,-2.6169,-2.5424,-2.5424,-2.4992,-2.4202,-2.4202,-2.4202,-2.4202,-2.4202,-2.4202,-2.4202,-2.4202,-2.4202,-2.4229,-2.4468,-2.456,-2.456,-2.456,-2.4404,-2.4202,-2.4202,-2.4202,-2.4202,-2.4202,-2.4202,-2.4202,-2.4202,-2.4202,-2.4202,-2.4202,-2.3746,-2.3238,-2.3238,-2.3238,-2.3238,-2.3238,-2.3552,-2.3703,-2.3041,-2.2574,-2.1871,-2.0553,-2.1087,-2.141,-2.0439,-2.1087,-2.1696,-2.1696,-2.1696,-2.1696,-2.1696,-2.1696,-2.1696,-2.1696,-2.1696,-2.1696,-2.1696,-2.1696,-2.1696,-2.1696,-2.1696,-2.1696,-2.1696,-2.1696,-2.1696,-2.1696,-2.1696,-2.1909,-2.2334,-2.328,-2.4049,-2.4628,-2.5589,-2.6362,-2.694,-2.7074,-2.7534,-2.8219,-2.8299,-2.8431,-2.851,-2.851,-2.851,-2.851,-2.851,-2.851,-2.851]},{"header":{"parameterUnit":"m.s-1","parameterCategory":1,"la1":30.6,"la2":28.766,"lo1":-90.7593,"lo2":-88.6598,"dx":0.0162,"dy":0.0183,"nx":116,"ny":114,"refTime":"2022-12-27T06:00:00:Z","depth":0,"parameterNumber":3,"parameterNumberName":"V-component_of_WINDS"},"data":[0.0,0.0,0.0,0.0,0.0,0.0,0.0,0.0,0.0,0.0,0.0,0.0,0.0,0.0,0.0,0.0,0.0,0.0,0.0,0.0,0.0,0.0,0.0,0.0,0.0,0.0,0.0,0.0,0.0,0.0,0.0,0.0,0.0,0.0,0.0,0.0,0.0,0.0,0.0,0.0,0.0,0.0,0.0,0.0,0.0,0.0,0.0,0.0,0.0,0.0,0.0,0.0,0.0,0.0,0.0,0.0,0.0,0.0,0.0,0.0,0.0,0.0,0.0,0.0,0.0,0.0,0.0,0.0,0.0,0.0,0.0,0.0,0.0,0.0,0.0,0.0,0.0,0.0,0.0,0.0,0.0,0.0,0.0,0.0,0.0,0.0,0.0,0.0,0.0,0.0,0.0,0.0,0.0,0.0,0.0,0.0,0.0,0.0,0.0,0.0,0.0,0.0,0.0,0.0,0.0,0.0,0.0,0.0,0.0,0.0,0.0,0.0,0.0,0.0,0.0,0.0,0.0,0.0,0.0,0.0,0.0,0.0,0.0,0.0,0.0,0.0,0.0,0.0,0.0,0.0,0.0,0.0,0.0,0.0,0.0,0.0,0.0,0.0,0.0,0.0,0.0,0.0,0.0,0.0,0.0,0.0,0.0,0.0,0.0,0.0,0.0,0.0,0.0,0.0,0.0,0.0,0.0,0.0,0.0,0.0,0.0,0.0,0.0,0.0,0.0,0.0,0.0,0.0,0.0,0.0,0.0,0.0,0.0,0.0,0.0,0.0,0.0,0.0,0.0,0.0,0.0,0.0,0.0,0.0,0.0,0.0,0.0,0.0,0.0,0.0,0.0,0.0,0.0,0.0,0.0,0.0,0.0,0.0,0.0,0.0,0.0,0.0,0.0,0.0,0.0,0.0,0.0,0.0,0.0,0.0,0.0,0.0,0.0,0.0,0.0,0.0,0.0,0.0,0.0,0.0,0.0,0.0,0.0,0.0,0.0,0.0,0.0,0.0,0.0,0.0,0.0,0.0,0.0,0.0,0.0,0.0,0.0,0.0,0.0,0.0,0.0,0.0,0.0,0.0,0.0,0.0,0.0,0.0,0.0,0.0,0.0,0.0,0.0,0.0,0.0,0.0,0.0,0.0,0.0,0.0,0.0,0.0,0.0,0.0,0.0,0.0,0.0,0.0,0.0,0.0,0.0,0.0,0.0,0.0,0.0,0.0,0.0,0.0,0.0,0.0,0.0,0.0,0.0,0.0,0.0,0.0,0.0,0.0,0.0,0.0,0.0,0.0,0.0,0.0,0.0,0.0,0.0,0.0,0.0,0.0,0.0,0.0,0.0,0.0,0.0,0.0,0.0,0.0,0.0,0.0,0.0,0.0,0.0,0.0,0.0,0.0,0.0,0.0,0.0,0.0,0.0,0.0,0.0,0.0,0.0,0.0,0.0,0.0,0.0,0.0,0.0,0.0,0.0,0.0,0.0,0.0,0.0,0.0,0.0,0.0,0.0,0.0,0.0,0.0,0.0,0.0,0.0,0.0,0.0,0.0,0.0,0.0,0.0,0.0,0.0,0.0,0.0,0.0,0.0,0.0,0.0,0.0,0.0,0.0,0.0,0.0,0.0,0.0,0.0,0.0,0.0,0.0,0.0,0.0,0.0,0.0,0.0,0.0,0.0,0.0,0.0,0.0,0.0,0.0,0.0,0.0,0.0,0.0,0.0,0.0,0.0,0.0,0.0,0.0,0.0,0.0,0.0,0.0,0.0,0.0,0.0,0.0,0.0,0.0,0.0,0.0,0.0,0.0,0.0,0.0,0.0,0.0,0.0,0.0,0.0,0.0,0.0,0.0,0.0,0.0,0.0,0.0,0.0,0.0,0.0,0.0,0.0,0.0,0.0,0.0,0.0,0.0,0.0,0.0,0.0,0.0,0.0,0.0,0.0,0.0,0.0,0.0,0.0,0.0,0.0,0.0,0.0,0.0,0.0,0.0,0.0,0.0,0.0,0.0,0.0,0.0,0.0,0.0,0.0,0.0,0.0,0.0,0.0,0.0,0.0,0.0,0.0,0.0,0.0,0.0,0.0,0.0,0.0,0.0,0.0,0.0,0.0,0.0,0.0,0.0,0.0,0.0,0.0,0.0,0.0,0.0,0.0,0.0,0.0,0.0,0.0,0.0,0.0,0.0,0.0,0.0,0.0,0.0,0.0,0.0,0.0,0.0,0.0,0.0,0.0,0.0,0.0,0.0,0.0,0.0,0.0,0.0,0.0,0.0,0.0,0.0,0.0,0.0,0.0,0.0,0.0,0.0,0.0,0.0,0.0,0.0,0.0,0.0,0.0,0.0,0.0,0.0,0.0,0.0,0.0,0.0,0.0,0.0,0.0,0.0,0.0,0.0,0.0,0.0,0.0,0.0,0.0,0.0,0.0,0.0,0.0,0.0,0.0,0.0,0.0,0.0,0.0,0.0,0.0,0.0,0.0,0.0,0.0,0.0,0.0,0.0,0.0,0.0,0.0,0.0,0.0,0.0,0.0,0.0,0.0,0.0,0.0,0.0,0.0,0.0,0.0,0.0,0.0,0.0,0.0,0.0,0.0,0.0,0.0,0.0,0.0,0.0,0.0,0.0,0.0,0.0,0.0,0.0,0.0,0.0,0.0,0.0,0.0,0.0,0.0,0.0,0.0,0.0,0.0,0.0,0.0,0.0,0.0,0.0,0.0,0.0,0.0,0.0,0.0,0.0,0.0,0.0,0.0,0.0,0.0,0.0,0.0,0.0,0.0,0.0,0.0,0.0,0.0,0.0,0.0,0.0,0.0,0.0,0.0,0.0,0.0,0.0,0.0,0.0,0.0,0.0,0.0,0.0,0.0,0.0,0.0,0.0,0.0,0.0,0.0,0.0,0.0,0.0,0.0,0.0,0.0,0.0,0.0,0.0,0.0,0.0,0.0,0.0,0.0,0.0,0.0,0.0,0.0,0.0,0.0,0.0,0.0,0.0,0.0,0.0,0.0,0.0,0.0,0.0,0.0,0.0,0.0,0.0,0.0,0.0,0.0,0.0,0.0,0.0,0.0,0.0,0.0,0.0,0.0,0.0,0.0,0.0,0.0,0.0,0.0,0.0,0.0,0.0,0.0,0.0,0.0,0.0,0.0,0.0,0.0,0.0,0.0,0.0,0.0,0.0,0.0,0.0,0.0,0.0,0.0,0.0,0.0,0.0,0.0,0.0,0.0,0.0,0.0,0.0,0.0,0.0,0.0,0.0,0.0,0.0,0.0,0.0,0.0,0.0,0.0,0.0,0.0,0.0,0.0,0.0,0.0,0.0,0.0,0.0,0.0,0.0,0.0,0.0,0.0,0.0,0.0,0.0,0.0,0.0,0.0,0.0,0.0,0.0,0.0,0.0,0.0,0.0,0.0,0.0,0.0,0.0,0.0,0.0,0.0,0.0,0.0,0.0,0.0,0.0,0.0,0.0,0.0,0.0,0.0,0.0,0.0,0.0,0.0,0.0,0.0,0.0,0.0,0.0,0.0,0.0,0.0,0.0,0.0,0.0,0.0,0.0,0.0,0.0,0.0,0.0,0.0,0.0,0.0,0.0,0.0,0.0,0.0,0.0,0.0,0.0,0.0,0.0,0.0,0.0,0.0,0.0,0.0,0.0,0.0,0.0,0.0,0.0,0.0,0.0,0.0,0.0,0.0,0.0,0.0,0.0,0.0,0.0,0.0,0.0,0.0,0.0,0.0,0.0,0.0,0.0,0.0,0.0,0.0,0.0,0.0,0.0,0.0,0.0,0.0,0.0,0.0,0.0,0.0,0.0,0.0,0.0,0.0,0.0,0.0,0.0,0.0,0.0,0.0,0.0,0.0,0.0,0.0,0.0,0.0,0.0,0.0,0.0,0.0,0.0,0.0,0.0,0.0,0.0,0.0,0.0,0.0,0.0,0.0,0.0,0.0,0.0,0.0,0.0,0.0,0.0,0.0,0.0,0.0,0.0,0.0,0.0,0.0,0.0,0.0,0.0,0.0,0.0,0.0,0.0,0.0,0.0,0.0,0.0,0.0,0.0,0.0,0.0,0.0,0.0,0.0,0.0,0.0,0.0,0.0,0.0,0.0,0.0,0.0,0.0,0.0,0.0,0.0,0.0,0.0,0.0,0.0,0.0,0.0,0.0,0.0,0.0,0.0,0.0,0.0,0.0,0.0,0.0,0.0,0.0,0.0,0.0,0.0,0.0,0.0,0.0,0.0,0.0,0.0,0.0,0.0,0.0,0.0,0.0,0.0,0.0,0.0,0.0,0.0,0.0,0.0,0.0,0.0,0.0,0.0,0.0,0.0,0.0,0.0,0.0,0.0,0.0,0.0,0.0,0.0,0.0,0.0,0.0,0.0,0.0,0.0,0.0,0.0,0.0,0.0,0.0,0.0,0.0,0.0,0.0,0.0,0.0,0.0,0.0,0.0,0.0,0.0,0.0,0.0,0.0,0.0,0.0,0.0,0.0,0.0,0.0,0.0,0.0,0.0,0.0,0.0,0.0,0.0,0.0,0.0,0.0,0.0,0.0,0.0,0.0,0.0,0.0,0.0,0.0,0.0,0.0,0.0,0.0,0.0,0.0,0.0,0.0,0.0,0.0,0.0,0.0,0.0,0.0,0.0,0.0,0.0,0.0,0.0,0.0,0.0,0.0,0.0,0.0,0.0,0.0,0.0,0.0,0.0,0.0,0.0,0.0,0.0,0.0,0.0,0.0,0.0,0.0,0.0,0.0,0.0,0.0,0.0,0.0,0.0,0.0,0.0,0.0,0.0,0.0,0.0,0.0,0.0,0.0,0.0,0.0,0.0,0.0,0.0,0.0,0.0,0.0,0.0,0.0,0.0,0.0,0.0,0.0,0.0,0.0,0.0,0.0,0.0,0.0,0.0,0.0,0.0,0.0,0.0,0.0,0.0,0.0,0.0,0.0,0.0,0.0,0.0,0.0,0.0,0.0,0.0,0.0,0.0,0.0,0.0,0.0,0.0,0.0,0.0,0.0,0.0,0.0,0.0,0.0,0.0,0.0,0.0,0.0,0.0,0.0,0.0,0.0,0.0,0.0,0.0,0.0,0.0,0.0,0.0,0.0,0.0,0.0,0.0,0.0,0.0,0.0,0.0,0.0,0.0,0.0,0.0,0.0,0.0,0.0,0.0,0.0,0.0,0.0,0.0,0.0,0.0,0.0,0.0,0.0,0.0,0.0,0.0,0.0,0.0,0.0,0.0,0.0,0.0,0.0,0.0,0.0,0.0,0.0,0.0,0.0,0.0,0.0,0.0,0.0,0.0,0.0,0.0,0.0,0.0,0.0,0.0,0.0,0.0,0.0,0.0,0.0,0.0,0.0,0.0,0.0,0.0,0.0,0.0,0.0,0.0,0.0,0.0,0.0,0.0,0.0,0.0,0.0,0.0,0.0,0.0,0.0,0.0,0.0,0.0,0.0,0.0,0.0,0.0,0.0,0.0,0.0,0.0,0.0,0.0,0.0,0.0,0.0,0.0,0.0,0.0,0.0,0.0,0.0,0.0,0.0,0.0,0.0,0.0,0.0,0.0,0.0,0.0,0.0,0.0,0.0,0.0,0.0,0.0,0.0,0.0,0.0,0.0,0.0,0.0,0.0,0.0,0.0,0.0,0.0,0.0,0.0,0.0,0.0,0.0,0.0,0.0,0.0,0.0,0.0,0.0,0.0,0.0,0.0,0.0,0.0,0.0,0.0,0.0,0.0,0.0,0.0,0.0,0.0,0.0,0.0,0.0,0.0,0.0,0.0,0.0,0.0,0.0,0.0,0.0,0.0,0.0,0.0,0.0,0.0,0.0,0.0,0.0,0.0,0.0,0.0,0.0,0.0,0.0,0.0,0.0,0.0,0.0,0.0,0.0,0.0,0.0,0.0,0.0,0.0,0.0,0.0,0.0,0.0,0.0,0.0,0.0,0.0,0.0,0.0,0.0,0.0,0.0,0.0,0.0,0.0,0.0,0.0,0.0,0.0,0.0,0.0,0.0,0.0,0.0,0.0,0.0,0.0,0.0,0.0,0.0,0.0,0.0,0.0,0.0,0.0,0.0,0.0,1.406,1.1749,0.0,0.0,0.0,0.0,0.0,0.0,0.0,0.0,0.0,0.0,0.0,0.0,0.0,0.0,0.0,0.0,0.0,0.0,0.0,0.0,0.0,0.0,0.0,0.0,0.0,0.0,0.0,0.0,0.0,0.0,0.0,0.0,0.0,0.0,0.0,0.0,0.0,0.0,1.2234,1.3189,1.4454,1.2762,1.1476,1.0556,0.0,0.0,0.0,0.0,0.0,0.0,0.0,0.0,0.0,0.0,0.0,0.0,0.0,0.0,0.0,0.0,0.0,0.0,0.0,0.0,0.0,0.0,0.0,0.0,0.0,0.0,0.0,0.0,0.0,0.0,0.0,0.0,0.0,0.0,0.0,0.0,0.0,0.0,0.0,0.0,0.0,0.0,0.0,0.0,0.0,0.0,0.0,0.0,0.0,0.0,0.0,0.0,0.0,0.0,0.0,0.0,0.0,0.0,0.0,0.0,0.0,0.0,0.0,0.0,0.0,0.0,0.0,0.0,0.0,0.0,1.6434,1.4925,0.0,0.0,0.0,0.0,0.0,0.0,0.0,0.0,0.0,0.0,0.0,0.0,0.0,0.0,0.0,0.0,0.0,0.0,0.0,0.0,0.0,0.0,0.0,0.0,0.8913,0.9347,0.9313,0.9685,0.0,0.0,0.0,0.0,0.0,0.0,0.0,0.0,0.0,0.0,0.0,1.5305,1.6467,1.6079,1.5292,0.0,0.0,0.0,0.0,0.0,0.0,0.0,0.0,0.0,0.0,0.0,0.0,0.0,0.0,0.0,0.0,0.0,0.0,0.0,0.0,0.0,0.0,0.0,0.0,0.0,0.0,0.0,0.0,0.0,0.0,0.0,0.0,0.0,0.0,0.0,0.0,0.0,0.0,0.0,0.0,0.0,0.0,0.0,0.0,0.0,0.0,0.0,0.0,0.0,0.0,0.0,0.0,0.0,0.0,0.0,0.0,0.0,0.0,0.0,0.0,0.0,0.0,0.0,0.0,0.0,1.8459,1.8512,1.7676,1.831,1.8845,1.9285,1.8903,1.8436,1.7802,1.5842,0.0,0.0,0.0,0.0,0.0,0.0,0.0,0.0,0.0,0.0,0.0,0.0,0.0,0.0,0.0,0.0,0.0,0.0,0.0,0.0,0.0,0.9868,1.0458,1.1251,1.1166,1.1452,0.0,0.0,0.0,0.0,0.0,0.0,0.0,0.0,0.0,0.0,0.0,1.8053,1.8348,1.829,1.8019,1.7497,1.5673,0.0,0.0,0.0,0.0,0.0,0.0,0.0,0.0,0.0,0.0,0.0,0.0,0.0,0.0,0.0,0.0,0.0,0.0,0.0,0.0,0.0,0.0,0.0,0.0,0.0,0.0,0.0,0.0,0.0,0.0,0.0,0.0,0.0,0.0,0.0,0.0,0.0,0.0,0.0,0.0,0.0,0.0,0.0,1.6606,1.6951,0.0,0.0,0.0,0.0,0.0,0.0,0.0,0.0,0.0,0.0,0.0,0.0,0.0,1.8707,1.8627,1.9564,1.9831,1.9339,2.0654,2.1186,2.1054,2.1451,2.1666,2.1737,2.1682,0.0,1.8912,1.7921,0.0,0.0,0.0,0.0,0.0,0.0,0.0,0.0,0.0,0.0,0.0,0.0,0.0,0.0,0.0,0.0,0.0,0.0,0.0,0.0,0.0,1.1798,1.2495,1.3117,1.3561,1.4029,1.4568,0.0,0.0,0.0,0.0,0.0,0.0,0.0,0.0,0.0,1.8533,1.9344,1.9942,1.962,1.9565,1.9659,1.8491,1.7185,1.5762,1.5216,0.0,0.0,0.0,0.0,0.0,0.0,0.0,0.0,0.0,0.0,0.0,0.0,0.0,0.0,0.0,0.0,0.0,0.0,0.0,0.0,0.0,0.0,0.0,0.0,0.0,0.0,0.0,0.0,0.0,0.0,0.0,0.0,0.0,0.0,0.0,0.0,0.0,0.0,0.0,1.7841,1.7897,1.8436,1.8615,1.8653,0.0,0.0,0.0,0.0,0.0,0.0,0.0,0.0,0.0,2.0849,2.1159,2.1377,2.1534,2.1957,2.1846,2.1213,2.2066,2.2094,2.1443,2.2025,2.2304,2.2316,2.2512,2.2078,2.1183,2.0074,1.9265,1.8617,0.0,0.0,0.0,0.0,1.6126,1.6568,0.0,0.0,0.0,0.0,0.0,0.0,0.0,0.0,0.0,0.0,0.0,0.0,1.2551,1.3576,1.438,1.4885,1.565,1.6118,1.6137,1.6086,0.0,0.0,0.0,0.0,0.0,0.0,0.0,0.0,1.9927,2.0456,2.1173,2.062,2.0587,2.0919,2.0369,1.902,1.7185,1.694,1.6357,0.0,0.0,0.0,0.0,0.0,0.0,0.0,0.0,0.0,0.0,0.0,0.0,0.0,0.0,0.0,0.0,0.0,0.0,0.0,0.0,0.0,0.0,0.0,0.0,0.0,0.0,0.0,0.0,0.0,0.0,0.0,0.0,0.0,0.0,0.0,0.0,0.0,0.0,1.9373,1.9463,1.9676,2.031,2.0546,0.0,0.0,0.0,0.0,0.0,0.0,2.2206,2.2543,2.2725,2.2707,2.3058,2.3357,2.3607,2.3607,2.331,2.2707,2.3058,2.2725,2.1827,2.2433,2.2707,2.2707,2.2975,2.3078,2.2975,2.1865,2.129,2.0962,1.9695,1.9173,1.9055,1.8442,1.8563,1.9072,0.0,0.0,0.0,0.0,0.0,0.0,0.0,0.0,0.0,0.0,0.0,1.2867,1.3881,1.4908,1.5794,1.6511,1.6972,1.7004,1.6504,1.6945,1.7279,0.0,0.0,0.0,0.0,0.0,0.0,2.2115,2.2003,2.1997,2.2025,2.1356,2.1051,2.1074,2.0399,2.0042,1.9846,1.8945,1.8312,1.7807,0.0,0.0,0.0,0.0,0.0,0.0,0.0,0.0,0.0,0.0,0.0,0.0,0.0,0.0,0.0,0.0,0.0,0.0,0.0,0.0,0.0,0.0,0.0,0.0,0.0,0.0,0.0,0.0,0.0,0.0,0.0,0.0,0.0,0.0,0.0,0.0,0.0,0.0,0.0,2.0623,2.1973,0.0,0.0,0.0,0.0,2.2531,2.2561,2.2725,2.3027,2.3058,2.3207,2.3518,2.3577,2.3577,2.3607,2.3607,2.3577,2.3547,2.3577,2.3547,2.3488,2.3518,2.3547,2.3547,2.3547,2.3547,2.3518,2.3017,2.231,2.1569,2.1463,2.1272,2.1131,2.1784,2.2177,2.2493,0.0,0.0,0.0,0.5668,0.624,0.7021,0.8071,0.9321,1.0556,1.161,1.2816,1.4009,1.5192,1.6438,1.7432,1.7946,1.8661,1.9089,1.9001,1.9542,1.9927,0.0,0.0,0.0,0.0,0.0,2.2764,2.3252,2.322,2.3019,2.2674,2.242,2.1893,2.1092,2.0848,2.0518,2.0074,1.9727,1.918,1.8459,1.7947,1.7234,0.0,0.0,0.0,0.0,0.0,0.0,0.0,0.0,0.0,0.0,0.0,0.0,0.0,0.0,0.0,0.0,0.0,0.0,0.0,0.0,0.0,0.0,0.0,0.0,0.0,0.0,0.0,0.0,0.0,0.0,0.0,0.0,0.0,0.0,0.0,0.0,0.0,2.199,2.2864,0.0,2.2421,2.2955,2.3374,2.3374,2.4196,2.4455,2.3884,2.4518,2.4645,2.406,2.435,2.4494,2.4494,2.4494,2.435,2.4047,2.435,2.4176,2.3607,2.3901,2.4047,2.4047,2.4047,2.4047,2.4031,2.3884,2.3458,2.2882,2.2882,2.2839,2.2784,2.305,2.3301,2.3555,0.0,0.0,0.0,0.6004,0.683,0.7792,0.8959,1.025,1.1529,1.2808,1.4011,1.5233,1.6564,1.7786,1.8808,1.9454,2.0076,2.0518,2.0724,2.1448,2.1932,0.0,0.0,0.0,0.0,2.4258,2.4258,2.478,2.4561,2.4201,2.366,2.344,2.2788,2.1772,2.1313,2.0848,2.0421,2.0205,1.9727,1.9148,1.8988,1.849,1.7821,0.0,0.0,0.0,0.0,0.0,0.0,0.0,0.0,0.0,0.0,0.0,0.0,0.0,0.0,0.0,0.0,0.0,0.0,0.0,0.0,0.0,0.0,0.0,0.0,0.0,0.0,0.0,0.0,0.0,0.0,0.0,0.0,0.0,0.0,2.3117,2.3739,2.2707,2.3731,2.4203,2.3382,2.4236,2.4813,2.4813,2.5673,2.5875,2.5178,2.5835,2.5875,2.5178,2.5441,2.5615,2.5615,2.5615,2.5457,2.5165,2.547,2.5282,2.4665,2.4792,2.4845,2.4845,2.4616,2.4536,2.4551,2.4781,2.461,2.4205,2.393,2.393,2.4089,2.4089,2.4263,2.4509,0.0,0.0,0.5626,0.6052,0.7282,0.8571,0.966,1.1051,1.2508,1.3948,1.5222,1.6567,1.7982,1.8897,1.9868,2.0994,2.1115,2.1241,2.1481,2.2503,2.3161,0.0,0.0,0.0,2.6719,2.6164,2.6151,2.6758,2.6177,2.5615,2.507,2.4402,2.3777,2.3108,2.1788,2.119,2.1126,2.0443,2.0161,2.0118,1.9637,1.9693,2.0009,0.0,0.0,0.0,0.0,0.0,0.0,0.0,0.0,0.0,0.0,0.0,0.0,0.0,0.0,0.0,0.0,0.0,0.0,0.0,0.0,0.0,0.0,0.0,0.0,0.0,0.0,0.0,0.0,0.0,0.0,0.0,0.0,0.0,2.296,2.3882,2.4248,2.286,2.4599,2.5606,2.4819,2.6005,2.682,2.682,2.6847,2.6874,2.6847,2.686,2.686,2.682,2.682,2.682,2.682,2.6837,2.6837,2.685,2.6853,2.6853,2.6826,2.6244,2.6002,2.5961,2.5361,2.5102,2.5131,2.5797,2.5865,2.5453,2.4679,2.4637,2.5061,2.5061,2.5244,2.5578,0.5421,0.5266,0.5398,0.668,0.754,0.8622,1.0346,1.1262,1.2576,1.475,1.5644,1.683,1.8842,1.9553,2.0245,2.1028,2.1489,2.2174,2.3213,2.4327,0.0,0.0,0.0,0.0,2.7288,2.7111,2.734,2.7949,2.7758,2.7379,2.6798,2.6622,2.5743,2.4299,2.3951,2.3296,2.2416,2.1772,2.1402,2.1259,2.028,1.9998,2.0085,0.0,0.0,0.0,0.0,0.0,0.0,0.0,0.0,0.0,0.0,0.0,0.0,0.0,0.0,0.0,0.0,0.0,0.0,0.0,0.0,0.0,0.0,0.0,0.0,0.0,0.0,0.0,0.0,0.0,0.0,0.0,2.6065,2.6259,2.4384,2.5323,2.5932,2.5097,2.5904,2.6475,2.625,2.6985,2.7461,2.7461,2.8261,2.856,2.8125,2.8519,2.8356,2.7488,2.7461,2.7461,2.7461,2.7497,2.7752,2.8184,2.818,2.8169,2.8169,2.8011,2.7967,2.8065,2.7893,2.7616,2.7265,2.7453,2.719,2.6599,2.6108,2.596,2.6082,2.6082,2.627,2.6602,0.547,0.5332,0.5504,0.6851,0.7687,0.8747,1.0463,1.1402,1.281,1.5346,1.6092,1.7198,1.9444,1.9943,2.0474,2.1439,2.2066,2.2983,2.4325,2.548,0.0,0.0,0.0,2.749,2.749,2.7771,2.8046,2.842,2.8669,2.8333,2.749,2.749,2.6667,2.5205,2.4925,2.4429,2.3727,2.3025,2.2533,2.2112,2.1452,2.0875,2.0445,2.0445,2.05,2.0555,2.0478,2.05,2.061,2.0808,0.0,0.0,0.0,0.0,0.0,0.0,0.0,0.0,0.0,0.0,0.0,0.0,0.0,0.0,0.0,0.0,0.0,0.0,0.0,0.0,0.0,0.0,0.0,0.0,2.7683,2.7908,2.6874,2.7408,2.7705,2.7094,2.7556,2.7936,2.7936,2.8478,2.8845,2.8845,2.9767,3.0185,2.984,3.0425,3.0447,2.9719,2.9705,2.9705,2.9705,2.9742,2.9797,2.9883,2.9943,2.9784,2.9435,2.9301,2.9254,2.9253,2.9085,2.8843,2.8595,2.9078,2.8815,2.8055,0.0,0.0,0.0,0.0,2.7004,2.7236,0.5617,0.5577,0.5806,0.6731,0.7702,0.8809,1.0196,1.1369,1.3048,1.5699,1.6389,1.7509,1.9835,2.0118,2.0603,2.1896,2.2666,2.3702,2.5188,0.0,0.0,2.7477,2.749,2.749,2.749,2.8085,2.8446,2.8512,2.9114,2.8817,2.7686,2.7686,2.7085,2.5976,2.5352,2.5076,2.4981,2.432,2.3606,2.2912,2.2888,2.2105,2.0982,2.1036,2.0762,2.0423,2.1027,2.0951,2.0754,2.1951,0.0,0.0,0.0,0.0,0.0,0.0,0.0,0.0,0.0,0.0,0.0,0.0,0.0,0.0,0.0,0.0,0.0,0.0,0.0,0.0,0.0,0.0,0.0,0.0,2.949,2.9706,2.9706,2.9827,2.9596,2.8809,2.931,2.9744,2.9744,3.0337,3.0726,3.0726,3.1411,3.1806,3.1806,3.2385,0.0,0.0,0.0,3.2591,3.2591,3.2613,3.2368,3.1857,3.191,3.1573,3.0866,3.051,3.0256,3.0156,2.9786,2.9651,2.9723,3.0713,3.0672,2.9776,2.812,2.7403,2.7394,2.771,2.7784,2.775,0.5947,0.5743,0.5844,0.6678,0.7522,0.8467,0.96,1.0755,1.2506,1.5405,1.6017,1.7214,1.9803,2.0118,2.0421,2.1219,2.2733,2.4599,0.0,0.0,2.7372,2.749,2.749,2.749,2.749,2.8085,2.8656,2.914,2.9693,2.9614,2.8935,2.8935,2.832,2.7163,2.7018,2.6791,2.6446,2.583,2.5091,2.4268,2.3969,2.2886,2.1529,2.1887,2.1974,2.2024,2.3097,2.3413,2.3451,2.4342,2.4417,2.415,2.4382,0.0,0.0,0.0,0.0,0.0,0.0,0.0,0.0,0.0,0.0,0.0,0.0,0.0,0.0,0.0,0.0,0.0,0.0,0.0,0.0,2.9141,3.0207,3.0934,3.0934,3.1826,3.1709,2.9582,3.0389,3.1095,3.1095,3.2146,3.2834,3.2834,3.3393,3.3749,3.3749,3.3883,3.3736,3.3227,3.3213,3.3213,3.3213,3.329,3.3542,3.3993,3.3527,0.0,3.3211,3.2604,3.2377,3.2458,3.2373,3.2311,3.2285,3.2506,3.2392,3.1922,3.0252,2.9273,2.8903,2.9641,2.947,2.8972,0.6162,0.5985,0.5975,0.6547,0.7229,0.8088,0.9266,1.0181,1.187,1.4957,1.5475,1.6533,1.914,1.9605,2.0282,2.1573,2.3877,0.0,0.0,2.749,2.749,2.749,2.749,2.749,2.749,2.8386,2.9009,2.931,3.0137,3.0124,2.931,2.931,2.866,2.749,2.7623,2.7532,2.7353,2.7138,2.6583,2.5781,2.5561,2.4709,2.3549,2.3478,2.3443,2.3547,2.4389,2.4707,2.4814,2.5569,2.5677,2.5558,2.5933,2.5879,2.564,0.0,0.0,0.0,0.0,0.0,0.0,0.0,0.0,0.0,0.0,0.0,0.0,0.0,0.0,2.8185,2.8185,0.0,3.0038,3.0684,3.1088,3.165,3.2646,3.3031,3.2737,3.1502,3.2266,3.2887,3.2887,3.3493,3.3833,3.3833,3.4471,3.4846,3.4846,3.519,3.525,3.4953,3.4938,3.4938,3.4938,3.4984,3.4866,3.4652,3.4691,3.4242,3.3408,3.3477,3.3487,3.3445,3.3266,3.3486,3.3891,3.3891,3.3776,3.351,3.2646,3.1739,3.0957,3.1037,3.0761,3.0413,0.6205,0.6191,0.6157,0.6432,0.6984,0.7802,0.8936,0.9695,1.1206,1.4197,1.4808,1.5814,1.8083,1.8946,2.0228,2.2397,0.0,0.0,0.0,2.7289,2.7289,2.7289,2.7423,2.749,2.749,2.8569,2.914,2.914,3.0137,3.016,2.9188,2.9188,2.8612,2.7636,2.7789,2.7888,2.7908,2.8066,2.7676,2.6955,2.7124,2.6603,2.5728,2.5357,2.5005,2.4792,2.5331,2.5523,2.5616,2.6393,2.6598,2.6735,2.7323,2.7523,2.7556,2.749,2.7523,0.0,0.0,0.0,0.0,0.0,0.0,0.0,0.0,2.8013,2.8527,2.8527,2.9158,2.9726,2.9845,3.0385,3.1185,3.2408,3.218,3.2451,3.4071,3.3891,3.363,3.363,3.4143,3.4514,3.4514,3.4647,3.4714,3.4714,3.5287,3.5608,3.5608,3.6179,3.6523,3.6554,3.6554,3.6554,3.6585,3.6585,3.6121,3.5183,3.5554,3.4966,3.3543,3.4011,3.4143,3.3986,3.3815,3.4202,3.4958,3.5052,3.4998,3.4831,3.4788,3.4204,3.3304,3.2412,3.1947,3.1662,0.6033,0.6216,0.6368,0.641,0.6962,0.7643,0.8388,0.9261,1.0638,1.286,1.4108,1.5373,1.6845,1.8319,2.0422,2.3364,0.0,0.0,2.6386,2.6517,2.6517,2.6517,2.7154,2.749,2.749,2.815,2.8512,2.8512,2.9179,2.9249,2.8792,2.8792,2.8503,2.8046,2.8046,2.8118,2.8254,2.8268,2.7848,2.7211,2.7881,2.7571,2.6773,2.7252,2.6519,2.5298,2.601,2.6277,2.638,2.7142,2.739,2.739,2.7456,2.7623,2.7723,2.7556,0.0,2.7743,2.7478,2.7749,2.8085,2.8155,2.8357,2.8541,0.0,2.8907,2.9374,2.9374,2.9876,3.0501,3.1179,3.1708,3.2365,3.3157,3.3681,3.4023,3.4264,3.478,3.5157,3.5157,3.5237,3.5287,3.5287,3.5879,3.6258,3.6258,3.632,3.6383,3.6383,3.646,3.6554,3.6662,3.6693,3.677,3.6938,3.6938,3.6936,3.6913,3.621,3.5824,3.5712,3.5021,3.4714,3.4697,3.5144,3.5413,3.5549,3.5963,3.6105,3.61,3.61,3.6006,3.5727,3.4335,3.3134,3.2256,0.573,0.5979,0.6119,0.5967,0.6551,0.7348,0.8248,0.8854,1.0015,1.2211,1.3235,1.4319,1.5756,1.8278,2.0526,2.2192,2.323,2.426,2.5289,2.562,2.5931,2.638,2.6701,2.704,2.749,2.8085,2.842,2.842,2.9079,2.9149,2.8686,2.8788,2.8504,2.7934,2.8118,2.8216,2.8197,2.8379,2.83,2.8026,2.8222,2.8026,2.7643,2.7868,2.7477,2.679,2.6973,2.7108,0.0,0.0,2.749,2.7523,2.7656,2.7723,2.7776,2.7689,2.7723,2.7822,2.7835,2.8099,2.8392,2.8444,2.8812,2.9135,2.9135,2.9577,3.0011,3.0011,3.05,3.115,3.1848,3.244,3.3212,3.4383,3.4405,3.4614,3.5464,3.5464,3.5576,3.5975,3.6038,3.6038,3.6038,3.632,3.6492,3.6492,3.6492,3.6492,3.6492,3.6492,3.6554,3.6693,3.6693,3.68,3.7015,3.7015,3.6817,3.6425,3.6411,3.6023,3.5341,3.5288,3.5115,3.4857,3.5661,3.5854,3.5655,3.6114,3.6301,3.6301,3.6301,3.6301,3.6163,3.5128,3.4424,3.3891,0.556,0.5754,0.5845,0.5724,0.6191,0.6909,0.7859,0.8412,0.9353,1.12,1.2172,1.3391,1.5232,1.777,1.9795,2.0934,2.2332,2.342,0.0,2.4397,2.4952,2.572,2.6161,0.0,2.7175,2.7827,2.8137,2.8137,2.8685,2.8776,2.8469,2.8618,2.8399,2.7941,2.8235,2.8249,2.8033,2.8262,2.8281,2.8151,2.7993,2.7973,2.8,2.7947,2.7934,2.7908,2.7656,2.7689,0.0,0.0,2.7633,2.7549,2.7874,2.7874,2.7776,2.7723,2.7861,2.8126,2.8504,2.894,2.9315,2.9393,2.9873,3.0316,3.0316,3.0648,3.0932,3.0932,3.1411,3.202,3.2724,3.3351,3.423,3.5497,3.527,3.5287,3.6352,3.6038,3.5911,3.6429,3.6492,3.6492,3.6492,3.6492,3.6492,3.6492,3.6492,3.6585,3.6754,3.6769,3.6892,3.7043,3.7222,3.7312,3.7359,3.7522,3.7345,3.681,3.6929,3.653,3.5628,3.5735,3.5594,3.526,3.5968,3.6114,3.5815,3.6156,3.6301,3.6301,3.6301,3.6385,3.6381,3.5739,3.537,3.5007,0.5596,0.5602,0.5687,0.5936,0.6003,0.6249,0.6944,0.7828,0.8661,0.9386,1.0902,1.2914,1.5511,1.6449,1.7821,2.0121,1.987,2.0473,2.2626,2.2775,2.3214,2.4146,2.5592,2.6414,2.6414,2.7167,2.7529,2.7529,2.7542,2.7662,2.7848,2.8027,2.8177,2.8287,2.8509,2.8281,2.7809,2.7809,2.751,2.704,2.704,2.7343,2.7789,2.759,2.7842,2.8222,2.7908,0.0,0.0,0.0,2.7981,2.7594,2.8211,2.8103,2.7756,2.7556,2.8063,2.8851,2.9632,3.0488,3.119,3.138,3.1917,3.2414,3.2414,3.2321,3.2238,3.2238,3.2729,3.3359,3.4114,3.4846,3.5561,3.6352,3.646,3.646,3.6492,3.6492,3.646,3.6492,3.6492,3.6492,3.6492,3.6492,3.6492,3.6492,3.6492,3.6754,3.7358,3.7504,3.7663,3.7857,3.8486,3.8652,3.825,3.8838,3.9119,3.9096,3.8195,3.7756,3.7672,3.6713,3.628,3.6259,3.6301,3.6301,3.628,3.6301,3.6301,3.6301,3.6301,3.6536,3.6821,3.6416,3.5801,3.5076,0.5827,0.5857,0.5888,0.5973,0.6149,0.6282,0.6321,0.729,0.8345,0.9291,1.086,0.0,0.0,0.0,0.0,0.0,1.8851,1.9615,2.0452,2.1442,2.2329,2.3156,2.4776,2.5896,2.638,2.7108,2.749,2.749,2.7623,2.7525,2.7208,2.7415,2.7267,2.6831,2.6914,2.6759,2.6455,2.6464,2.6377,2.6217,2.6368,2.6355,2.633,2.7074,2.731,2.7335,0.0,0.0,0.0,0.0,0.0,2.8171,2.8505,2.8552,2.8646,2.9564,3.0346,3.0998,3.1375,3.1758,3.208,3.215,3.2634,3.3114,3.3114,3.2997,3.3057,3.3522,3.3419,3.3561,3.4813,3.5222,3.564,3.6383,3.6492,3.6492,3.6492,3.6492,3.6492,3.6492,3.6492,3.6492,3.6492,3.6569,3.6631,3.6631,3.6631,3.6922,3.7488,3.7576,3.7851,3.8407,3.8734,3.8897,3.8892,3.9098,3.9142,3.9001,3.804,3.7317,3.6781,3.644,3.6301,3.6301,3.6301,3.6301,3.6301,3.6301,3.6301,3.6301,3.6301,3.6553,3.688,3.6759,3.6702,3.6543,0.6079,0.6038,0.6002,0.6091,0.6343,0.0,0.0,0.0,0.0,0.0,0.0,0.0,0.0,0.0,0.0,0.0,0.0,1.8542,1.9053,2.0129,2.1151,2.2026,2.3688,2.4988,2.5738,2.6633,2.7255,2.749,2.7623,2.74,2.6835,2.7091,2.6835,2.618,0.0,0.0,0.0,0.0,2.569,2.5671,2.5296,2.5321,2.567,2.6366,2.6646,0.0,0.0,0.0,0.0,0.0,2.876,2.8562,2.8889,2.9094,2.9426,3.054,3.1614,3.2504,3.2841,3.324,3.3532,3.3563,3.4057,3.45,3.45,3.4008,3.3788,3.4547,3.4109,3.3973,3.519,3.5608,3.5943,3.6414,3.6492,3.6492,3.6492,3.6492,3.6492,3.6492,3.6492,3.66,3.6876,3.7012,3.6982,3.6723,3.7147,3.756,3.7966,3.8246,3.858,3.9092,3.9447,3.9577,3.948,3.9705,3.9598,3.917,3.8299,3.7495,3.6715,3.6422,3.6301,3.6301,3.6301,3.6367,3.6512,3.6364,3.6367,3.6512,3.6364,3.6638,3.7113,3.6958,3.7246,3.7524,0.6327,0.6108,0.6018,0.0,0.0,0.0,0.0,0.0,0.0,0.0,0.0,0.0,0.0,0.0,0.0,0.0,0.0,0.0,1.8348,0.0,0.0,2.0774,2.241,2.3711,2.4504,2.5642,2.6612,2.7298,2.7298,2.7045,2.6518,2.6852,2.6661,2.6105,0.0,0.0,0.0,0.0,2.5373,2.5218,2.3953,2.4317,2.5562,2.5421,0.0,0.0,0.0,0.0,0.0,0.0,2.942,2.8813,2.9341,2.9767,3.0173,3.0612,3.1961,3.3431,3.4061,3.4825,3.549,3.5523,3.6014,3.6492,3.6492,3.54,3.4581,3.5287,3.4861,3.4581,3.5335,3.6038,3.6492,3.6492,3.6492,3.6492,3.6492,3.6523,3.6554,3.6554,3.6569,3.6876,3.756,3.7793,3.7589,3.6892,3.8007,3.8718,3.875,3.9404,3.9825,3.9859,4.0541,4.0638,4.0053,4.0597,4.0498,3.9629,3.8922,3.818,3.7426,3.6646,3.6301,3.6301,3.6301,3.6533,3.686,3.6492,3.6574,3.686,3.6512,3.6821,3.7469,3.7094,3.7469,3.7993,0.0,0.0,0.0,0.0,0.0,0.0,0.0,0.0,0.0,0.0,0.0,0.0,0.0,0.0,0.0,0.0,0.0,0.0,0.0,0.0,0.0,0.0,0.0,0.0,0.0,0.0,0.0,0.0,0.0,2.448,2.3942,2.405,2.374,0.0,0.0,0.0,0.0,0.0,0.0,2.3126,0.0,2.332,2.3764,0.0,0.0,0.0,0.0,0.0,0.0,2.8925,2.8958,2.8905,2.9143,3.0204,3.1525,3.2352,3.3551,3.4792,3.5653,3.6057,3.6212,3.6245,3.6368,3.6492,3.6492,3.5769,3.5335,3.6085,3.564,3.5335,3.607,3.6352,3.6492,3.6492,3.6492,3.6492,3.6492,3.6892,3.7178,3.7178,3.7562,3.7953,3.825,3.8805,3.8924,3.8386,3.8663,3.9059,3.9506,3.968,4.002,4.0461,4.0752,4.0823,4.0686,4.0823,4.0221,3.887,3.8681,3.7887,3.6594,3.6387,3.6301,3.6301,3.6301,3.6533,3.688,3.6781,3.6801,3.6919,3.7132,3.7321,3.7523,3.7721,3.815,3.8585,0.0,0.0,0.0,0.0,0.0,0.0,0.0,0.0,0.0,0.0,0.0,0.0,0.0,0.0,0.0,0.0,0.0,0.0,0.0,0.0,0.0,0.0,0.0,0.0,0.0,0.0,0.0,0.0,0.0,0.0,0.0,2.3594,2.3413,0.0,0.0,0.0,0.0,0.0,0.0,0.0,0.0,0.0,0.0,0.0,0.0,0.0,0.0,0.0,0.0,2.7987,2.8485,2.902,2.8796,3.0083,3.1764,3.2252,3.3715,3.5367,3.5864,3.6258,3.6492,3.6492,3.6492,3.6492,3.6492,3.5943,3.5608,3.6352,3.5911,3.564,3.6352,3.6492,3.6492,3.6492,3.6492,3.6492,3.6492,3.7013,3.7417,3.7417,3.7982,3.853,3.8941,3.9394,3.9706,3.9783,3.9783,3.9825,3.9893,4.0145,4.0451,4.0793,4.0864,4.0912,4.0912,4.0912,4.029,3.9077,3.8732,3.7974,3.6801,3.6456,3.6301,3.6301,3.6301,3.6618,3.7151,3.6978,3.7113,3.7414,3.7302,3.745,3.7756,3.7843,3.8265,3.8766,0.0,0.0,0.0,0.0,0.0,0.0,0.0,0.0,0.0,0.9806,1.0378,1.105,0.0,0.0,0.0,0.0,0.0,0.0,0.0,0.0,0.0,0.0,0.0,0.0,0.0,0.0,0.0,0.0,0.0,0.0,0.0,0.0,0.0,0.0,0.0,0.0,0.0,0.0,0.0,0.0,0.0,0.0,0.0,0.0,0.0,0.0,0.0,0.0,0.0,0.0,2.7971,2.9033,2.8494,2.9717,3.1343,3.1268,3.3081,3.5157,3.5367,3.5879,3.6383,3.6492,3.6492,3.6492,3.6492,3.6022,3.5706,3.6244,3.5853,3.5586,3.6137,3.6215,3.6245,3.6338,3.6353,3.6384,3.6476,3.7088,3.7519,3.7549,3.8266,3.8995,3.9688,3.9851,4.0195,4.0847,4.0912,4.0662,4.0145,4.0638,4.0912,4.0912,4.0912,4.0912,4.0912,4.0912,4.0463,3.9543,3.8905,3.8168,3.7323,3.6611,3.6301,3.6301,3.6364,3.6801,3.7487,3.7189,3.7469,3.8034,3.7395,3.7542,3.8085,3.7843,3.8198,3.8726,0.0,0.0,0.0,0.0,0.0,0.0,0.0,0.0,0.0,0.0,1.0526,1.0675,0.0,0.0,0.0,0.0,0.0,0.0,0.0,0.0,0.0,0.0,0.0,0.0,0.0,0.0,0.0,0.0,0.0,0.0,0.0,0.0,0.0,0.0,0.0,0.0,0.0,0.0,0.0,0.0,0.0,0.0,0.0,0.0,0.0,0.0,0.0,0.0,0.0,0.0,2.7405,2.8704,2.8582,2.9481,3.0699,3.1277,3.2441,3.3871,3.5059,3.5497,3.5737,3.6352,3.6492,3.6492,3.6492,3.6383,3.6198,3.5768,3.5554,3.5355,3.4922,3.4859,3.5044,3.5568,3.566,3.5891,3.6415,3.7445,3.8181,3.8294,3.9295,4.0121,4.0485,4.0534,4.0655,4.0871,4.0912,4.0847,4.0734,4.0847,4.0912,4.0912,4.0912,4.0912,4.0912,4.0912,4.0204,3.8784,3.8646,3.787,3.649,3.6353,3.6301,3.6322,3.6658,3.7075,3.7523,3.7773,3.7965,3.8118,3.8302,3.8269,3.8135,3.846,3.8728,3.8766,0.0,0.0,0.0,0.0,0.0,0.0,0.0,0.9468,1.0108,1.1216,1.135,1.1652,1.2468,1.2417,1.252,0.0,0.0,0.0,0.0,0.0,0.0,0.0,0.0,0.0,0.0,0.0,0.0,0.0,0.0,0.0,0.0,0.0,0.0,0.0,0.0,0.0,0.0,0.0,0.0,0.0,0.0,0.0,0.0,0.0,0.0,0.0,0.0,0.0,0.0,0.0,2.6836,2.796,2.8444,2.9197,3.0052,3.0738,3.179,3.2944,3.3975,3.4547,3.4912,3.527,3.5367,3.5374,3.5408,3.5396,3.5338,3.5031,3.4982,3.489,3.4566,3.4505,3.4613,3.4936,3.5275,3.5704,3.6375,3.7585,3.853,3.8914,3.9885,4.0551,4.0697,4.0769,4.084,4.0912,4.0912,4.0912,4.0912,4.0912,4.0912,4.0912,4.0912,4.0912,4.0912,4.0498,3.9698,3.8594,3.8198,3.7404,3.6301,3.6301,3.6301,3.6322,3.6739,3.7132,3.7542,3.793,3.8219,3.8401,3.8401,3.8401,3.8417,3.8507,3.8676,3.874,0.0,0.0,0.0,0.0,0.0,0.0,0.0,0.9919,1.0377,1.1443,1.2036,1.2564,1.315,1.2972,1.2781,0.0,0.0,0.0,0.0,0.0,0.0,0.0,0.0,0.0,0.0,0.0,0.0,0.0,0.0,0.0,0.0,0.0,0.0,0.0,0.0,0.0,0.0,0.0,0.0,0.0,0.0,0.0,0.0,0.0,0.0,0.0,0.0,0.0,0.0,0.0,2.6127,2.7224,2.7993,2.883,2.9638,3.0228,3.1117,3.2053,3.2793,3.3346,3.3782,3.4047,3.4008,3.3974,3.4165,3.4218,3.4224,3.425,3.4274,3.4227,3.4089,0.0,3.4104,0.0,3.472,3.5389,3.6327,3.7488,3.857,3.9378,4.0204,4.0697,4.0745,4.084,4.0912,4.0912,4.0912,4.0912,4.0912,4.0912,4.0912,4.0912,4.0912,4.0912,4.0912,4.0267,3.9491,3.8577,3.8013,3.7215,3.6301,3.6301,3.6301,3.6343,3.6821,3.7208,3.7542,3.8034,3.8417,3.8676,3.8352,3.8417,3.8673,3.8489,3.8521,3.8463,0.0,0.0,0.0,0.0,0.0,0.0,0.0,0.9955,1.0659,1.1819,1.194,1.2361,1.3425,1.3545,1.3403,0.0,0.0,0.0,0.0,0.0,0.0,0.0,0.0,0.0,0.0,0.0,0.0,0.0,0.0,0.0,0.0,0.0,0.0,0.0,0.0,0.0,0.0,0.0,0.0,0.0,0.0,0.0,0.0,0.0,0.0,0.0,0.0,0.0,0.0,2.3781,2.5164,2.6765,2.7002,2.8192,2.9638,3.0228,3.048,3.0836,3.2059,3.2072,3.2023,3.318,3.3085,3.284,3.3452,3.3591,3.3562,3.3514,3.3506,3.3321,3.2705,3.2582,0.0,0.0,0.0,3.4286,3.6296,3.7164,3.812,3.9596,4.0328,4.0745,4.0864,4.0894,4.0912,4.0912,4.0912,4.0912,4.0912,4.0912,4.0912,4.0912,4.0912,4.0912,4.0912,4.0825,4.0066,3.8594,3.8525,3.7715,3.6301,3.6301,3.6301,3.6343,3.7113,3.7469,3.756,3.8336,3.8676,3.8692,3.8676,3.8676,3.8704,3.8822,3.8401,3.7706,0.0,0.0,0.0,0.0,0.0,0.0,1.0054,1.0262,1.0706,1.1794,1.226,1.2646,1.307,1.3616,1.3731,1.3147,0.0,0.0,0.0,0.0,0.0,0.0,0.0,0.0,0.0,0.0,0.0,0.0,0.0,0.0,0.0,0.0,0.0,0.0,0.0,0.0,0.0,0.0,0.0,0.0,0.0,0.0,0.0,0.0,0.0,0.0,0.0,0.0,2.2495,2.3591,2.4861,2.6151,2.7056,2.7928,2.8811,2.947,3.0018,3.0528,3.1007,3.1,3.0943,3.1469,3.1397,3.1415,3.2088,3.2248,3.2331,3.2724,3.2798,3.2721,3.2444,3.2398,0.0,0.0,0.0,0.0,3.564,3.688,3.8144,3.9536,4.0353,4.084,4.0894,4.0912,4.0912,4.0912,4.0912,4.0912,4.0912,4.0912,4.0912,4.0912,4.0912,4.0912,4.0912,4.0429,3.9646,3.8577,3.8151,3.7353,3.6301,3.6301,3.6301,3.6326,3.7151,3.7505,3.756,3.8368,3.8707,3.8707,3.8707,3.8707,3.8723,3.8851,3.8393,3.7595,0.0,0.0,0.0,0.0,0.0,0.9456,1.0533,1.0593,1.0851,1.176,1.2313,1.2665,1.2797,1.3237,1.3462,1.3264,1.294,0.0,0.0,0.0,0.0,0.0,0.0,0.0,0.0,0.0,0.0,1.3534,1.3802,0.0,0.0,0.0,0.0,0.0,0.0,0.0,0.0,0.0,0.0,0.0,0.0,0.0,0.0,0.0,0.0,0.0,0.0,0.0,0.0,0.0,0.0,2.5434,0.0,0.0,0.0,2.9027,2.9457,2.9835,3.0079,2.9998,2.9916,3.0093,3.0119,3.0311,3.0984,3.1283,3.1589,3.2267,3.2398,3.2398,3.2398,3.2398,3.2398,0.0,0.0,3.3591,3.4932,3.6432,3.7892,3.9201,4.0266,4.0912,4.0912,4.0912,4.0912,4.0912,4.0912,4.0912,4.0912,4.0912,4.0912,4.0912,4.0912,4.0912,4.0912,4.0359,3.956,3.8577,3.8082,3.7305,3.6301,3.6301,3.6301,3.6326,3.7151,3.7505,3.756,3.8368,3.8707,3.8707,3.8707,3.8707,3.8704,3.8822,3.8231,3.7281,0.0,0.0,0.0,0.0,0.0,0.0,1.0527,1.0936,1.1298,1.1814,1.1926,1.212,1.2718,1.2298,1.2385,1.3499,1.3276,0.0,0.0,0.0,0.0,0.0,0.0,0.0,0.0,0.0,1.3243,1.3602,1.361,1.3784,1.409,0.0,0.0,0.0,0.0,0.0,0.0,0.0,0.0,0.0,0.0,0.0,0.0,0.0,0.0,0.0,0.0,0.0,0.0,0.0,0.0,0.0,0.0,2.6873,2.8741,0.0,2.8784,2.8514,2.9286,2.9081,2.875,2.9366,2.9513,2.9673,3.0343,3.1014,3.1667,3.2287,3.2398,3.2398,3.2398,3.2398,3.2398,3.2398,0.0,0.0,3.433,3.5776,3.7235,3.863,4.0038,4.0912,4.0912,4.0912,4.0912,4.0912,4.0912,4.0912,4.0912,4.0912,4.0912,4.0912,4.0912,4.0912,4.0912,4.0894,4.0118,3.8594,3.8577,3.7767,3.6301,3.6301,3.6301,3.6326,3.7151,3.7505,3.756,3.8368,3.8707,3.8707,3.8707,3.8707,3.8707,3.8795,3.7837,3.6509,0.0,0.0,0.0,0.0,0.0,0.0,0.0,1.0497,1.1002,1.1543,1.1615,1.1766,1.2141,1.2569,1.29,1.3053,1.2686,0.0,0.0,0.0,0.0,0.0,0.0,0.0,0.0,0.0,1.3481,1.3618,1.3618,1.3651,1.3751,1.3751,1.3924,0.0,0.0,0.0,0.0,0.0,0.0,0.0,0.0,0.0,0.0,0.0,0.0,0.0,0.0,0.0,0.0,0.0,0.0,0.0,0.0,0.0,0.0,2.7934,2.8492,2.8652,2.8088,2.8171,2.8438,2.8627,2.9072,2.9659,3.0359,3.1028,3.168,3.2287,3.2398,3.2398,3.2398,3.2398,3.2398,3.2398,3.2398,0.0,0.0,0.0,0.0,3.9253,4.0322,4.0912,4.0912,4.0912,4.0912,4.0912,4.0912,4.0912,4.0912,4.0912,4.0912,4.0912,4.0912,4.0912,4.0912,4.0912,4.0394,3.9353,3.8836,3.8099,3.7116,3.6542,3.6451,3.6739,3.7283,3.765,3.7948,3.8483,3.8707,3.8707,3.8707,3.8707,3.8649,3.8214,3.7386,3.6523,0.0,0.0,0.0,0.0,0.0,0.0,0.0,1.0308,1.0876,1.1279,1.1333,1.1441,1.1706,1.2184,1.2501,1.2652,1.2207,0.0,0.0,0.0,0.0,0.0,0.0,0.0,0.0,1.368,1.3918,1.4188,1.4188,1.4188,1.4188,1.4188,1.422,1.4289,1.4151,0.0,0.0,0.0,0.0,0.0,0.0,0.0,1.5089,0.0,0.0,0.0,0.0,0.0,0.0,0.0,0.0,0.0,0.0,0.0,0.0,0.0,2.771,2.8285,2.7706,2.7889,2.8287,2.8287,2.9093,2.9981,3.0389,3.1189,3.1936,3.2327,3.2398,3.2398,3.2398,3.2398,3.2398,3.2398,3.2425,0.0,0.0,0.0,0.0,3.9934,4.0621,4.0912,4.0912,4.0912,4.0912,4.0912,4.0912,4.0912,4.0912,4.0912,4.0912,4.0912,4.0912,4.0912,4.0912,4.0912,4.0591,3.9954,3.9029,3.8291,3.7704,3.673,3.643,3.6701,3.7265,3.765,0.0,3.8467,3.8707,3.8707,3.8707,3.8707,3.8631,3.7904,3.7165,3.6537,0.0,0.0,0.0,0.0,0.0,0.0,0.0,1.0284,1.0743,1.1021,1.1069,1.1184,1.1405,1.1294,1.1508,1.2298,0.0,0.0,0.0,0.0,0.0,0.0,0.0,0.0,0.0,1.414,1.4474,1.5141,1.5141,1.5141,1.5141,1.5141,1.4967,1.4589,1.4264,1.4313,1.4565,0.0,0.0,0.0,1.4379,1.4563,0.0,0.0,0.0,0.0,0.0,0.0,0.0,0.0,0.0,0.0,0.0,0.0,0.0,0.0,0.0,0.0,0.0,2.8151,2.83,2.83,2.9376,3.0419,3.0494,3.145,0.0,0.0,0.0,0.0,3.2398,3.2398,3.2398,3.2398,3.2523,3.3084,0.0,3.6114,0.0,4.0535,4.0877,4.0877,4.0825,4.0877,4.0912,4.0912,4.0912,4.0912,4.0912,4.0912,4.0912,4.0912,4.0912,4.0912,4.0912,4.0912,4.0764,4.0463,3.9202,3.8443,3.8154,3.6918,3.6364,3.643,3.7208,3.756,3.765,3.8401,3.8707,3.8707,3.8707,3.867,3.8539,3.7787,3.7086,3.6532,0.0,0.0,0.0,0.0,0.0,0.0,0.0,0.0,0.0,0.0,1.0653,1.084,1.0869,1.1439,1.188,0.0,0.0,0.0,0.0,0.0,0.0,0.0,0.0,0.0,0.0,1.4344,1.4565,1.4732,1.4732,1.4732,1.4732,1.4732,1.4684,1.4597,1.4518,1.4363,1.4231,1.4303,0.0,0.0,1.3738,1.3765,0.0,0.0,0.0,0.0,1.748,1.852,0.0,0.0,0.0,0.0,0.0,0.0,0.0,0.0,2.6661,2.7007,2.7505,0.0,2.8131,2.8131,2.8949,2.9858,0.0,3.1116,0.0,0.0,0.0,0.0,0.0,0.0,3.2398,3.2398,3.2523,3.3457,3.5844,3.8362,0.0,3.9985,4.0532,4.067,4.0026,4.0549,4.0912,4.0912,4.0912,4.0912,4.0912,4.0912,4.0912,4.0912,4.0912,4.0912,4.0912,4.0912,4.1007,4.1214,3.9463,3.8756,3.8977,3.7449,3.6919,3.7246,3.7738,3.8135,3.8433,3.8686,3.8777,3.8777,3.8777,3.8394,3.775,3.6973,3.6606,3.6523,0.0,0.0,0.0,0.0,0.0,0.0,0.0,0.0,0.0,0.0,0.0,0.0,0.0,0.0,0.0,0.0,0.0,0.0,0.0,0.0,0.0,0.0,0.0,0.0,1.4601,1.4792,1.5046,1.5318,1.5318,1.5318,1.5318,1.5318,1.5231,1.511,1.4959,1.4653,1.4355,1.4541,1.4296,1.3826,1.3786,0.0,0.0,0.0,0.0,0.0,1.7292,1.843,0.0,1.9387,1.9715,2.0346,0.0,0.0,0.0,0.0,2.6246,2.6837,2.7466,2.7868,2.8012,2.7759,2.8598,2.9619,2.9999,0.0,0.0,0.0,0.0,0.0,0.0,0.0,0.0,0.0,3.3181,0.0,0.0,0.0,3.9802,3.9698,4.0077,4.0325,4.025,4.0653,4.0912,4.0912,4.0912,4.0912,4.0912,4.0912,4.0912,4.0912,4.0912,4.0912,4.0912,4.0912,4.1209,4.1803,3.9822,3.9108,3.9529,3.7897,3.719,3.7265,3.7844,3.8234,3.8478,3.8713,3.8822,3.8833,3.8822,3.8309,3.7503,3.6721,3.6468,3.6537,0.0,0.0,0.0,0.0,0.0,0.0,0.0,0.0,0.0,0.0,0.0,0.0,0.0,0.0,0.0,0.0,0.0,0.0,0.0,0.0,0.0,0.0,0.0,1.4561,1.5173,1.5237,1.5547,1.6126,1.6174,1.6206,1.6206,1.6261,1.6095,1.5745,1.5356,1.5014,1.47,1.4935,1.4641,1.4029,1.4029,0.0,0.0,0.0,0.0,0.0,0.0,0.0,0.0,1.9387,1.9715,2.0205,2.088,0.0,0.0,0.0,0.0,0.0,2.7598,2.7967,2.7992,2.7498,2.8451,2.9549,2.971,0.0,0.0,0.0,0.0,0.0,0.0,3.2523,0.0,0.0,0.0,0.0,3.7742,3.8545,3.9129,3.9629,3.9802,4.0095,4.067,4.0825,4.0912,4.0912,4.0912,4.0912,4.0912,4.0912,4.0912,4.0912,4.0912,4.0918,4.0989,4.0989,4.144,4.2282,4.0391,3.9671,3.9942,3.8455,3.752,3.7114,3.7879,3.8234,3.8312,3.8664,3.8848,3.8906,3.8722,3.814,3.7344,3.6579,3.6385,3.6591,0.0,0.0,0.0,0.0,0.0,0.0,0.0,0.0,0.0,0.0,0.0,0.0,0.0,0.0,0.0,0.0,0.0,0.0,0.0,0.0,0.0,0.0,1.4556,1.507,1.5181,1.5497,1.565,1.5792,1.6063,1.6206,1.6214,1.6475,1.6428,1.6095,1.5467,1.5157,1.5062,1.4514,1.4037,1.3697,1.3697,0.0,0.0,0.0,0.0,0.0,0.0,0.0,0.0,1.9387,1.9715,2.0205,2.088,0.0,0.0,0.0,0.0,0.0,2.7598,2.7967,2.8118,2.8128,2.8834,2.9645,3.0229,0.0,0.0,0.0,0.0,0.0,0.0,3.2578,3.2846,0.0,0.0,3.7765,3.8685,3.9812,4.0342,3.9767,4.0284,4.0515,3.9939,4.0515,4.0912,4.0912,4.0912,4.0912,4.0912,4.0912,4.0912,4.0912,4.0912,4.1065,4.1401,4.1401,4.1864,4.2769,4.1445,4.0677,4.0384,3.9461,3.8614,3.793,3.8401,3.864,3.8713,3.8833,3.8921,3.8909,3.8153,3.7405,3.6633,3.5735,3.5905,3.6846,0.0,0.0,0.0,0.0,0.0,0.0,0.0,0.0,0.0,0.0,0.0,0.0,0.0,0.0,0.0,0.0,0.0,0.0,0.0,0.0,0.0,0.0,1.5046,1.5489,1.5489,1.564,1.596,1.654,1.6706,1.6873,1.7048,1.7032,1.6738,1.6182,1.5674,1.5603,1.5724,1.4796,1.4745,1.5317,0.0,0.0,0.0,0.0,0.0,0.0,0.0,0.0,0.0,0.0,1.9933,2.0205,2.088,0.0,0.0,0.0,0.0,0.0,2.7742,2.8046,2.8229,2.8821,2.9237,2.9697,0.0,0.0,0.0,0.0,0.0,0.0,0.0,0.0,3.4415,3.6349,3.7335,3.8201,3.9232,3.9548,3.9687,3.9698,4.0026,4.0267,4.0359,4.0687,4.0912,4.0912,4.0912,4.0995,4.1192,4.1214,4.1214,4.1214,4.1485,4.1687,4.1885,4.2136,4.2478,4.2901,4.1861,4.1069,4.0491,3.99,3.9082,3.8118,3.8515,3.8765,3.8866,3.8896,3.8964,3.8957,3.809,3.7276,3.6544,3.6125,3.6623,3.7742,0.0,0.0,0.0,0.0,0.0,0.0,0.0,0.0,0.0,0.0,0.0,0.0,0.0,0.0,0.0,0.0,0.0,0.0,0.0,0.0,1.4605,1.4605,1.5229,1.5632,1.5712,1.5959,1.6492,1.7278,1.7437,1.7652,1.7926,1.7548,1.7056,1.6436,1.5999,1.5945,1.6099,1.5033,1.535,1.6432,0.0,0.0,0.0,0.0,0.0,0.0,0.0,0.0,0.0,0.0,0.0,0.0,0.0,0.0,0.0,2.4478,2.5788,2.7072,2.7894,2.8112,2.8327,2.9268,0.0,0.0,0.0,0.0,0.0,0.0,0.0,0.0,0.0,3.4793,0.0,3.8413,3.8524,3.8714,3.9824,3.9491,3.9336,3.9905,3.9974,4.0215,4.0843,4.0912,4.0912,4.0912,4.0989,4.114,4.1333,4.1445,4.1494,4.1494,4.1842,4.2136,4.2358,4.2711,4.2939,4.3032,4.2359,4.1542,4.0632,4.0319,3.9463,3.8252,3.8578,3.8795,3.891,3.8925,3.8882,3.8729,3.7868,3.7025,3.6348,3.6593,3.7424,3.8516,0.0,0.0,0.0,0.0,0.0,0.0,0.0,0.0,0.0,0.0,0.0,0.0,0.0,0.0,0.0,0.0,0.0,0.0,0.0,0.0,1.4605,1.4605,1.5014,1.5364,1.5674,1.6692,1.7199,1.7278,1.7914,1.824,1.8255,1.7898,1.7583,1.7175,1.6476,1.6007,1.5709,1.4927,1.4893,1.5377,1.6066,0.0,0.0,0.0,0.0,0.0,0.0,0.0,0.0,0.0,0.0,0.0,0.0,0.0,2.3891,2.4578,2.6037,2.755,2.7967,2.8112,2.8327,2.9268,2.9981,0.0,3.1275,3.1905,0.0,3.3426,0.0,0.0,0.0,3.6198,3.7346,3.8046,3.911,4.0067,4.072,4.0774,4.0756,4.0808,4.0825,4.0843,4.0894,4.0912,4.0912,4.0912,4.1237,4.1305,4.0965,4.1305,4.1494,4.1494,4.1516,4.1969,4.2844,4.2882,4.3105,4.3463,4.3389,4.2546,4.1062,4.104,4.0159,3.8658,3.8747,3.8837,3.8892,3.8983,3.8591,3.7894,3.7029,3.6186,3.5614,3.6606,3.7653,3.8729,0.0,0.0,0.0,0.0,0.0,0.0,0.0,0.0,0.0,0.0,0.0,0.0,0.0,0.0,0.0,0.0,0.0,0.0,0.0,0.0,1.4605,1.4605,1.5189,1.5585,1.5712,1.6508,1.7262,1.7914,1.8168,1.8184,1.7962,1.7663,1.7278,1.6905,1.6198,1.6071,1.6358,1.5655,1.5939,1.6958,1.7276,1.7745,0.0,0.0,0.0,0.0,0.0,0.0,0.0,0.0,2.0118,2.0302,2.1376,2.2675,2.4006,2.511,2.6414,2.7603,2.798,2.8112,2.8327,2.9268,3.0311,0.0,0.0,3.2283,3.3118,3.3452,3.3939,0.0,0.0,0.0,3.8669,3.9184,4.0008,4.0638,4.0871,4.0912,4.0912,4.0912,4.0912,4.0912,4.0912,4.0912,4.0995,4.126,4.1423,4.1561,4.1709,4.1842,4.1927,4.1927,4.2218,4.2537,4.29,4.316,4.3357,4.3515,4.3515,4.2653,4.1095,4.1095,4.0228,3.8747,3.8792,3.8848,3.895,3.8979,3.8568,3.7764,3.645,3.6124,3.6433,3.6862,3.8094,3.9652,0.0,0.0,0.0,0.0,0.0,0.0,0.0,0.0,0.0,0.0,0.0,0.0,0.0,0.0,0.0,0.0,0.0,0.0,1.3543,1.4217,1.4653,1.4771,1.5364,1.5768,1.584,1.6643,1.7413,1.8128,1.8128,1.7954,1.7655,1.7432,1.7143,1.6873,1.6166,1.6189,1.6754,1.6067,1.6629,1.792,1.8174,1.8674,0.0,0.0,0.0,0.0,0.0,0.0,0.0,0.0,2.0118,2.0324,2.1678,2.2886,2.4071,2.5421,2.6667,2.7669,2.8013,2.8131,2.8365,0.0,0.0,0.0,3.1766,3.2815,3.3827,3.4174,3.4936,3.5951,3.7251,0.0,3.9375,3.9902,4.0524,4.0912,4.0912,4.0912,4.0912,4.0912,4.0912,4.0912,4.0912,4.1018,4.1192,4.149,4.1778,4.2011,4.2177,4.2338,4.2438,4.246,4.275,4.2957,4.3124,4.3375,4.3515,4.3515,4.3513,4.2815,4.1462,4.1238,4.0423,3.9175,3.8962,3.8925,3.9007,3.9101,3.8564,3.7448,3.5739,3.5868,3.7002,3.7111,3.8436,4.0214,0.0,0.0,0.0,0.0,0.0,0.0,0.0,0.0,0.0,0.0,0.0,0.0,0.0,0.0,0.0,0.0,0.0,0.0,1.3584,1.4217,1.4764,1.5165,1.5537,1.5833,1.619,1.7223,1.7806,1.7814,1.7814,1.7647,1.7278,1.7278,1.7321,0.0,0.0,0.0,1.6748,1.6096,1.6559,1.7779,1.8592,1.9165,1.9658,0.0,0.0,0.0,0.0,0.0,0.0,0.0,2.0118,2.0324,2.1678,2.2886,2.4071,2.5421,2.675,2.7842,2.8033,2.8183,2.85,0.0,0.0,0.0,3.2348,3.3558,3.4793,3.5815,3.6784,3.7655,3.821,3.8794,3.9375,3.9902,4.0524,4.0912,4.0912,4.0912,4.0912,4.0912,4.0912,4.0912,4.0912,4.126,4.1494,4.1516,4.2378,4.2692,4.2218,4.2653,4.292,4.3014,4.2939,4.3124,4.3599,4.3531,4.3515,4.3496,4.3565,4.316,4.2286,4.1523,4.0762,3.9952,3.929,3.8993,3.9021,3.9344,3.85,3.6798,3.4931,3.5345,3.7036,3.7303,3.8594,4.0233,0.0,0.0,0.0,0.0,0.0,0.0,0.0,0.0,0.0,0.0,0.0,0.0,0.0,0.0,0.0,0.0,0.0,0.0,1.3584,1.4217,1.4653,1.4764,1.5141,1.538,1.5483,1.6508,1.7405,1.8144,1.7942,1.7647,1.7278,1.7278,0.0,1.6951,0.0,0.0,0.0,1.7514,1.7823,1.8124,1.9031,1.9389,1.9428,0.0,0.0,0.0,0.0,0.0,0.0,0.0,0.0,0.0,2.1678,2.2614,2.3574,2.5305,2.6443,2.7307,2.7926,2.8541,0.0,2.9425,0.0,0.0,0.0,3.4243,0.0,0.0,3.7183,3.7476,3.8712,3.8968,3.9211,3.9893,4.0524,4.0912,4.0912,4.0912,4.0912,4.0912,4.0912,4.0995,4.1305,4.1423,4.1778,4.2438,4.2731,4.2844,4.2692,4.2883,4.2977,4.3014,4.2977,4.3178,4.3599,4.3582,4.3565,4.3565,4.3686,4.326,4.2349,4.1601,4.0852,4.01,3.9316,3.9021,3.898,3.7968,3.733,3.684,3.5136,3.5625,3.7303,3.7528,3.8805,4.0425,0.0,0.0,0.0,0.0,0.0,0.0,0.0,0.0,1.0643,1.0863,1.1146,1.1522,0.0,0.0,0.0,1.256,1.31,1.3441,1.3576,1.4117,1.4526,1.4847,1.507,1.5316,1.5586,1.6206,1.6976,1.7898,1.7683,1.7368,1.6857,1.7208,0.0,1.7417,0.0,1.8096,0.0,1.8675,1.895,1.9284,1.9788,1.9959,1.9959,0.0,0.0,0.0,0.0,0.0,0.0,0.0,0.0,0.0,2.1701,2.2705,2.3777,2.5708,2.7003,2.7993,2.8731,2.9545,0.0,3.0282,3.1927,3.3727,3.4577,0.0,0.0,0.0,3.7199,3.7373,3.8441,3.8774,3.9122,3.9766,4.0199,4.0549,4.086,4.0912,4.0912,4.0912,4.1041,4.1237,4.149,4.1842,4.2297,4.2863,4.305,4.3142,4.3178,4.3214,4.3285,4.3355,4.332,4.3443,4.3718,4.3684,4.3667,4.3667,4.3786,4.3543,4.2957,4.1878,4.1147,4.0656,3.9644,3.9132,3.8924,3.7514,3.6821,3.6513,3.522,3.5823,3.7432,3.763,3.8882,4.0496,0.0,0.0,0.0,0.0,0.0,0.0,0.0,1.1045,1.124,1.174,1.1833,1.2058,0.0,0.0,0.0,1.259,1.2917,1.3219,1.3521,1.387,1.4371,1.5054,1.5118,1.5443,1.6095,1.6111,1.6508,1.7267,1.7289,1.697,1.6341,0.0,1.7813,1.8298,0.0,1.9296,0.0,1.966,1.9916,2.0773,2.066,2.0704,2.0795,2.0829,0.0,0.0,0.0,0.0,0.0,0.0,0.0,0.0,2.1677,2.2874,2.4247,2.6319,2.7954,2.9257,2.9933,0.0,0.0,3.1528,3.2571,0.0,3.6215,3.6255,3.6064,3.6669,3.7056,3.7396,3.7795,3.8478,3.9122,3.9525,3.9715,4.0026,4.0705,4.086,4.0894,4.0942,4.1283,4.1516,4.1626,4.2398,4.2919,4.2939,4.3304,4.3549,4.3599,4.3615,4.3699,4.3881,4.3835,4.3853,4.3897,4.3835,4.3804,4.3804,4.3883,4.3929,4.3889,4.2319,4.1541,4.136,4.0081,3.9296,3.8821,3.7822,3.6918,3.6055,3.542,3.6093,3.7452,3.7733,3.8975,4.0496,0.0,0.0,0.0,0.0,0.0,0.0,1.0989,1.1365,1.1677,1.1771,1.2182,1.2467,1.259,1.259,0.0,1.259,1.2917,1.3124,1.3195,1.3513,1.3886,1.4323,1.4573,1.4922,1.5396,1.5404,1.5938,1.7006,1.7208,1.7215,0.0,0.0,0.0,1.8442,0.0,2.0293,0.0,2.0583,2.0576,2.0662,2.0769,2.0564,2.0128,2.0238,2.0205,0.0,0.0,0.0,0.0,0.0,0.0,0.0,2.117,2.2021,2.3086,2.5541,2.7348,2.8622,2.9324,3.0861,0.0,0.0,3.291,3.4695,3.6215,3.6133,3.6098,3.7313,3.7305,3.7336,3.8253,3.902,3.9393,3.8922,3.9859,4.0498,4.0008,4.0515,4.1035,4.1333,4.1445,4.1799,4.2536,4.2769,4.3032,4.3357,4.3496,4.3582,4.3599,4.3751,4.3849,4.3897,4.3899,4.3899,4.3897,4.3899,4.3883,4.3883,4.3961,4.4094,4.4256,4.3055,4.1915,4.0825,4.0078,3.9426,3.8878,3.8478,3.7538,3.6381,3.6905,3.7314,3.7742,3.8637,3.96,4.0512,0.0,0.0,0.0,0.0,0.0,0.0,0.0,0.0,1.2544,1.2228,1.2436,1.259,1.259,1.259,0.0,0.0,1.2766,1.2941,1.3076,1.3251,1.3676,1.436,1.4563,1.4828,1.5202,1.5548,1.5984,1.6556,1.7093,1.7259,0.0,0.0,0.0,1.8605,0.0,2.1141,0.0,2.1563,2.1525,2.1398,2.1274,2.0881,2.0379,2.0456,2.0314,2.0085,1.9845,0.0,0.0,0.0,0.0,0.0,0.0,0.0,2.2736,2.5052,2.6945,2.8574,0.0,0.0,0.0,3.2541,0.0,3.4914,3.6071,3.6342,3.6512,3.7213,3.7361,3.7627,3.8465,3.9198,3.9457,3.8715,3.9272,3.9652,3.9215,3.9713,4.0319,4.0894,4.1318,4.189,4.2808,4.3105,4.3321,4.3531,4.3634,4.3701,4.3751,4.3849,4.3913,4.3961,4.3961,4.3961,4.3961,4.3961,4.3961,4.3961,4.4106,4.4332,4.4548,4.3184,4.2241,4.1598,4.0484,3.9872,3.9602,3.8684,3.7789,3.705,3.7162,3.7671,3.8395,3.9058,3.9849,4.0621,0.0,0.0,0.0,0.0,0.0,0.0,0.0,0.0,0.0,1.267,1.259,1.259,1.259,1.259,1.2621,0.0,0.0,0.0,1.3139,1.3212,1.3664,1.4538,1.4663,1.4832,1.518,1.5787,1.6206,1.6402,1.7025,0.0,0.0,0.0,0.0,1.9004,0.0,0.0,0.0,0.0,2.2313,2.228,2.1876,2.1428,2.1015,2.1015,2.074,2.0303,1.9845,1.9615,1.9431,1.8884,0.0,0.0,0.0,0.0,2.2633,2.457,2.6633,0.0,0.0,0.0,3.2597,3.3483,3.4211,0.0,3.6046,3.6729,3.7156,3.7199,3.7642,3.8101,3.8372,3.9215,3.9612,3.8732,3.8819,3.8962,3.8801,3.9147,3.9673,4.0412,4.1141,4.1922,4.2722,4.3283,4.3599,4.3599,4.3736,4.3835,4.3915,4.3913,4.3945,4.4005,4.4005,4.4005,4.4005,4.4048,4.4079,4.4079,4.4388,4.465,4.4823,4.3331,4.2737,4.2804,4.1026,4.0347,4.04,3.8988,3.817,3.7732,3.7456,3.8047,3.9089,3.9392,4.0014,4.07,0.0,0.0,0.0,0.0,0.0,0.0,0.0,0.0,0.0,0.0,1.259,1.259,1.259,1.259,1.2683,1.2928,1.2958,1.3097,1.3436,0.0,0.0,1.4094,1.4425,1.4789,1.5172,1.5309,1.6016,1.7331,1.7065,0.0,0.0,0.0,0.0,1.9885,0.0,0.0,0.0,0.0,0.0,2.2277,2.2248,2.1931,2.1529,2.1529,2.145,2.133,2.0872,2.0402,1.9878,1.8993,1.8818,0.0,0.0,0.0,2.1995,2.395,2.6307,0.0,0.0,0.0,3.2108,0.0,3.4281,3.5209,0.0,0.0,3.7821,3.8279,3.8619,3.8595,3.7787,3.9341,4.0273,3.8819,3.9721,4.0359,3.9646,3.9891,4.0341,4.0862,4.1333,4.1814,4.2331,4.3126,4.3599,4.3599,4.3783,4.3899,4.3897,4.3961,4.3989,4.4005,4.4005,4.4005,4.4005,4.4236,4.4346,4.436,4.4861,4.5107,4.512,4.4375,4.3934,4.3615,4.14,4.0473,4.0477,4.0265,3.9288,3.8093,3.9469,3.9692,3.935,4.0065,4.0496,4.0712,0.0,0.0,0.0,0.0,0.0,0.0,0.0,0.0,0.0,0.0,0.0,1.2836,1.2836,1.2981,1.3155,1.3277,1.3277,1.3329,1.348,1.3634,1.3915,1.4318,1.4493,1.4868,1.5486,1.5684,1.6151,1.6846,1.7384,0.0,0.0,2.0008,2.0216,0.0,0.0,0.0,0.0,0.0,0.0,0.0,0.0,0.0,0.0,2.1697,2.1732,2.1872,2.1455,2.1134,2.0772,1.9802,1.9509,1.959,2.0055,0.0,0.0,0.0,2.5443,0.0,2.9141,3.0896,3.2438,0.0,3.3861,3.4729,3.5788,3.6803,3.7658,3.815,3.8639,3.8887,3.8745,3.9543,3.9876,3.8789,3.9163,3.9432,3.8881,3.9142,3.9726,4.0595,4.1071,4.1586,4.2281,4.2767,4.3236,4.373,4.3878,4.3757,4.3311,4.3748,4.3782,4.3336,4.3763,4.4079,4.4221,4.4346,4.4546,4.4849,4.5085,4.5292,4.541,4.4647,4.4504,4.4719,4.2283,4.1508,4.1854,4.0419,3.9669,3.9438,3.9727,3.99,4.0015,4.0362,4.061,4.0765,0.0,0.0,0.0,0.0,0.0,0.0,0.0,0.0,0.0,0.0,0.0,1.3133,1.3133,0.0,0.0,0.0,1.3631,1.3705,1.3891,1.39,1.4153,1.4693,1.4613,1.4872,1.5533,1.5945,1.6257,1.6434,0.0,0.0,1.9561,2.0352,2.0649,0.0,2.1298,0.0,0.0,0.0,0.0,0.0,0.0,0.0,0.0,2.2506,2.2646,2.2879,2.243,2.2339,2.2183,2.0732,2.0421,2.0658,2.0511,2.1032,0.0,0.0,0.0,0.0,0.0,0.0,3.2063,3.2536,3.3255,3.4128,0.0,3.6371,3.7373,3.7675,3.8372,3.895,3.9185,3.9468,3.9508,3.8957,3.887,3.8911,3.8965,3.8968,3.9424,4.0637,4.0985,4.1454,4.2327,4.2551,4.2982,4.3841,4.3958,4.3652,4.2835,4.3559,4.3633,4.2835,4.3449,4.4005,4.4402,4.4533,4.4837,4.5302,4.5302,4.541,4.5575,4.494,4.4998,4.546,4.2912,4.2297,4.2912,4.0573,3.9958,4.0439,3.9842,3.9977,4.0504,4.0542,4.0655,4.0791,0.0,0.0,0.0,0.0,0.0,0.0,0.0,0.0,0.0,0.0,0.0,1.348,1.348,1.348,1.3631,1.395,1.398,1.426,1.4985,1.5034,1.5013,1.5071,1.4714,0.0,1.512,1.5515,1.6101,0.0,0.0,0.0,2.0515,2.0653,2.1222,2.2143,2.1778,2.1365,2.0993,0.0,0.0,0.0,0.0,0.0,0.0,0.0,0.0,2.4791,2.4328,0.0,2.4237,2.1552,2.1345,2.1976,2.0875,2.1346,2.2499,0.0,0.0,0.0,0.0,2.9353,0.0,3.1607,3.2606,3.3609,0.0,3.6297,3.7254,3.71,3.8045,3.8676,3.8007,3.8892,3.9681,3.9646,3.9629,4.0054,4.1165,4.0418,4.0193,4.1396,4.133,4.1517,4.2327,4.258,4.3045,4.3841,4.3958,4.3652,4.2835,4.3559,4.3633,4.2835,4.3081,4.3624,4.4397,4.4908,4.5302,4.5577,4.5577,4.5586,4.5594,4.5556,4.5556,4.546,4.2912,4.2297,4.2951,4.117,4.0458,4.0496,4.0458,4.0458,4.0512,4.0636,4.0732,4.0824,0.0,0.0,0.0,0.0,0.0,0.0,0.0,0.0,0.0,0.0,0.0,0.0,0.0,1.4777,1.4966,1.507,1.5101,1.5212,1.5534,1.5555,1.5432,1.5188,1.5037,1.501,1.5093,1.5487,0.0,0.0,0.0,1.8901,1.9779,2.0477,2.1027,2.143,2.1527,2.1669,2.1822,2.2171,0.0,0.0,0.0,0.0,0.0,0.0,0.0,0.0,0.0,0.0,0.0,2.3829,2.3562,2.3553,2.348,2.3573,2.391,2.4673,0.0,0.0,0.0,0.0,0.0,3.0822,3.1829,3.2742,3.3708,3.4679,3.568,3.6776,3.7353,3.7666,3.761,3.8362,3.8836,3.8353,3.8491,3.9098,4.0314,4.0336,4.0709,4.1951,4.2026,4.1933,4.1825,4.2347,4.2671,4.2627,4.2999,4.272,4.1525,4.2586,4.2612,4.1293,4.253,4.3233,4.3308,4.4182,4.4678,4.4759,4.5325,4.5594,4.5594,4.5594,4.5594,4.5498,4.3508,4.2816,4.2951,4.1227,4.0496,4.0496,4.0496,4.0557,4.0629,4.0681,4.08,4.0937,0.0,0.0,0.0,0.0,0.0,0.0,0.0,0.0,0.0,0.0,0.0,0.0,0.0,0.0,1.6233,1.6233,1.5942,1.5962,1.6463,1.6203,1.5999,1.588,1.5733,1.5642,1.5607,0.0,0.0,0.0,0.0,0.0,0.0,0.0,2.0807,2.0642,2.1168,2.1527,0.0,0.0,0.0,2.3003,0.0,0.0,2.4695,0.0,0.0,0.0,0.0,0.0,0.0,2.5468,2.5418,2.5523,2.5274,2.5071,2.5,0.0,0.0,0.0,2.7365,0.0,0.0,0.0,3.076,3.1821,3.2405,3.3434,3.4696,3.6067,3.6694,3.7044,3.7177,3.7966,3.8353,3.7633,3.784,3.8518,3.9716,4.0022,4.0592,4.1854,4.2062,4.205,4.1918,4.2409,4.2601,4.2235,4.2669,4.2244,4.0678,4.1894,4.2061,4.0778,4.2228,4.2838,4.2393,4.366,4.4162,4.3912,4.5056,4.546,4.5171,4.5479,4.5594,4.5518,4.3835,4.3104,4.2951,4.1227,4.0496,4.0504,4.0557,4.0615,4.0706,4.0787,4.0881,4.0994,0.0,0.0,0.0,0.0,0.0,0.0,0.0,0.0,0.0,1.7416,0.0,0.0,0.0,0.0,0.0,1.7335,1.6439,1.6475,1.7837,1.7061,1.6762,1.7191,1.684,1.6608,1.6618,0.0,0.0,0.0,0.0,0.0,0.0,0.0,2.0587,0.0,2.0664,2.0894,2.0949,0.0,2.2045,2.2821,0.0,2.5146,2.5438,0.0,0.0,0.0,2.698,2.7527,0.0,2.6352,2.6822,2.7781,2.6031,0.0,0.0,0.0,0.0,0.0,0.0,0.0,0.0,0.0,2.9435,3.0937,3.115,3.2792,3.4419,3.4959,3.6078,3.6887,3.6609,3.7672,3.8341,3.7599,3.7843,3.8538,3.9715,3.9608,3.9858,4.108,4.1382,4.1804,4.2563,4.2715,4.2742,4.272,4.2964,4.2314,4.0481,4.1556,4.1979,4.1427,4.2201,4.2355,4.1769,4.3393,4.3835,4.3085,4.4767,4.5133,4.4335,4.521,4.5594,4.5518,4.3835,4.3104,4.2951,4.1227,4.0496,4.0519,4.0642,4.07,4.0736,4.0937,4.0994,4.1003,0.0,0.0,0.0,0.0,0.0,1.7743,1.8051,1.863,1.8941,0.0,0.0,0.0,0.0,0.0,0.0,1.8616,1.8062,1.7936,1.8392,1.8162,1.7945,1.7791,1.7354,1.7091,1.7113,0.0,0.0,0.0,0.0,0.0,0.0,0.0,0.0,0.0,2.05,2.0952,2.1465,2.2115,0.0,2.2867,2.5348,2.5946,0.0,0.0,0.0,2.763,2.7996,2.805,2.7914,2.782,2.7854,2.7788,2.7237,0.0,0.0,0.0,0.0,0.0,2.5738,0.0,0.0,0.0,0.0,0.0,3.0846,3.2241,3.3604,3.4265,3.5382,3.618,3.592,3.6925,3.7586,3.689,3.7805,3.893,3.9849,3.9922,4.028,4.1305,4.1477,4.1374,4.1078,4.1575,4.151,4.0499,4.1027,4.0967,4.0028,4.0288,4.0767,4.137,4.1065,4.088,4.0854,4.195,4.2393,4.2181,4.3855,4.4528,4.4335,4.521,4.5594,4.5518,4.3835,4.3104,4.2951,4.1227,4.0564,4.0642,4.0681,4.0784,4.0914,4.0977,4.1022,4.1074,0.0,0.0,1.8195,1.9315,1.9493,1.9564,1.9795,2.0464,2.0736,0.0,0.0,0.0,0.0,0.0,0.0,1.9536,1.8934,1.8776,1.9211,1.8849,1.8617,1.8592,1.8132,1.7894,1.7883,0.0,0.0,0.0,0.0,0.0,0.0,0.0,0.0,0.0,0.0,2.1047,2.1866,0.0,0.0,0.0,2.5979,0.0,0.0,2.7984,2.841,2.8245,2.8789,2.8951,2.8893,2.8936,2.8595,2.817,2.8368,0.0,0.0,0.0,0.0,0.0,0.0,0.0,0.0,0.0,0.0,0.0,3.0439,3.1805,3.3197,3.4278,3.5029,3.5514,3.5588,3.664,3.7379,3.6994,3.7857,3.8593,3.8581,3.9195,3.9727,3.9937,4.0611,4.0878,4.0438,4.1126,4.1124,3.996,4.0497,4.064,4.012,4.0013,4.0281,4.1013,4.0571,4.0372,4.0496,4.1354,4.1623,4.1277,4.2989,4.3797,4.3835,4.4662,4.5267,4.5518,4.3835,4.3104,4.2951,4.1227,4.0586,4.07,4.0734,4.0858,4.0994,4.1022,4.107,4.1109,0.0,0.0,1.9247,2.0713,2.1358,2.172,2.1805,2.2542,2.2761,0.0,0.0,0.0,0.0,0.0,0.0,0.0,1.9598,1.949,2.0282,1.9533,1.9233,1.9667,1.9096,1.8863,1.8973,0.0,0.0,0.0,0.0,0.0,0.0,0.0,0.0,0.0,2.0268,2.1371,2.2327,2.4583,0.0,2.5179,2.6502,2.7284,0.0,2.8427,2.8784,2.8944,2.9443,2.993,3.031,2.9686,2.9149,2.8763,2.9257,0.0,0.0,0.0,2.5194,0.0,0.0,0.0,0.0,0.0,0.0,0.0,2.9947,3.1308,3.2841,3.4545,3.4816,3.488,3.5345,3.6461,3.7288,3.7309,3.7793,3.787,3.6967,3.8055,3.8705,3.8025,3.9226,4.0174,4.0248,4.081,4.0936,4.0347,4.0727,4.0842,4.0519,4.033,4.0313,4.0489,4.0496,4.0496,4.0496,4.1277,4.1277,4.0516,4.2162,4.3008,4.3124,4.3932,4.4778,4.5518,4.3835,4.3104,4.297,4.1224,4.0595,4.073,4.0771,4.089,4.1028,4.1076,4.1109,4.1109,2.047,2.0504,2.0775,2.1818,2.2407,2.2846,2.3226,2.3433,2.3372,2.2794,0.0,0.0,0.0,0.0,0.0,0.0,0.0,2.188,2.1811,2.1452,2.1323,2.1399,2.0148,1.9829,2.0691,1.9353,0.0,0.0,0.0,0.0,0.0,0.0,0.0,0.0,0.0,2.2531,2.3338,2.5528,0.0,2.6822,2.7696,2.8105,2.8316,2.905,2.9619,3.0078,3.0194,3.031,3.031,2.9686,2.9434,2.9271,2.8872,0.0,0.0,2.6928,0.0,0.0,0.0,0.0,0.0,0.0,0.0,0.0,2.9107,3.0301,3.1436,3.3266,3.3954,3.4259,3.4366,3.5255,3.5992,3.6041,3.683,3.7658,3.8349,3.8587,3.8722,3.8823,3.8567,3.8637,3.9287,3.8915,3.8912,3.962,4.0103,4.0414,4.0508,4.0465,4.0465,4.0496,4.0496,4.0496,4.0496,4.0669,4.0669,4.0516,4.1566,4.2431,4.3124,4.3932,4.4778,4.5518,4.3835,4.3104,4.2959,4.1342,4.0717,4.0781,4.0781,4.0909,4.108,4.1106,4.1109,4.1109,2.0796,2.0894,2.1277,2.2444,2.3231,2.3789,2.3957,2.4403,2.4444,0.0,0.0,0.0,0.0,0.0,0.0,0.0,0.0,0.0,2.248,2.2342,2.2178,2.1926,2.0948,2.0389,2.0389,1.9599,1.9475,0.0,0.0,0.0,0.0,0.0,0.0,0.0,0.0,0.0,0.0,0.0,2.7499,2.7941,2.8524,2.8824,2.9064,3.0038,3.0391,3.0446,3.0744,3.0663,3.0405,3.0391,3.0188,2.9835,2.9224,2.8627,2.803,0.0,2.6402,2.5317,0.0,0.0,0.0,2.4021,0.0,0.0,0.0,2.9059,3.0099,3.1273,3.2595,3.3461,3.3121,3.4235,3.5165,3.5074,3.591,3.6766,3.7414,3.8147,3.8508,3.8272,3.8391,3.8655,3.9064,3.8377,3.8226,3.8984,3.9642,4.0148,4.0481,4.0496,4.0496,4.0496,4.0496,4.0496,4.0496,4.0496,4.0496,4.0516,4.0931,4.1835,4.3104,4.3528,4.4393,4.5518,4.3835,4.3104,4.2986,4.135,4.0732,4.0815,4.0859,4.0986,4.1109,4.1109,4.1109,4.1109,2.103,2.1264,2.1821,2.3128,2.4166,2.4834,2.4861,2.5451,2.5585,0.0,0.0,0.0,0.0,0.0,0.0,0.0,0.0,0.0,2.3478,2.3418,2.3103,2.2424,2.1751,2.1063,2.0397,2.0074,1.9964,0.0,0.0,0.0,0.0,0.0,0.0,0.0,0.0,0.0,0.0,0.0,0.0,2.8817,0.0,2.9686,2.9977,3.1042,3.1165,3.0785,3.1042,3.0812,3.0473,3.0961,3.073,3.0161,2.9781,2.9236,0.0,0.0,0.0,0.0,0.0,0.0,0.0,0.0,0.0,2.5437,0.0,0.0,0.0,2.9604,3.1232,3.2377,3.183,3.3208,3.4246,3.3627,3.4706,3.5542,3.5252,3.6906,3.7917,3.7357,3.8169,3.8776,3.8757,3.8571,3.849,3.8593,3.9547,4.0148,4.0269,4.0419,4.0496,4.0496,4.0496,4.0496,4.0496,4.0496,4.0496,4.0496,4.0496,4.1343,4.2854,4.2854,4.3682,4.5037,4.3508,4.2854,4.2728,4.1292,4.0732,4.082,4.0944,4.105,4.1109,4.1109,4.1109,4.1109,2.1867,2.256,2.3508,2.4524,2.556,2.6396,2.6795,2.659,2.6396,0.0,0.0,0.0,0.0,0.0,0.0,0.0,0.0,2.7605,2.6153,2.5947,2.5375,2.426,2.2827,2.2435,2.3213,2.2293,2.2009,2.2397,0.0,0.0,0.0,0.0,0.0,0.0,2.5005,0.0,0.0,0.0,2.9842,0.0,3.0622,3.1083,3.1165,3.1829,3.2083,3.1843,3.0866,3.0473,3.0418,3.0486,3.0093,2.9692,3.0147,2.9709,2.8862,2.7976,0.0,0.0,0.0,0.0,0.0,0.0,2.4444,0.0,0.0,0.0,2.739,2.9524,0.0,3.0853,3.0775,0.0,0.0,3.0724,3.2847,3.412,3.2271,3.4531,3.6522,3.6902,3.7326,3.7595,3.7603,3.9271,3.9883,3.8685,4.0231,4.0701,3.95,4.0112,4.0496,4.0496,4.0496,4.0496,4.0496,4.0496,4.0496,4.0496,4.0496,4.1008,4.1942,4.1942,4.247,4.3335,4.2374,4.1942,4.1881,4.1041,4.0732,4.082,4.0944,4.105,4.1109,4.1109,4.1109,4.1109,2.3008,2.3673,2.464,2.5313,2.6542,2.7356,2.7185,2.7237,2.746,0.0,0.0,0.0,0.0,0.0,0.0,0.0,2.8912,2.8539,2.7866,2.7782,0.0,2.6067,2.5043,2.4262,2.3715,2.2921,2.2464,2.2341,2.2069,0.0,0.0,0.0,0.0,0.0,2.6249,0.0,2.7637,0.0,3.012,0.0,3.1083,3.1911,3.2715,3.1965,3.145,3.1137,3.0975,3.0703,3.0459,3.0798,3.0744,3.0513,3.0432,0.0,0.0,2.9073,0.0,0.0,0.0,0.0,0.0,0.0,0.0,0.0,2.7146,0.0,2.7503,2.7365,0.0,0.0,0.0,0.0,0.0,0.0,3.183,3.2706,3.2119,3.3823,3.5434,3.6326,3.7169,3.7603,3.7411,3.9713,4.0237,3.7849,3.9854,4.0576,3.9199,3.9565,4.0015,4.0496,4.0496,4.0496,4.0496,4.0496,4.0496,4.0496,4.0496,4.095,4.1808,4.2316,4.2758,4.3085,4.272,4.2277,4.1747,4.1003,4.0732,4.082,4.0944,4.105,4.1109,4.1109,4.1109,4.1109,2.5046,2.5145,2.5564,2.6219,2.7372,2.8123,2.7806,2.8105,2.8599,2.9392,2.9627,3.0098,3.1089,3.0618,3.0294,0.0,3.0189,2.9787,2.9295,2.9282,2.8679,2.7378,2.6611,2.5691,2.4607,2.3842,2.3345,2.3068,0.0,0.0,0.0,0.0,0.0,0.0,0.0,2.7949,2.8442,0.0,3.0385,3.1056,3.1416,3.2321,3.3325,3.2037,3.1165,3.069,3.0961,3.0771,3.05,3.1097,3.107,3.0785,3.0676,3.0746,3.0678,0.0,0.0,0.0,2.7987,0.0,0.0,2.7265,2.7111,2.7142,2.749,2.7732,0.0,2.6071,2.77,0.0,0.0,0.0,0.0,0.0,0.0,3.0593,3.0538,3.2087,3.3759,3.5133,3.6272,3.6991,3.7051,3.9394,3.9839,3.72,3.9282,4.007,3.8695,3.9045,3.9573,4.015,4.04,4.0496,4.0496,4.0496,4.0496,4.0496,4.0496,4.095,4.1808,4.247,4.2739,4.2739,4.2739,4.2258,4.1401,4.0865,4.0703,4.0815,4.0902,4.1017,4.1109,4.1109,4.1109,4.1109,2.8333,2.7157,2.6396,2.7467,2.817,2.8766,2.9354,2.9435,2.9869,3.1062,3.1726,3.2308,3.2969,3.3436,3.3531,3.305,3.2983,3.226,3.0563,3.0447,2.9669,2.7971,2.6783,2.6408,2.6775,2.5691,2.5335,2.5776,2.5194,0.0,0.0,0.0,0.0,0.0,0.0,2.7718,2.7872,3.0243,3.0914,3.0521,3.1715,3.224,3.2317,3.2212,3.1789,3.1192,3.0635,3.0432,3.05,3.1097,3.0513,2.9774,3.0907,3.0538,2.9705,0.0,0.0,0.0,2.9155,2.8654,2.8369,2.9262,2.858,2.7985,2.9233,2.8115,2.682,0.0,0.0,0.0,0.0,0.0,0.0,0.0,0.0,0.0,0.0,0.0,0.0,0.0,0.0,3.4969,3.6123,3.8021,3.8577,3.7108,3.8761,3.9197,3.7715,3.8703,3.9304,3.9342,4.0092,4.0496,4.0496,4.0496,4.0496,4.0496,4.0496,4.095,4.1788,4.1827,4.1846,4.1846,4.1846,4.1354,4.0535,4.0523,4.0617,4.081,4.0791,4.0938,4.1109,4.1109,4.1109,4.1109,2.9176,2.8093,2.7517,2.8709,2.9387,2.9862,3.0066,3.0418,3.111,3.2341,3.2983,3.3729,3.4706,3.426,3.3989,3.4217,3.3878,3.3233,3.2287,3.2233,3.1585,3.0228,2.8632,2.7857,2.8032,2.6082,2.5349,2.5887,2.5303,0.0,0.0,0.0,0.0,0.0,0.0,2.7989,0.0,0.0,0.0,0.0,3.4317,3.4165,3.3189,3.3,3.2837,3.2647,3.2346,3.2322,3.2349,3.2115,3.1749,3.1436,3.1416,3.1436,3.1246,3.028,3.0414,3.0669,2.9827,2.9696,2.9842,3.0014,2.9827,2.9726,3.0147,2.9435,2.8391,2.7578,0.0,0.0,0.0,0.0,0.0,0.0,0.0,0.0,0.0,0.0,2.9853,0.0,0.0,0.0,0.0,0.0,3.931,3.7709,3.9339,3.9524,3.7518,3.7885,3.8525,3.9277,3.9554,3.9958,4.0496,4.0496,4.0496,4.0496,4.0496,4.065,4.0969,4.2124,4.2027,4.0989,4.2162,4.1835,4.0496,4.0496,4.0602,4.0721,4.0721,4.0852,4.1047,4.108,4.1109,4.1087,2.9556,2.8858,2.8587,2.9366,2.9998,3.0473,3.069,3.1219,3.2001,3.2966,3.3756,3.4517,3.5276,3.487,3.4612,3.4775,3.4436,3.3975,3.3417,3.3224,3.2667,3.1653,3.0079,2.9129,2.8912,2.7176,2.6267,2.6226,2.5846,2.5317,0.0,0.0,0.0,0.0,0.0,2.8174,2.9085,3.0856,3.2364,0.0,3.5131,3.5049,3.4154,3.4245,3.4151,3.3946,3.3779,3.3768,3.3835,3.3384,3.3107,3.2868,3.2467,3.2378,3.227,3.1468,3.1372,3.144,3.1013,3.1043,3.1116,3.0759,3.1056,3.1279,3.0746,3.0221,2.9577,2.8523,2.8003,0.0,0.0,0.0,0.0,0.0,0.0,0.0,0.0,2.7863,0.0,0.0,0.0,0.0,0.0,0.0,0.0,3.7949,0.0,0.0,0.0,3.7661,3.7972,3.8815,3.915,3.9554,4.0073,4.0362,4.0496,4.0496,4.0816,4.1123,4.1458,4.2585,4.2489,4.1477,4.2277,4.1816,4.0496,4.0496,4.0586,4.0694,4.0694,4.08,4.0944,4.103,4.1068,4.1042,2.9665,2.9529,2.9529,2.9583,3.0079,3.0676,3.1219,3.1843,3.2504,3.3061,3.4136,3.4829,3.4829,3.5344,3.5493,3.4883,3.4829,3.4585,3.3989,3.3471,3.2911,3.2286,3.1083,3.0174,2.9611,2.8931,2.8035,2.6904,2.6823,0.0,0.0,0.0,0.0,0.0,2.722,0.0,2.9358,3.1143,3.2061,3.2556,3.4296,3.4987,3.5048,3.5778,3.5664,3.5094,3.4796,3.478,3.4898,3.4865,3.4469,3.3987,3.3957,3.3331,3.2721,3.3246,3.2482,3.1676,3.2684,3.2645,3.2184,3.1529,3.2177,3.2551,3.0998,3.0484,3.0188,2.9593,2.8142,2.7307,0.0,0.0,0.0,0.0,0.0,0.0,0.0,0.0,0.0,0.0,0.0,0.0,0.0,0.0,0.0,0.0,0.0,0.0,0.0,3.7985,3.7745,3.7973,3.8757,3.92,3.9288,4.0046,4.045,4.05,4.1327,4.2181,4.297,4.3028,4.3008,4.2931,4.2143,4.1316,4.0496,4.0496,4.0586,4.0687,4.0687,4.0726,4.0815,4.094,4.0987,4.0977,3.0201,2.9794,2.9801,3.0676,3.1327,3.1626,3.1327,3.2548,3.3515,3.3664,3.4707,3.5493,3.5493,3.5628,3.5655,3.5506,3.5493,3.5195,3.4612,3.4423,3.3919,3.2911,3.1694,3.0988,3.0825,2.9186,2.8381,2.8518,2.7143,0.0,2.6471,0.0,0.0,0.0,0.0,0.0,3.1311,3.2446,3.3704,3.505,3.6061,3.6258,3.6017,3.6523,3.6832,3.6871,3.5916,3.5959,3.6352,3.5817,3.5522,3.5312,3.4877,3.4576,3.4319,3.3668,3.3591,3.3727,3.3534,3.3127,3.2654,3.2356,3.2226,3.2063,3.1668,3.1168,3.0794,3.0628,2.9822,2.9135,2.8996,2.8818,0.0,0.0,0.0,0.0,0.0,0.0,0.0,2.6831,0.0,0.0,0.0,0.0,0.0,0.0,0.0,0.0,3.8367,3.8291,3.8108,3.7783,3.7517,3.789,3.8986,3.9407,3.9837,4.0278,4.0663,4.0958,4.1189,4.1835,4.1777,4.1189,4.1623,4.1316,4.0496,4.0496,4.0519,4.0557,4.0557,4.0629,4.074,4.081,4.0846,4.0833,3.0161,3.0199,3.075,3.1916,3.2853,3.3129,3.2228,3.3363,3.4287,3.4287,3.51,3.571,3.571,3.571,3.571,3.571,3.571,3.5574,3.5209,3.4938,3.449,3.3865,3.2698,3.1938,3.168,3.0296,2.9407,2.9099,2.8094,2.7575,2.7515,0.0,0.0,0.0,0.0,3.0441,3.2735,3.3864,3.5034,3.6167,3.6919,3.6877,0.0,3.6999,3.7386,3.7529,3.6832,3.6877,3.7151,3.6739,3.66,3.6523,3.6197,3.5902,3.5547,3.4937,3.4718,3.455,3.4079,3.3829,3.3512,3.2779,3.2791,3.2764,3.2053,3.1814,3.1704,3.1704,3.1033,3.0529,3.0861,3.0442,2.9872,0.0,0.0,0.0,0.0,0.0,0.0,0.0,2.9247,0.0,0.0,0.0,0.0,0.0,0.0,0.0,0.0,3.8679,3.8069,3.7547,3.7524,3.7762,3.8195,3.9197,3.9872,4.0205,4.0792,4.1066,4.1085,4.1585,4.1527,4.1066,4.1181,4.095,4.0496,4.0496,4.0496,4.0496,4.0496,4.0549,4.0615,4.0655,4.0715,4.0749,3.0521,3.109,3.215,3.3416,3.4401,3.4697,3.3649,3.4308,3.4883,3.4802,3.5423,3.5898,3.598,3.5993,3.598,3.5993,3.5993,3.5952,3.5871,3.538,3.5027,3.4971,3.3914,3.302,3.2341,3.185,3.0925,2.9522,2.9452,2.9103,0.0,0.0,0.0,0.0,0.0,0.0,0.0,3.5489,3.6338,3.6598,3.7338,3.7196,3.6598,3.7243,3.751,3.751,3.751,3.751,3.751,3.751,3.751,3.751,3.751,3.7054,3.6535,3.6535,3.5783,3.4878,3.4648,3.4623,3.4356,3.3146,3.3497,3.3799,3.2394,3.241,3.2683,3.2683,3.1948,3.1705,3.305,3.2024,3.091,0.0,0.0,0.0,0.0,0.0,0.0,0.0,0.0,0.0,0.0,0.0,0.0,0.0,0.0,0.0,0.0,0.0,3.8169,3.7301,3.7909,3.7947,3.7274,3.8956,3.9919,4.0129,4.1088,4.1566,4.1583,4.1698,4.1695,4.1585,4.095,4.0612,4.0496,4.0496,4.0496,4.0496,4.0496,4.0496,4.0496,4.0473,4.053,4.0623,3.4114,3.3715,3.379,3.5534,3.5467,3.5236,3.5451,3.5505,3.5344,3.4856,3.591,3.6911,3.7522,3.751,3.747,3.7578,3.751,3.7207,3.673,3.6604,3.6311,3.5819,3.4947,3.4014,3.2966,3.3163,3.2782,3.173,3.1371,3.1437,0.0,0.0,0.0,0.0,0.0,0.0,3.4699,3.7604,3.8241,3.7354,3.8049,3.7923,3.7306,3.7462,3.751,3.751,3.751,3.751,3.751,3.751,3.751,3.751,3.751,3.7415,3.7291,3.7291,3.6727,3.6085,3.6045,3.5228,3.4305,3.4053,3.3745,3.3409,3.3123,3.3134,3.3187,3.3187,3.3039,3.2992,3.3251,3.3035,3.2993,3.3498,3.2139,0.0,0.0,0.0,0.0,0.0,0.0,3.4022,0.0,0.0,0.0,0.0,0.0,0.0,0.0,0.0,3.9838,3.7133,3.6728,3.669,3.7051,3.7547,3.842,3.9628,3.9989,4.0262,4.0499,4.1169,4.1193,4.0766,4.1335,4.1162,4.0496,4.0496,4.0496,4.0496,4.0496,4.0496,4.0481,4.0313,4.0278,4.0285,3.6134,3.5688,0.0,3.6553,3.6432,3.6193,3.6302,3.6598,3.6735,3.6498,3.7063,3.7707,3.8366,3.8382,3.8327,3.8436,3.8046,3.7882,3.8078,3.7734,3.7368,3.7091,3.6011,3.5034,3.4224,3.3992,3.369,3.3237,3.3383,3.3813,0.0,0.0,0.0,0.0,0.0,3.5821,0.0,3.7815,3.8286,3.8017,3.7986,3.8002,3.797,3.7622,3.751,3.751,3.751,3.751,3.751,3.751,3.751,3.751,3.751,3.751,3.751,3.751,3.7243,3.6896,3.6503,3.5932,3.5221,3.4478,3.4051,3.3719,3.3388,3.3309,3.3309,3.3309,3.3309,3.3309,3.3309,3.3577,3.3814,3.3783,3.323,0.0,0.0,0.0,0.0,0.0,0.0,0.0,0.0,0.0,0.0,0.0,0.0,0.0,0.0,0.0,4.0146,3.6951,3.6967,3.6761,3.6223,3.7269,3.8184,3.8888,3.9509,3.9943,4.0224,4.1036,4.1319,4.12,4.1623,4.1566,4.1143,4.0689,4.0496,4.0489,4.04,4.0339,4.0321,4.0081,3.9983,3.9983,3.743,3.7218,3.699,3.7419,3.7379,3.7201,3.7057,3.7657,3.81,3.8154,3.8473,3.8939,3.9498,3.957,3.957,3.957,3.9073,3.8964,3.9422,3.8911,3.8508,3.8361,3.7137,3.6221,3.5713,3.5281,3.4887,3.4588,3.5484,3.5842,3.5783,0.0,0.0,0.0,3.8354,3.8207,3.7747,3.8017,3.8365,3.8681,3.8128,3.816,3.8444,3.7779,3.751,3.751,3.751,3.751,3.751,3.751,3.751,3.751,3.751,3.751,3.751,3.751,3.751,3.7354,3.6801,3.6519,3.6124,3.5015,3.451,3.4146,3.3625,3.3514,3.3467,3.3324,3.3309,3.3388,3.3688,3.3925,3.4031,3.3847,3.4032,3.4181,0.0,0.0,0.0,0.0,0.0,0.0,0.0,0.0,0.0,0.0,0.0,0.0,4.0259,0.0,4.023,3.7031,3.7551,3.7193,3.5745,3.7212,3.8052,3.824,3.9183,3.9794,4.007,4.108,4.16,4.1739,4.1903,4.1813,4.147,4.0785,4.0496,4.0481,4.0278,4.0205,4.0158,3.9848,3.9739,3.9717,3.8347,3.8162,3.8273,3.8719,3.8218,3.7906,3.8417,3.8638,3.8719,3.8719,4.0076,4.1322,4.1978,4.2013,4.2013,4.2052,4.1954,4.1418,4.0353,4.0203,3.989,3.9226,3.8377,3.7723,3.7281,3.7866,3.7524,3.6171,3.7547,3.6999,3.4776,3.7297,3.8434,3.8446,3.8477,3.8476,3.8491,3.9771,3.9961,3.9408,3.9345,3.8997,3.8444,3.7779,3.751,3.751,3.751,3.751,3.751,3.751,3.751,3.751,3.751,3.751,3.751,3.751,3.751,3.7494,3.7431,3.6911,3.6361,3.6235,3.5252,3.4273,3.4209,3.4194,3.402,3.3435,3.3309,3.3688,3.4968,3.4209,3.3889,3.5336,3.4547,3.4249,3.5662,0.0,3.5445,0.0,0.0,0.0,0.0,3.833,0.0,0.0,0.0,0.0,0.0,4.1374,4.0954,3.7803,3.7766,3.7396,3.6507,3.6742,3.7221,3.7966,3.876,3.9311,3.9625,4.1218,4.1764,4.1485,4.2269,4.1856,4.0631,4.0535,4.0496,4.0481,4.0278,4.0205,4.0158,3.969,3.9483,3.9401,4.0207,4.0507,4.0616,3.9736,3.9785,4.0003,4.011,4.0612,4.1075,4.1456,4.1783,4.2239,4.286,4.2935,4.2895,4.2935,4.2536,4.2318,4.233,4.1568,4.1005,4.068,3.9601,3.8761,3.8212,3.8577,3.8561,3.815,3.9555,3.9966,3.9454,3.9752,3.9597,3.9108,3.9108,3.936,3.9756,3.9471,3.9408,3.9424,3.8618,3.8381,3.8444,3.7779,3.7733,3.8049,3.7622,3.7749,3.8033,3.7652,3.751,3.751,3.751,3.751,3.751,3.751,3.751,3.751,3.751,3.7275,3.6959,3.6503,3.5966,3.5347,3.4494,3.4288,3.4099,3.3435,3.3625,3.4048,3.4536,3.4803,3.5041,3.5172,3.4684,3.4627,3.5546,0.0,0.0,0.0,0.0,0.0,0.0,0.0,0.0,0.0,0.0,0.0,0.0,4.1984,4.1266,3.9239,3.7854,3.6732,3.5901,3.6424,3.6866,3.7188,3.8469,3.9232,3.957,4.1236,4.1982,4.1958,4.2308,4.1554,4.0082,4.0082,4.0082,4.0062,3.9867,3.9766,3.9686,3.9337,3.9156,3.9073,4.1445,4.179,4.1828,4.0529,4.0886,4.1302,4.1354,4.2095,4.28,4.3264,4.3154,4.3218,4.3633,4.3693,4.3693,4.3693,4.3255,4.3138,4.3587,4.2694,4.2001,4.1617,4.073,3.998,3.9429,3.955,3.9613,3.9663,4.0876,4.1363,4.113,4.0356,4.004,4.0103,3.9914,4.0214,4.0814,3.9629,3.9392,3.974,3.8776,3.857,3.8744,3.827,3.8381,3.8744,3.8254,3.8381,3.8728,3.8239,3.8111,3.8032,3.7636,3.751,3.7541,3.7733,3.7668,3.7541,3.7733,3.7668,3.7399,3.6864,3.655,3.6124,3.5142,3.4884,3.469,3.4229,3.4181,3.4265,3.4381,3.5176,3.5707,3.5313,3.5219,3.5302,3.5588,3.5194,0.0,0.0,3.7644,3.7886,3.7804,3.8833,0.0,0.0,0.0,0.0,0.0,4.1179,4.0496,3.9169,3.7427,3.6107,3.5264,3.6218,3.6699,3.6705,3.8321,3.9322,3.9819,4.1554,4.2416,4.2547,4.2385,4.1461,4.0105,3.987,3.9765,3.9731,3.9513,3.9414,3.9337,3.9078,3.8939,3.8881,4.1566,4.1415,4.1328,4.1127,4.111,4.1288,4.1915,4.275,4.3269,4.3284,4.4043,4.4572,4.4572,4.4572,4.4572,4.4572,4.4572,4.4279,4.3655,4.3593,4.2992,4.1663,4.1716,4.1565,4.1083,4.1189,4.106,4.0561,4.1257,4.0198,3.7589,3.8223,3.9629,4.1541,4.0877,4.0956,4.1525,4.0862,4.0577,4.0593,4.0577,4.0135,3.9487,3.9471,3.9487,3.9487,3.9471,3.9487,3.9487,3.9471,3.9471,3.9234,3.7937,3.751,3.7636,3.8302,3.8017,3.7622,3.8318,3.8002,3.751,3.7494,3.6943,3.6393,3.6377,3.6214,3.6077,3.6077,3.5004,3.4311,3.4975,3.5163,3.5453,3.6176,3.6353,3.6335,3.62,3.557,3.6077,3.8754,3.9717,4.0154,4.0154,4.2155,0.0,0.0,0.0,0.0,0.0,0.0,3.8365,3.6882,3.6349,3.5725,3.4902,3.6102,3.6699,3.6705,3.8321,3.9547,4.0448,4.2323,4.3182,4.3149,4.2566,4.1749,4.0839,4.0038,3.9656,3.9576,3.9377,3.9311,3.9272,3.9007,3.8866,3.8807,4.2866,4.3174,4.3365,4.2728,4.3073,4.3553,4.3726,4.4004,4.4174,4.4174,4.4419,4.461,4.461,4.461,4.461,4.461,4.461,4.4533,4.4317,4.3855,4.3223,4.2325,4.212,4.1719,4.1133,4.1372,4.1412,4.1272,4.1983,4.1636,4.0293,4.0498,4.0719,4.0909,4.0704,4.0972,4.1541,4.0877,4.0609,4.0561,4.0056,3.9974,4.0178,4.0178,4.0484,4.0807,4.0355,4.0209,4.023,4.0203,4.0178,4.0188,4.0143,3.9562,3.8902,3.9123,3.935,3.9597,3.9808,3.9696,3.9564,3.9564,3.903,3.8375,3.7799,3.6836,3.6024,3.6024,3.5663,3.5366,3.5428,3.5826,3.6199,3.628,3.5912,3.5758,3.6329,3.581,3.5913,3.7365,3.7813,3.7804,3.7259,3.8258,0.0,0.0,0.0,0.0,0.0,3.8498,3.7757,3.7553,3.5905,3.5235,3.5721,3.6149,3.6754,3.7541,3.9194,4.0698,4.2069,4.2656,4.2928,4.2891,4.2132,4.1292,4.0369,3.9549,3.9173,3.9119,3.9059,3.8989,3.895,3.8862,3.8792,3.8735,4.3888,4.4212,4.4419,4.3888,4.4251,4.461,4.461,4.461,4.461,4.461,4.461,4.461,4.461,4.461,4.461,4.461,4.461,4.461,4.461,4.4225,4.3701,4.2987,4.2636,4.2162,4.1492,4.1565,4.1588,4.1588,4.2047,4.2047,4.1588,4.1588,4.1367,4.0972,4.0972,4.1209,4.1573,4.1446,4.1083,4.0625,4.0956,4.1007,4.0931,4.1466,4.1896,4.219,4.1779,4.1638,4.1671,4.1659,4.1615,4.1704,4.2067,4.1658,4.0902,4.0415,4.0357,4.0556,4.0802,4.0672,4.055,4.0769,4.0342,3.9782,3.945,3.819,3.6993,3.6733,3.6207,3.576,3.5611,3.618,3.6571,3.6337,3.6163,3.6049,3.6049,3.5697,3.5948,3.7384,3.7641,3.7595,3.7365,3.7481,3.753,3.7422,0.0,0.0,0.0,3.7868,3.7118,3.6274,3.499,3.4687,3.5498,3.6249,3.7215,3.8377,4.0364,4.1832,4.2816,4.3113,4.3243,4.3206,4.2389,4.1698,4.1018,3.9875,3.9353,3.9245,3.8951,3.8792,3.8732,3.859,3.8512,3.8451,4.461,4.461,4.461,4.461,4.461,4.461,4.461,4.461,4.461,4.461,4.461,4.461,4.461,4.461,4.461,4.461,4.461,4.461,4.461,4.461,4.4317,4.3639,4.3304,4.2833,4.21,4.1832,4.1667,4.1667,4.1715,4.1746,4.1746,4.1746,4.1746,4.1731,4.1683,4.1699,4.1778,4.2363,4.1889,4.0909,4.2839,4.2828,4.1788,4.315,4.3637,4.3571,4.3571,4.3542,4.3512,4.3542,4.3571,4.3571,4.363,4.3601,4.332,4.2004,4.1232,4.0902,4.1539,4.1246,4.0903,4.1475,4.1144,4.0803,4.1247,4.018,3.8885,3.8102,3.6797,3.5774,3.5672,3.622,3.6593,3.6341,3.6943,3.693,3.5544,3.5374,3.6191,3.8374,3.8633,3.8893,3.9534,3.9033,3.8167,3.6963,3.5665,3.4915,3.4934,3.6748,3.6484,3.3581,3.3861,3.4246,3.463,3.6459,3.8015,3.9305,4.1664,4.2835,4.2909,4.3636,4.3989,4.3952,4.3135,4.2724,4.2472,4.0849,4.0111,3.99,3.9116,3.8808,3.8776,3.8366,3.8214,3.8144,4.461,4.461,4.461,4.461,4.461,4.461,4.461,4.461,4.461,4.461,4.461,4.461,4.461,4.461,4.461,4.461,4.4723,4.4761,4.461,4.4723,4.4467,4.3639,4.3769,4.3332,4.2115,4.2336,4.2426,4.2426,4.2963,4.3216,4.3216,4.3184,4.3184,4.32,4.2663,4.2726,4.3119,4.2236,4.1983,4.2256,4.2686,4.292,4.3119,4.3956,4.4296,4.4259,4.4259,4.3939,4.3571,4.41,4.4259,4.4344,4.479,4.4625,4.4095,4.3284,4.3265,4.3602,4.3741,4.3657,4.3597,4.3738,4.32,4.2674,4.278,4.2006,4.0875,3.9519,3.8522,3.7526,3.6358,3.629,3.6363,3.6314,3.6456,3.6477,3.6118,3.6146,3.6416,3.6988,3.712,3.7026,3.6591,3.6403,3.665,3.7506,3.7248,3.71,3.7143,3.7606,3.6529,3.3582,3.4163,3.4995,3.5947,3.6656,3.8352,4.1014,4.2222,4.3113,4.3726,4.3868,4.3929,4.3857,4.2961,4.253,4.2359,4.1364,4.0896,4.0767,4.021,3.9999,3.9947,3.9552,3.9402,3.9383,4.461,4.461,4.461,4.461,4.461,4.461,4.461,4.461,4.461,4.461,4.461,4.461,4.461,4.461,4.461,4.461,4.4799,4.4836,4.4723,4.4927,4.4847,4.4363,4.4278,4.3892,4.3177,4.2858,4.2521,4.2189,4.29,4.3074,4.2758,4.3074,4.3232,4.3232,4.2853,4.29,4.32,4.2712,4.2589,4.275,4.3634,4.3974,4.4047,4.4715,4.493,4.4906,4.4906,4.4697,4.4412,4.478,4.4906,4.4961,4.5318,4.5167,4.4852,4.4468,4.4429,4.4502,4.4502,4.4502,4.4502,4.4502,4.4391,4.4275,4.4275,4.3366,4.2223,4.0991,3.9871,3.8732,3.756,3.7353,3.7232,3.6887,3.6835,3.6715,3.6353,3.6343,3.6402,3.6402,3.6464,3.635,3.5896,3.5593,3.5908,3.7123,3.6609,3.6406,3.678,3.6798,3.5952,3.4108,3.4793,3.5594,3.6399,3.7972,3.9913,4.2166,4.2919,4.3534,4.3942,4.3662,4.3647,4.3798,4.2896,4.2573,4.2607,4.1575,4.1106,4.0981,4.0364,4.0128,4.0071,3.9684,3.9525,3.9504,4.461,4.461,4.461,4.461,4.461,4.461,4.461,4.461,4.461,4.461,4.461,4.461,4.461,4.461,4.461,4.461,4.4799,4.4911,4.4911,4.5092,4.5182,4.5182,4.4773,4.449,4.438,4.3476,4.2695,4.2062,4.2805,4.2774,4.2078,4.2695,4.2999,4.299,4.2895,4.2962,4.3175,4.346,4.3311,4.3047,4.4735,4.5059,4.457,4.5219,4.5463,4.5397,4.5397,4.5397,4.5397,4.5397,4.5397,4.5397,4.5397,4.5397,4.5397,4.5397,4.5059,4.4642,4.4642,4.4642,4.4642,4.4642,4.5015,4.5397,4.5397,4.444,4.3241,4.2223,4.0957,3.975,3.8767,3.8594,3.8456,3.8082,3.7823,3.7478,3.6887,3.6611,3.6439,3.6318,3.6301,3.6301,3.6301,3.5797,3.5737,3.6451,3.5384,3.4992,3.5658,3.5797,3.5649,3.5176,3.5666,3.6211,3.6791,3.9631,4.1646,4.2801,4.3474,4.3798,4.3781,4.323,4.3195,4.3531,4.2772,4.2619,4.2792,4.1706,4.1241,4.1107,4.0348,4.006,4.0,3.9589,3.9458,3.9394,4.461,4.461,4.461,4.461,4.461,4.461,4.461,4.461,4.461,4.461,4.461,4.461,4.461,4.461,4.461,4.461,4.4942,4.5092,4.4911,4.5092,4.5182,4.5182,4.5295,4.506,4.4396,4.439,4.4338,4.4227,4.497,4.4954,4.4227,4.4354,4.4381,4.4347,4.3734,4.4107,4.5074,4.3995,4.3812,4.4318,4.4562,4.4592,4.4575,4.5179,4.5404,4.5397,4.5397,4.5397,4.5397,4.5397,4.5397,4.5397,4.5397,4.5397,4.5397,4.5397,4.5344,4.5247,4.5247,4.5247,4.5247,4.5247,4.5344,4.5397,4.5397,4.5225,4.4492,4.2406,4.1826,4.1032,3.8974,3.8594,3.8996,4.0187,3.929,3.8594,3.9094,3.8094,3.7042,3.6387,3.6301,3.6301,3.6301,3.6218,3.6243,3.6485,3.6315,3.6269,3.651,3.7099,3.7398,3.7335,3.683,3.721,3.8582,4.0474,4.1863,4.2727,4.3105,4.33,4.3282,4.268,4.2465,4.2505,4.2322,4.2279,4.232,4.2114,4.2019,4.1961,4.1439,4.1231,4.1187,4.0793,4.0625,4.0625,4.461,4.461,4.461,4.461,4.461,4.461,4.461,4.461,4.461,4.461,4.461,4.461,4.461,4.461,4.461,4.461,4.4852,4.5039,4.5055,4.5352,4.5515,4.5515,4.5625,4.5315,4.4591,4.5025,4.4938,4.418,4.4875,4.4859,4.418,4.453,4.4712,4.469,4.4314,4.4481,4.5007,4.4319,4.4243,4.4574,4.4878,4.4988,4.5032,4.5274,4.5397,4.5397,4.5397,4.5397,4.5397,4.5397,4.5397,4.5397,4.5397,4.5397,4.5397,4.5397,4.5397,4.5397,4.5397,4.5397,4.5397,4.5397,4.5397,4.5397,4.5397,4.5096,4.4389,4.2948,4.2309,4.1567,4.0118,3.9842,3.9945,4.0221,3.9646,3.9026,3.8577,3.7944,3.7202,3.6404,3.6301,3.6473,3.6887,3.6542,3.6512,3.7007,3.7041,3.7063,3.7143,3.7455,3.7815,3.8213,3.8009,3.8547,3.9893,4.0935,4.1831,4.2594,4.2941,4.2959,4.2699,4.2124,4.1997,4.2221,4.1731,4.1622,4.1799,4.1578,4.1507,4.1485,4.126,4.1186,4.114,4.0965,4.0912,4.0912,4.461,4.461,4.461,4.461,4.461,4.461,4.461,4.461,4.461,4.461,4.461,4.461,4.461,4.461,4.461,4.461,4.4799,4.5002,4.5182,4.5515,4.5735,4.5807,4.5807,4.5555,4.4986,4.5523,4.5286,4.4176,4.4684,4.4598,4.3931,4.4429,4.4674,4.467,4.4608,4.4647,4.4775,4.4739,4.4714,4.4769,4.522,4.5397,4.5397,4.5397,4.5397,4.5397,4.5397,4.5397,4.5397,4.5397,4.5397,4.5397,4.5397,4.5397,4.5397,4.5397,4.5397,4.5397,4.5397,4.5397,4.5397,4.5397,4.5397,4.5397,4.5397,4.4837,4.4087,4.3345,4.2568,4.1774,4.105,4.0912,4.0825,4.0543,4.0198,3.9629,3.8686,3.8254,3.7715,3.6922,3.6835,3.7077,3.7702,3.7198,3.7077,3.7719,3.7771,3.7771,3.7771,3.7927,3.8375,3.9094,3.9096,3.9582,4.063,4.1176,4.1809,4.2464,4.2619,4.2521,4.2124,4.1604,4.1556,4.186,4.1186,4.1088,4.1351,4.1018,4.0912,4.0912,4.0912,4.0912,4.0912,4.0912,4.0912,4.0912,4.461,4.461,4.461,4.461,4.461,4.461,4.461,4.461,4.461,4.461,4.461,4.461,4.461,4.461,4.461,4.461,4.4799,4.5002,4.5182,4.5405,4.5589,4.5771,4.5807,4.5776,4.5728,4.5776,4.576,4.5665,4.5619,4.5285,4.4624,4.4617,4.4584,4.4513,4.4519,4.481,4.5333,4.5335,4.5344,4.5344,4.5371,4.5397,4.5397,4.5397,4.5397,4.5397,4.5397,4.5397,4.5397,4.5397,4.5397,4.5397,4.5397,4.5397,4.5397,4.5397,4.5397,4.5397,4.5397,4.5397,4.5397,4.5397,4.5397,4.5397,4.5397,4.4837,4.4087,4.3345,4.2568,4.1774,4.105,4.0912,4.1343,4.2723,4.174,4.1015,4.1602,4.0422,3.925,3.8508,3.8422,3.8439,3.8491,3.8456,3.8461,3.8491,3.8508,3.8508,3.8508,3.9163,3.9888,4.0722,4.0014,3.9901,4.0414,4.1268,4.1898,4.2306,4.1973,4.1778,4.1731,4.1186,4.0965,4.0989,4.0918,4.0935,4.0942,4.0894,4.0912,4.0912,4.0912,4.0912,4.0912,4.0912,4.0912,4.0912,4.461,4.461,4.461,4.461,4.461,4.461,4.461,4.461,4.461,4.461,4.461,4.461,4.461,4.461,4.461,4.461,4.4799,4.5002,4.5182,4.5405,4.5589,4.5771,4.5807,4.5807,4.5807,4.5807,4.5807,4.5807,4.5313,4.517,4.5321,4.4844,4.479,4.5116,4.5084,4.5194,4.5397,4.5397,4.5397,4.5397,4.5397,4.5397,4.5397,4.5397,4.5397,4.5397,4.5397,4.5397,4.5397,4.5397,4.5397,4.5397,4.5397,4.5397,4.5397,4.5397,4.5397,4.5397,4.5397,4.5397,4.5397,4.5397,4.5397,4.5397,4.5397,4.4475,4.3534,4.3258,4.2206,4.124,4.0963,4.0912,4.1101,4.1688,4.1291,4.0825,4.0595,4.006,3.9422,3.8681,3.8594,3.8767,3.9232,3.887,3.8784,3.925,3.9267,3.9267,3.9267,4.0032,4.0377,4.0146,4.0359,4.0516,4.07,4.1283,4.1534,4.1428,4.1516,4.1445,4.1186,4.0989,4.0912,4.0912,4.0912,4.0912,4.0912,4.0912,4.0912,4.0912,4.0912,4.0912,4.0912,4.0912,4.0912,4.0912,4.461,4.461,4.461,4.461,4.461,4.461,4.461,4.461,4.461,4.461,4.461,4.461,4.461,4.461,4.461,4.461,4.4723,4.4889,4.5092,4.5352,4.5589,4.5771,4.5807,4.5807,4.5807,4.5807,4.5807,4.5807,4.5234,4.5233,4.5668,4.5108,4.5074,4.5467,4.5417,4.5397,4.5397,4.5397,4.5397,4.5397,4.5397,4.5397,4.5397,4.5397,4.5397,4.5397,4.5397,4.5397,4.5397,4.5397,4.5397,4.5397,4.5397,4.5397,4.5397,4.5397,4.5397,4.5397,4.5397,4.5397,4.5397,4.5397,4.5397,4.5397,4.5397,4.4251,4.3189,4.3189,4.1964,4.0912,4.0912,4.0912,4.0912,4.0912,4.0912,4.0722,4.0146,4.0077,3.9888,3.9393,3.9301,3.9508,4.0026,3.9612,3.9549,4.0026,4.0077,4.0077,4.0077,4.0601,4.0653,4.0077,4.0618,4.0912,4.0912,4.1186,4.1186,4.0894,4.1186,4.1163,4.0912,4.0912,4.0912,4.0912,4.0912,4.0912,4.0912,4.0912,4.0912,4.0912,4.0912,4.0912,4.0912,4.0912,4.0912,4.0912,4.461,4.461,4.461,4.461,4.461,4.461,4.461,4.461,4.461,4.461,4.461,4.461,4.461,4.461,4.461,4.461,4.461,4.4701,4.4874,4.5278,4.5589,4.5771,4.5807,4.5807,4.5807,4.5807,4.5807,4.5807,4.5652,4.5605,4.5603,4.5478,4.5397,4.5397,4.5397,4.5397,4.5397,4.5397,4.5397,4.5397,4.5397,4.5397,4.5397,4.5397,4.5397,4.5397,4.5397,4.5397,4.5397,4.5397,4.5397,4.5397,4.5397,4.5397,4.5397,4.5397,4.5397,4.5397,4.5397,4.5397,4.5397,4.5397,4.5397,4.5397,4.5397,4.4251,4.3189,4.3189,4.1964,4.0912,4.0912,4.0912,4.0912,4.0912,4.0912,4.0912,4.0912,4.0912,4.0912,4.0912,4.0912,4.0912,4.0912,4.0912,4.0912,4.0912,4.0912,4.0912,4.0912,4.0912,4.0912,4.0912,4.0912,4.0912,4.0912,4.0912,4.0912,4.0912,4.0912,4.0912,4.0912,4.0912,4.0912,4.0912,4.0912,4.0912,4.0912,4.0912,4.0912,4.0912,4.0912,4.0912,4.0912,4.0912,4.0912,4.0912,4.461,4.461,4.461,4.461,4.461,4.461,4.461,4.461,4.461,4.461,4.461,4.461,4.461,4.461,4.461,4.461,4.461,4.4739,4.5092,4.5352,4.5589,4.5771,4.5807,4.5807,4.5807,4.5807,4.5807,4.5807,4.5233,4.5177,4.5603,4.5036,4.4988,4.5397,4.5397,4.5397,4.5397,4.5397,4.5397,4.5397,4.5397,4.5397,4.5397,4.5397,4.5397,4.5397,4.5397,4.5397,4.5397,4.5397,4.5397,4.5397,4.5397,4.5397,4.5397,4.5397,4.5397,4.5397,4.5397,4.5397,4.5397,4.5397,4.5397,4.5397,4.5397,4.4251,4.3189,4.3189,4.1964,4.0912,4.0912,4.0912,4.0912,4.0912,4.0912,4.0912,4.0912,4.0912,4.0912,4.0912,4.0912,4.0912,4.0912,4.0912,4.0912,4.0912,4.0912,4.0912,4.0912,4.0912,4.0912,4.0912,4.0912,4.0912,4.0912,4.0912,4.0912,4.0912,4.0912,4.0912,4.0912,4.0912,4.0912,4.0912,4.0912,4.0912,4.0912,4.0912,4.0912,4.0912,4.0912,4.0912,4.0912,4.0912,4.084,4.0769,4.461,4.461,4.461,4.461,4.461,4.461,4.461,4.461,4.461,4.461,4.461,4.461,4.461,4.461,4.461,4.461,4.461,4.4776,4.5182,4.5331,4.5515,4.5771,4.5807,4.5807,4.5807,4.6064,4.6191,4.6191,4.5436,4.5384,4.5988,4.5207,4.5042,4.5397,4.5397,4.5397,4.5397,4.5397,4.5397,4.5397,4.5397,4.5397,4.5397,4.5397,4.5397,4.5397,4.5397,4.5397,4.5397,4.5397,4.5397,4.5397,4.5397,4.5397,4.5397,4.5397,4.5397,4.5397,4.5397,4.5397,4.5397,4.5397,4.5397,4.5397,4.5397,4.4251,4.3189,4.3189,4.1964,4.0912,4.0912,4.0912,4.0912,4.0912,4.0912,4.0912,4.0912,4.0912,4.0912,4.0912,4.0912,4.0912,4.0912,4.0912,4.0912,4.0912,4.0912,4.0912,4.0912,4.0912,4.0912,4.0912,4.0912,4.0912,4.0912,4.0912,4.0912,4.0912,4.0912,4.0912,4.0912,4.0912,4.0912,4.0888,4.0662,4.0686,4.0871,4.0638,4.0524,4.0458,4.0524,4.0336,4.0053,4.0377,4.0237,3.9969,4.461,4.461,4.461,4.461,4.461,4.461,4.461,4.461,4.461,4.461,4.461,4.461,4.461,4.461,4.461,4.461,4.461,4.4776,4.5182,4.5182,4.5368,4.5771,4.588,4.588,4.5807,4.6477,4.6811,4.6811,4.6125,4.6088,4.6587,4.5867,4.5466,4.5397,4.5397,4.5397,4.5397,4.5397,4.5397,4.5397,4.5397,4.5397,4.5397,4.5397,4.5397,4.5397,4.5397,4.5397,4.5397,4.5397,4.5397,4.5397,4.5397,4.5397,4.5397,4.5397,4.5397,4.5397,4.5397,4.5397,4.5397,4.5397,4.5397,4.5397,4.5397,4.4251,4.3189,4.3189,4.1964,4.0912,4.0912,4.0912,4.0912,4.0912,4.0912,4.0912,4.0912,4.0912,4.0912,4.0912,4.0912,4.0912,4.0912,4.0912,4.0912,4.0912,4.0912,4.0912,4.0912,4.0912,4.0912,4.0912,4.0912,4.0912,4.0912,4.0912,4.0912,4.0912,4.0912,4.0912,4.0912,4.0912,4.0871,4.0799,4.0245,4.0269,4.0686,4.0145,3.9808,3.9715,3.9834,3.9404,3.8772,3.9447,3.9262,3.8827,4.461,4.461,4.461,4.461,4.461,4.461,4.461,4.461,4.461,4.461,4.461,4.461,4.461,4.461,4.461,4.461,4.461,4.4776,4.5182,4.5182,4.5368,4.5771,4.6317,4.6353,4.5807,4.6477,4.6811,4.6811,4.7165,4.7076,4.6604,4.6415,4.5983,4.5397,4.5397,4.5397,4.5397,4.5397,4.5397,4.5397,4.5397,4.5397,4.5397,4.5397,4.5397,4.5397,4.5397,4.5397,4.5397,4.5397,4.5397,4.5397,4.5397,4.5397,4.5397,4.5397,4.5397,4.5397,4.5397,4.5397,4.5397,4.5397,4.5397,4.5397,4.5397,4.4251,4.3189,4.3189,4.1964,4.0912,4.0912,4.0912,4.0912,4.0912,4.0912,4.0912,4.0912,4.0912,4.0912,4.0912,4.0912,4.0912,4.0912,4.0912,4.0912,4.0912,4.0912,4.0912,4.0912,4.0912,4.0912,4.0912,4.0912,4.0912,4.0912,4.0912,4.0912,4.0912,4.0912,4.0912,4.0912,4.0912,4.0638,4.0195,4.0053,3.9757,3.9308,3.9176,3.9069,3.8935,3.8962,3.8881,3.8718,3.8881,3.8761,3.8557,4.461,4.461,4.461,4.461,4.461,4.461,4.461,4.461,4.461,4.461,4.461,4.461,4.461,4.461,4.461,4.461,4.461,4.4739,4.5055,4.5452,4.5801,4.614,4.655,4.6636,4.6282,4.6965,4.7322,4.7322,4.7646,4.7577,4.7107,4.6759,4.6155,4.5397,4.5397,4.5397,4.5397,4.5397,4.5397,4.5397,4.5397,4.5397,4.5397,4.5397,4.5397,4.5397,4.5397,4.5397,4.5397,4.5397,4.5397,4.5397,4.5397,4.5397,4.5397,4.5397,4.5397,4.5397,4.5397,4.5397,4.5397,4.5397,4.5397,4.5397,4.5397,4.4251,4.3189,4.3189,4.1964,4.0965,4.114,4.1018,4.0965,4.1163,4.1035,4.0912,4.0912,4.0912,4.0912,4.0912,4.0912,4.0912,4.0912,4.0912,4.0912,4.0912,4.0912,4.0912,4.0912,4.0912,4.0912,4.0912,4.0912,4.0912,4.0912,4.0912,4.0912,4.0912,4.0597,4.0476,4.0458,4.0212,3.9851,3.9456,3.9209,3.8978,3.8772,3.8497,3.8302,3.8189,3.8262,3.8035,3.7706,3.8064,3.8262,3.8334,4.4641,4.461,4.461,4.461,4.461,4.461,4.461,4.461,4.461,4.461,4.461,4.461,4.461,4.461,4.461,4.461,4.461,4.4685,4.4927,4.564,4.6166,4.6518,4.6708,4.6846,4.6983,4.7704,4.7998,4.7885,4.8077,4.7995,4.77,4.7079,4.6276,4.5397,4.5397,4.5397,4.5397,4.5397,4.5397,4.5397,4.5397,4.5397,4.5397,4.5397,4.5397,4.5397,4.5397,4.5397,4.5397,4.5397,4.5397,4.5397,4.5397,4.5397,4.5397,4.5397,4.5397,4.5397,4.5397,4.5397,4.5397,4.5397,4.5397,4.5397,4.5397,4.4354,4.3345,4.3224,4.2068,4.1174,4.144,4.1163,4.1018,4.1445,4.1163,4.0912,4.0912,4.0912,4.0912,4.0912,4.0912,4.0912,4.0912,4.0912,4.0912,4.0912,4.0912,4.0912,4.0912,4.0912,4.0912,4.0912,4.0912,4.0912,4.0912,4.0912,4.0847,4.0734,4.0145,3.9902,3.9978,3.9454,3.9038,3.8734,3.8282,3.8181,3.833,3.7822,3.7531,3.7429,3.7531,3.7133,3.6569,3.7177,3.7663,3.7924,4.4733,4.461,4.461,4.461,4.461,4.461,4.461,4.461,4.461,4.461,4.461,4.461,4.461,4.461,4.461,4.461,4.461,4.4776,4.5129,4.5278,4.5744,4.6708,4.6777,4.7085,4.7754,4.8415,4.8478,4.7885,4.911,4.9028,4.7689,4.7614,4.6776,4.5397,4.5397,4.5397,4.5397,4.5397,4.5397,4.5397,4.5397,4.5397,4.5397,4.5397,4.5397,4.5397,4.5397,4.5397,4.5397,4.5397,4.5397,4.5397,4.5397,4.5397,4.5397,4.5397,4.5397,4.5397,4.5397,4.5397,4.5397,4.5397,4.5397,4.5397,4.5397,4.4751,4.3966,4.3327,4.2482,4.1797,4.1545,4.1163,4.1018,4.1445,4.1163,4.0912,4.0912,4.0912,4.0912,4.0912,4.0912,4.0912,4.0912,4.0912,4.0912,4.0912,4.0912,4.0912,4.0912,4.0912,4.0912,4.0912,4.0912,4.0912,4.0912,4.0912,4.0638,4.012,3.9584,3.9558,3.9978,3.9454,3.8838,3.8197,3.8128,3.7666,3.6967,3.6876,3.6769,3.6662,3.6662,3.66,3.6523,3.66,3.6693,3.6739,4.471,4.461,4.461,4.461,4.461,4.461,4.461,4.461,4.461,4.461,4.461,4.461,4.461,4.461,4.461,4.461,4.461,4.4739,4.5002,4.5877,4.6622,4.7238,4.7721,4.7949,4.7885,4.8572,4.8572,4.7885,4.9303,4.9217,4.7689,4.7689,4.6879,4.5397,4.5397,4.5397,4.5397,4.5397,4.5397,4.5397,4.5397,4.5397,4.5449,4.5897,4.6069,4.6069,4.6069,4.5776,4.5397,4.5397,4.5397,4.5397,4.5397,4.5397,4.5397,4.5397,4.5397,4.5397,4.5397,4.5615,4.5854,4.5854,4.5854,4.5854,4.5854,4.5364,4.4578,4.3448,4.2568,4.1901,4.1563,4.1163,4.1018,4.1445,4.1163,4.0912,4.0912,4.0912,4.0912,4.0912,4.0912,4.0912,4.0912,4.0912,4.0912,4.0912,4.0912,4.0912,4.0912,4.0912,4.0912,4.0912,4.0912,4.0912,4.0912,4.0912,4.0776,4.05,3.9919,3.9437,3.9032,3.8479,3.8001,3.7594,3.7522,3.721,3.6693,3.6631,3.6554,3.6492,3.6492,3.6492,3.6492,3.6492,3.6492,3.6492]}]]